<?xml version="1.0" encoding="UTF-8" standalone="no" ?>
<gpx xmlns="http://www.topografix.com/GPX/1/1" xmlns:xsi="http://www.w3.org/2001/XMLSchema-instance" xsi:schemaLocation="http://www.topografix.com/GPX/1/1 http://www.topografix.com/GPX/1/1/gpx.xsd" version="1.1" creator="VisuGPX - https://www.visugpx.com">
  <metadata>
    <name>Col de Legal - Puy Chavaroche (AR)</name>
    <desc><![CDATA[Réalisée le 2022-10-19 - Auberge au puy du Legal (attention ne pas se fier aux jours d'ouverture)
]]></desc>
  </metadata>
  <trk>
    <name><![CDATA[2022-10-19 11:06]]></name>
    <extensions>
      <line xmlns="http://www.topografix.com/GPX/gpx_style/0/2">
        <color>0000FF</color>
        <width>4</width>
      </line>
    </extensions>
    <trkseg>
      <trkpt lat="45.07071" lon="2.57964">
        <ele>1219.08</ele>
        <time>2022-10-19T09:06:33.000Z</time>
      </trkpt>
      <trkpt lat="45.07074" lon="2.5796">
        <ele>1219.08</ele>
        <time>2022-10-19T09:06:43.000Z</time>
      </trkpt>
      <trkpt lat="45.07073" lon="2.5796">
        <ele>1215.35</ele>
        <time>2022-10-19T09:07:19.000Z</time>
      </trkpt>
      <trkpt lat="45.07072" lon="2.5796">
        <ele>1211.88</ele>
        <time>2022-10-19T09:07:37.000Z</time>
      </trkpt>
      <trkpt lat="45.07071" lon="2.57965">
        <ele>1219.06</ele>
        <time>2022-10-19T09:07:47.000Z</time>
      </trkpt>
      <trkpt lat="45.07068" lon="2.57981">
        <ele>1222.08</ele>
        <time>2022-10-19T09:07:56.684Z</time>
      </trkpt>
      <trkpt lat="45.07064" lon="2.57993">
        <ele>1226.01</ele>
        <time>2022-10-19T09:08:06.024Z</time>
      </trkpt>
      <trkpt lat="45.07066" lon="2.58001">
        <ele>1230.01</ele>
        <time>2022-10-19T09:08:15.561Z</time>
      </trkpt>
      <trkpt lat="45.07069" lon="2.58008">
        <ele>1231.07</ele>
        <time>2022-10-19T09:08:25.000Z</time>
      </trkpt>
      <trkpt lat="45.07069" lon="2.58011">
        <ele>1231.08</ele>
        <time>2022-10-19T09:08:35.000Z</time>
      </trkpt>
      <trkpt lat="45.07069" lon="2.58009">
        <ele>1231.08</ele>
        <time>2022-10-19T09:08:44.402Z</time>
      </trkpt>
      <trkpt lat="45.07062" lon="2.58002">
        <ele>1231.08</ele>
        <time>2022-10-19T09:08:53.562Z</time>
      </trkpt>
      <trkpt lat="45.07055" lon="2.58012">
        <ele>1232.08</ele>
        <time>2022-10-19T09:09:03.003Z</time>
      </trkpt>
      <trkpt lat="45.07055" lon="2.58026">
        <ele>1231.08</ele>
        <time>2022-10-19T09:09:12.584Z</time>
      </trkpt>
      <trkpt lat="45.07054" lon="2.58036">
        <ele>1231.07</ele>
        <time>2022-10-19T09:09:22.000Z</time>
      </trkpt>
      <trkpt lat="45.07055" lon="2.58039">
        <ele>1231.07</ele>
        <time>2022-10-19T09:09:31.455Z</time>
      </trkpt>
      <trkpt lat="45.07059" lon="2.58049">
        <ele>1232.07</ele>
        <time>2022-10-19T09:09:41.000Z</time>
      </trkpt>
      <trkpt lat="45.0706" lon="2.58051">
        <ele>1232.07</ele>
        <time>2022-10-19T09:09:50.472Z</time>
      </trkpt>
      <trkpt lat="45.07061" lon="2.58062">
        <ele>1233.01</ele>
        <time>2022-10-19T09:09:59.740Z</time>
      </trkpt>
      <trkpt lat="45.0706" lon="2.58073">
        <ele>1234.07</ele>
        <time>2022-10-19T09:10:10.000Z</time>
      </trkpt>
      <trkpt lat="45.07058" lon="2.58086">
        <ele>1236.01</ele>
        <time>2022-10-19T09:10:19.586Z</time>
      </trkpt>
      <trkpt lat="45.07056" lon="2.58095">
        <ele>1237.07</ele>
        <time>2022-10-19T09:10:29.000Z</time>
      </trkpt>
      <trkpt lat="45.07057" lon="2.58105">
        <ele>1238.82</ele>
        <time>2022-10-19T09:10:39.000Z</time>
      </trkpt>
      <trkpt lat="45.07057" lon="2.58115">
        <ele>1240.07</ele>
        <time>2022-10-19T09:10:48.520Z</time>
      </trkpt>
      <trkpt lat="45.07057" lon="2.58124">
        <ele>1243.06</ele>
        <time>2022-10-19T09:10:57.601Z</time>
      </trkpt>
      <trkpt lat="45.07059" lon="2.58134">
        <ele>1243.07</ele>
        <time>2022-10-19T09:11:06.682Z</time>
      </trkpt>
      <trkpt lat="45.07065" lon="2.58137">
        <ele>1247.01</ele>
        <time>2022-10-19T09:11:16.000Z</time>
      </trkpt>
      <trkpt lat="45.07071" lon="2.58137">
        <ele>1248.07</ele>
        <time>2022-10-19T09:11:25.183Z</time>
      </trkpt>
      <trkpt lat="45.07076" lon="2.58145">
        <ele>1248.07</ele>
        <time>2022-10-19T09:11:34.561Z</time>
      </trkpt>
      <trkpt lat="45.07079" lon="2.58151">
        <ele>1249.07</ele>
        <time>2022-10-19T09:11:43.740Z</time>
      </trkpt>
      <trkpt lat="45.07082" lon="2.5816">
        <ele>1250.07</ele>
        <time>2022-10-19T09:11:53.000Z</time>
      </trkpt>
      <trkpt lat="45.07083" lon="2.5817">
        <ele>1251.01</ele>
        <time>2022-10-19T09:12:02.221Z</time>
      </trkpt>
      <trkpt lat="45.07083" lon="2.5818">
        <ele>1252.06</ele>
        <time>2022-10-19T09:12:11.664Z</time>
      </trkpt>
      <trkpt lat="45.07082" lon="2.5819">
        <ele>1252.08</ele>
        <time>2022-10-19T09:12:21.000Z</time>
      </trkpt>
      <trkpt lat="45.07082" lon="2.58201">
        <ele>1253.07</ele>
        <time>2022-10-19T09:12:31.000Z</time>
      </trkpt>
      <trkpt lat="45.07081" lon="2.58211">
        <ele>1254.07</ele>
        <time>2022-10-19T09:12:40.403Z</time>
      </trkpt>
      <trkpt lat="45.07081" lon="2.5822">
        <ele>1256.01</ele>
        <time>2022-10-19T09:12:49.684Z</time>
      </trkpt>
      <trkpt lat="45.07078" lon="2.5823">
        <ele>1256.07</ele>
        <time>2022-10-19T09:12:59.462Z</time>
      </trkpt>
      <trkpt lat="45.07079" lon="2.58241">
        <ele>1257.07</ele>
        <time>2022-10-19T09:13:08.500Z</time>
      </trkpt>
      <trkpt lat="45.07079" lon="2.58252">
        <ele>1258.07</ele>
        <time>2022-10-19T09:13:18.042Z</time>
      </trkpt>
      <trkpt lat="45.07079" lon="2.58263">
        <ele>1259.07</ele>
        <time>2022-10-19T09:13:27.580Z</time>
      </trkpt>
      <trkpt lat="45.0708" lon="2.58274">
        <ele>1260.82</ele>
        <time>2022-10-19T09:13:37.284Z</time>
      </trkpt>
      <trkpt lat="45.07082" lon="2.58286">
        <ele>1262.01</ele>
        <time>2022-10-19T09:13:46.761Z</time>
      </trkpt>
      <trkpt lat="45.07081" lon="2.58297">
        <ele>1262.07</ele>
        <time>2022-10-19T09:13:56.000Z</time>
      </trkpt>
      <trkpt lat="45.07082" lon="2.5831">
        <ele>1262.07</ele>
        <time>2022-10-19T09:14:06.000Z</time>
      </trkpt>
      <trkpt lat="45.07082" lon="2.58322">
        <ele>1264.05</ele>
        <time>2022-10-19T09:14:15.720Z</time>
      </trkpt>
      <trkpt lat="45.07083" lon="2.58333">
        <ele>1263.06</ele>
        <time>2022-10-19T09:14:25.000Z</time>
      </trkpt>
      <trkpt lat="45.07086" lon="2.58343">
        <ele>1265.05</ele>
        <time>2022-10-19T09:14:34.362Z</time>
      </trkpt>
      <trkpt lat="45.07086" lon="2.58355">
        <ele>1266.01</ele>
        <time>2022-10-19T09:14:43.762Z</time>
      </trkpt>
      <trkpt lat="45.07085" lon="2.58367">
        <ele>1266.07</ele>
        <time>2022-10-19T09:14:53.243Z</time>
      </trkpt>
      <trkpt lat="45.07085" lon="2.58378">
        <ele>1267.82</ele>
        <time>2022-10-19T09:15:03.000Z</time>
      </trkpt>
      <trkpt lat="45.07085" lon="2.5839">
        <ele>1269.06</ele>
        <time>2022-10-19T09:15:12.263Z</time>
      </trkpt>
      <trkpt lat="45.07086" lon="2.58401">
        <ele>1269.07</ele>
        <time>2022-10-19T09:15:21.604Z</time>
      </trkpt>
      <trkpt lat="45.07085" lon="2.58413">
        <ele>1270.06</ele>
        <time>2022-10-19T09:15:31.000Z</time>
      </trkpt>
      <trkpt lat="45.07084" lon="2.58423">
        <ele>1271.07</ele>
        <time>2022-10-19T09:15:40.301Z</time>
      </trkpt>
      <trkpt lat="45.07084" lon="2.58435">
        <ele>1271.08</ele>
        <time>2022-10-19T09:15:49.704Z</time>
      </trkpt>
      <trkpt lat="45.07083" lon="2.58447">
        <ele>1271.82</ele>
        <time>2022-10-19T09:15:59.000Z</time>
      </trkpt>
      <trkpt lat="45.0708" lon="2.58457">
        <ele>1273</ele>
        <time>2022-10-19T09:16:08.161Z</time>
      </trkpt>
      <trkpt lat="45.07081" lon="2.58469">
        <ele>1274.07</ele>
        <time>2022-10-19T09:16:17.284Z</time>
      </trkpt>
      <trkpt lat="45.0708" lon="2.5848">
        <ele>1274.07</ele>
        <time>2022-10-19T09:16:26.725Z</time>
      </trkpt>
      <trkpt lat="45.0708" lon="2.5849">
        <ele>1275.07</ele>
        <time>2022-10-19T09:16:36.460Z</time>
      </trkpt>
      <trkpt lat="45.0708" lon="2.58499">
        <ele>1277.05</ele>
        <time>2022-10-19T09:16:45.583Z</time>
      </trkpt>
      <trkpt lat="45.07083" lon="2.58507">
        <ele>1278.07</ele>
        <time>2022-10-19T09:16:55.000Z</time>
      </trkpt>
      <trkpt lat="45.07084" lon="2.58516">
        <ele>1279.07</ele>
        <time>2022-10-19T09:17:04.466Z</time>
      </trkpt>
      <trkpt lat="45.0709" lon="2.5852">
        <ele>1281.82</ele>
        <time>2022-10-19T09:17:14.000Z</time>
      </trkpt>
      <trkpt lat="45.0709" lon="2.58521">
        <ele>1282.11</ele>
        <time>2022-10-19T09:17:24.681Z</time>
      </trkpt>
      <trkpt lat="45.07085" lon="2.58531">
        <ele>1282.05</ele>
        <time>2022-10-19T09:17:33.682Z</time>
      </trkpt>
      <trkpt lat="45.0708" lon="2.58539">
        <ele>1283.05</ele>
        <time>2022-10-19T09:17:43.364Z</time>
      </trkpt>
      <trkpt lat="45.07074" lon="2.58542">
        <ele>1284</ele>
        <time>2022-10-19T09:17:53.000Z</time>
      </trkpt>
      <trkpt lat="45.07073" lon="2.58542">
        <ele>1283.07</ele>
        <time>2022-10-19T09:18:05.701Z</time>
      </trkpt>
      <trkpt lat="45.07067" lon="2.5854">
        <ele>1285.07</ele>
        <time>2022-10-19T09:18:15.000Z</time>
      </trkpt>
      <trkpt lat="45.0706" lon="2.58539">
        <ele>1286.07</ele>
        <time>2022-10-19T09:18:24.468Z</time>
      </trkpt>
      <trkpt lat="45.07052" lon="2.58539">
        <ele>1287.07</ele>
        <time>2022-10-19T09:18:34.000Z</time>
      </trkpt>
      <trkpt lat="45.07045" lon="2.58542">
        <ele>1289.07</ele>
        <time>2022-10-19T09:18:43.264Z</time>
      </trkpt>
      <trkpt lat="45.07039" lon="2.58548">
        <ele>1289.07</ele>
        <time>2022-10-19T09:18:53.000Z</time>
      </trkpt>
      <trkpt lat="45.07035" lon="2.58556">
        <ele>1290.82</ele>
        <time>2022-10-19T09:19:03.000Z</time>
      </trkpt>
      <trkpt lat="45.07036" lon="2.58555">
        <ele>1291.07</ele>
        <time>2022-10-19T09:19:15.000Z</time>
      </trkpt>
      <trkpt lat="45.07035" lon="2.58556">
        <ele>1291.07</ele>
        <time>2022-10-19T09:19:33.453Z</time>
      </trkpt>
      <trkpt lat="45.07029" lon="2.58568">
        <ele>1292.07</ele>
        <time>2022-10-19T09:19:43.723Z</time>
      </trkpt>
      <trkpt lat="45.07024" lon="2.58579">
        <ele>1292.32</ele>
        <time>2022-10-19T09:19:53.643Z</time>
      </trkpt>
      <trkpt lat="45.07019" lon="2.5859">
        <ele>1293.07</ele>
        <time>2022-10-19T09:20:02.760Z</time>
      </trkpt>
      <trkpt lat="45.07018" lon="2.58602">
        <ele>1293.07</ele>
        <time>2022-10-19T09:20:12.123Z</time>
      </trkpt>
      <trkpt lat="45.0702" lon="2.58614">
        <ele>1294.06</ele>
        <time>2022-10-19T09:20:21.561Z</time>
      </trkpt>
      <trkpt lat="45.07022" lon="2.58627">
        <ele>1295.06</ele>
        <time>2022-10-19T09:20:31.000Z</time>
      </trkpt>
      <trkpt lat="45.07022" lon="2.58638">
        <ele>1296.31</ele>
        <time>2022-10-19T09:20:40.043Z</time>
      </trkpt>
      <trkpt lat="45.07024" lon="2.58647">
        <ele>1298.05</ele>
        <time>2022-10-19T09:20:50.000Z</time>
      </trkpt>
      <trkpt lat="45.07026" lon="2.58655">
        <ele>1300.06</ele>
        <time>2022-10-19T09:20:59.521Z</time>
      </trkpt>
      <trkpt lat="45.07026" lon="2.58665">
        <ele>1300.06</ele>
        <time>2022-10-19T09:21:09.161Z</time>
      </trkpt>
      <trkpt lat="45.07026" lon="2.58675">
        <ele>1300.06</ele>
        <time>2022-10-19T09:21:18.501Z</time>
      </trkpt>
      <trkpt lat="45.07028" lon="2.58686">
        <ele>1302</ele>
        <time>2022-10-19T09:21:28.000Z</time>
      </trkpt>
      <trkpt lat="45.07029" lon="2.58696">
        <ele>1302.05</ele>
        <time>2022-10-19T09:21:38.000Z</time>
      </trkpt>
      <trkpt lat="45.07031" lon="2.58705">
        <ele>1305</ele>
        <time>2022-10-19T09:21:47.663Z</time>
      </trkpt>
      <trkpt lat="45.07031" lon="2.58715">
        <ele>1305.05</ele>
        <time>2022-10-19T09:21:57.000Z</time>
      </trkpt>
      <trkpt lat="45.07032" lon="2.58727">
        <ele>1305.06</ele>
        <time>2022-10-19T09:22:06.740Z</time>
      </trkpt>
      <trkpt lat="45.07034" lon="2.58736">
        <ele>1307</ele>
        <time>2022-10-19T09:22:16.000Z</time>
      </trkpt>
      <trkpt lat="45.07034" lon="2.58746">
        <ele>1308</ele>
        <time>2022-10-19T09:22:26.000Z</time>
      </trkpt>
      <trkpt lat="45.07036" lon="2.58757">
        <ele>1307.06</ele>
        <time>2022-10-19T09:22:35.161Z</time>
      </trkpt>
      <trkpt lat="45.07037" lon="2.58767">
        <ele>1310.05</ele>
        <time>2022-10-19T09:22:44.560Z</time>
      </trkpt>
      <trkpt lat="45.07037" lon="2.58776">
        <ele>1311.06</ele>
        <time>2022-10-19T09:22:54.000Z</time>
      </trkpt>
      <trkpt lat="45.07038" lon="2.58786">
        <ele>1311.06</ele>
        <time>2022-10-19T09:23:03.341Z</time>
      </trkpt>
      <trkpt lat="45.07039" lon="2.58796">
        <ele>1313.05</ele>
        <time>2022-10-19T09:23:13.000Z</time>
      </trkpt>
      <trkpt lat="45.0704" lon="2.58805">
        <ele>1314.06</ele>
        <time>2022-10-19T09:23:22.404Z</time>
      </trkpt>
      <trkpt lat="45.07041" lon="2.58814">
        <ele>1315</ele>
        <time>2022-10-19T09:23:32.000Z</time>
      </trkpt>
      <trkpt lat="45.07042" lon="2.58823">
        <ele>1316.06</ele>
        <time>2022-10-19T09:23:41.561Z</time>
      </trkpt>
      <trkpt lat="45.07042" lon="2.58833">
        <ele>1317.06</ele>
        <time>2022-10-19T09:23:51.000Z</time>
      </trkpt>
      <trkpt lat="45.07044" lon="2.58842">
        <ele>1318</ele>
        <time>2022-10-19T09:24:00.604Z</time>
      </trkpt>
      <trkpt lat="45.07045" lon="2.58852">
        <ele>1318.06</ele>
        <time>2022-10-19T09:24:10.181Z</time>
      </trkpt>
      <trkpt lat="45.07046" lon="2.58862">
        <ele>1320.06</ele>
        <time>2022-10-19T09:24:20.000Z</time>
      </trkpt>
      <trkpt lat="45.07047" lon="2.58871">
        <ele>1321.06</ele>
        <time>2022-10-19T09:24:29.242Z</time>
      </trkpt>
      <trkpt lat="45.07047" lon="2.5888">
        <ele>1322.06</ele>
        <time>2022-10-19T09:24:39.000Z</time>
      </trkpt>
      <trkpt lat="45.07046" lon="2.58889">
        <ele>1324.06</ele>
        <time>2022-10-19T09:24:48.722Z</time>
      </trkpt>
      <trkpt lat="45.07047" lon="2.58896">
        <ele>1326.81</ele>
        <time>2022-10-19T09:24:58.000Z</time>
      </trkpt>
      <trkpt lat="45.07048" lon="2.58902">
        <ele>1326.26</ele>
        <time>2022-10-19T09:25:07.105Z</time>
      </trkpt>
      <trkpt lat="45.07048" lon="2.58907">
        <ele>1327.06</ele>
        <time>2022-10-19T09:25:16.303Z</time>
      </trkpt>
      <trkpt lat="45.07049" lon="2.58914">
        <ele>1328.06</ele>
        <time>2022-10-19T09:25:25.480Z</time>
      </trkpt>
      <trkpt lat="45.07049" lon="2.58921">
        <ele>1330.06</ele>
        <time>2022-10-19T09:25:34.684Z</time>
      </trkpt>
      <trkpt lat="45.07051" lon="2.58928">
        <ele>1331.06</ele>
        <time>2022-10-19T09:25:44.000Z</time>
      </trkpt>
      <trkpt lat="45.07052" lon="2.58938">
        <ele>1333.06</ele>
        <time>2022-10-19T09:25:54.000Z</time>
      </trkpt>
      <trkpt lat="45.07053" lon="2.58946">
        <ele>1334.06</ele>
        <time>2022-10-19T09:26:03.702Z</time>
      </trkpt>
      <trkpt lat="45.07056" lon="2.58954">
        <ele>1335.06</ele>
        <time>2022-10-19T09:26:12.760Z</time>
      </trkpt>
      <trkpt lat="45.07055" lon="2.58962">
        <ele>1336.06</ele>
        <time>2022-10-19T09:26:22.000Z</time>
      </trkpt>
      <trkpt lat="45.07057" lon="2.58967">
        <ele>1337.06</ele>
        <time>2022-10-19T09:26:31.481Z</time>
      </trkpt>
      <trkpt lat="45.07057" lon="2.58976">
        <ele>1339.04</ele>
        <time>2022-10-19T09:26:41.000Z</time>
      </trkpt>
      <trkpt lat="45.07058" lon="2.58983">
        <ele>1340.04</ele>
        <time>2022-10-19T09:26:50.341Z</time>
      </trkpt>
      <trkpt lat="45.07059" lon="2.58992">
        <ele>1340.81</ele>
        <time>2022-10-19T09:26:59.541Z</time>
      </trkpt>
      <trkpt lat="45.0706" lon="2.59002">
        <ele>1342.82</ele>
        <time>2022-10-19T09:27:10.000Z</time>
      </trkpt>
      <trkpt lat="45.07061" lon="2.59009">
        <ele>1344.06</ele>
        <time>2022-10-19T09:27:19.342Z</time>
      </trkpt>
      <trkpt lat="45.07061" lon="2.59018">
        <ele>1345.06</ele>
        <time>2022-10-19T09:27:28.702Z</time>
      </trkpt>
      <trkpt lat="45.07062" lon="2.59026">
        <ele>1346.06</ele>
        <time>2022-10-19T09:27:38.000Z</time>
      </trkpt>
      <trkpt lat="45.07064" lon="2.59035">
        <ele>1347.04</ele>
        <time>2022-10-19T09:27:48.000Z</time>
      </trkpt>
      <trkpt lat="45.07065" lon="2.59046">
        <ele>1348.06</ele>
        <time>2022-10-19T09:27:57.664Z</time>
      </trkpt>
      <trkpt lat="45.07065" lon="2.59047">
        <ele>1349.06</ele>
        <time>2022-10-19T09:28:07.000Z</time>
      </trkpt>
      <trkpt lat="45.07065" lon="2.59049">
        <ele>1349.81</ele>
        <time>2022-10-19T09:28:36.000Z</time>
      </trkpt>
      <trkpt lat="45.07066" lon="2.5906">
        <ele>1350.06</ele>
        <time>2022-10-19T09:28:45.341Z</time>
      </trkpt>
      <trkpt lat="45.07067" lon="2.59068">
        <ele>1350.06</ele>
        <time>2022-10-19T09:28:54.477Z</time>
      </trkpt>
      <trkpt lat="45.07069" lon="2.59079">
        <ele>1350.99</ele>
        <time>2022-10-19T09:29:04.183Z</time>
      </trkpt>
      <trkpt lat="45.07068" lon="2.5909">
        <ele>1352.06</ele>
        <time>2022-10-19T09:29:13.662Z</time>
      </trkpt>
      <trkpt lat="45.07069" lon="2.591">
        <ele>1353.06</ele>
        <time>2022-10-19T09:29:23.000Z</time>
      </trkpt>
      <trkpt lat="45.0707" lon="2.59111">
        <ele>1355.04</ele>
        <time>2022-10-19T09:29:33.000Z</time>
      </trkpt>
      <trkpt lat="45.07072" lon="2.59121">
        <ele>1355.06</ele>
        <time>2022-10-19T09:29:42.459Z</time>
      </trkpt>
      <trkpt lat="45.07073" lon="2.59131">
        <ele>1357</ele>
        <time>2022-10-19T09:29:52.105Z</time>
      </trkpt>
      <trkpt lat="45.07073" lon="2.59142">
        <ele>1358.81</ele>
        <time>2022-10-19T09:30:01.264Z</time>
      </trkpt>
      <trkpt lat="45.07073" lon="2.59152">
        <ele>1358.06</ele>
        <time>2022-10-19T09:30:10.701Z</time>
      </trkpt>
      <trkpt lat="45.07074" lon="2.59164">
        <ele>1359.06</ele>
        <time>2022-10-19T09:30:20.000Z</time>
      </trkpt>
      <trkpt lat="45.07074" lon="2.59177">
        <ele>1359.06</ele>
        <time>2022-10-19T09:30:29.562Z</time>
      </trkpt>
      <trkpt lat="45.07075" lon="2.59191">
        <ele>1360.05</ele>
        <time>2022-10-19T09:30:39.062Z</time>
      </trkpt>
      <trkpt lat="45.07076" lon="2.59203">
        <ele>1360.05</ele>
        <time>2022-10-19T09:30:48.456Z</time>
      </trkpt>
      <trkpt lat="45.07078" lon="2.59214">
        <ele>1362.05</ele>
        <time>2022-10-19T09:30:58.100Z</time>
      </trkpt>
      <trkpt lat="45.07078" lon="2.59228">
        <ele>1363.05</ele>
        <time>2022-10-19T09:31:07.341Z</time>
      </trkpt>
      <trkpt lat="45.0708" lon="2.59238">
        <ele>1363.8</ele>
        <time>2022-10-19T09:31:16.381Z</time>
      </trkpt>
      <trkpt lat="45.07082" lon="2.5925">
        <ele>1364.8</ele>
        <time>2022-10-19T09:31:25.781Z</time>
      </trkpt>
      <trkpt lat="45.07084" lon="2.59262">
        <ele>1366.05</ele>
        <time>2022-10-19T09:31:35.467Z</time>
      </trkpt>
      <trkpt lat="45.07085" lon="2.59273">
        <ele>1367.99</ele>
        <time>2022-10-19T09:31:44.703Z</time>
      </trkpt>
      <trkpt lat="45.07087" lon="2.59284">
        <ele>1368.99</ele>
        <time>2022-10-19T09:31:53.780Z</time>
      </trkpt>
      <trkpt lat="45.07091" lon="2.59294">
        <ele>1369.99</ele>
        <time>2022-10-19T09:32:03.101Z</time>
      </trkpt>
      <trkpt lat="45.07093" lon="2.59307">
        <ele>1370.05</ele>
        <time>2022-10-19T09:32:12.502Z</time>
      </trkpt>
      <trkpt lat="45.07094" lon="2.5932">
        <ele>1370.05</ele>
        <time>2022-10-19T09:32:22.000Z</time>
      </trkpt>
      <trkpt lat="45.07096" lon="2.59332">
        <ele>1370.05</ele>
        <time>2022-10-19T09:32:31.563Z</time>
      </trkpt>
      <trkpt lat="45.071" lon="2.59346">
        <ele>1371.05</ele>
        <time>2022-10-19T09:32:41.708Z</time>
      </trkpt>
      <trkpt lat="45.07106" lon="2.59356">
        <ele>1371.05</ele>
        <time>2022-10-19T09:32:51.202Z</time>
      </trkpt>
      <trkpt lat="45.0711" lon="2.59369">
        <ele>1371.3</ele>
        <time>2022-10-19T09:33:00.321Z</time>
      </trkpt>
      <trkpt lat="45.07114" lon="2.59382">
        <ele>1370.99</ele>
        <time>2022-10-19T09:33:09.500Z</time>
      </trkpt>
      <trkpt lat="45.07116" lon="2.59385">
        <ele>1371.05</ele>
        <time>2022-10-19T09:33:19.000Z</time>
      </trkpt>
      <trkpt lat="45.07116" lon="2.59384">
        <ele>1371.05</ele>
        <time>2022-10-19T09:35:04.000Z</time>
      </trkpt>
      <trkpt lat="45.07116" lon="2.59385">
        <ele>1372.05</ele>
        <time>2022-10-19T09:35:20.502Z</time>
      </trkpt>
      <trkpt lat="45.07121" lon="2.59402">
        <ele>1372.05</ele>
        <time>2022-10-19T09:35:30.000Z</time>
      </trkpt>
      <trkpt lat="45.07128" lon="2.59413">
        <ele>1372.05</ele>
        <time>2022-10-19T09:35:39.541Z</time>
      </trkpt>
      <trkpt lat="45.07135" lon="2.59425">
        <ele>1371.05</ele>
        <time>2022-10-19T09:35:48.667Z</time>
      </trkpt>
      <trkpt lat="45.07141" lon="2.59436">
        <ele>1371.05</ele>
        <time>2022-10-19T09:35:57.760Z</time>
      </trkpt>
      <trkpt lat="45.0715" lon="2.59446">
        <ele>1372.03</ele>
        <time>2022-10-19T09:36:07.703Z</time>
      </trkpt>
      <trkpt lat="45.07158" lon="2.59456">
        <ele>1371.3</ele>
        <time>2022-10-19T09:36:17.000Z</time>
      </trkpt>
      <trkpt lat="45.07167" lon="2.59464">
        <ele>1372.05</ele>
        <time>2022-10-19T09:36:26.181Z</time>
      </trkpt>
      <trkpt lat="45.07177" lon="2.59471">
        <ele>1372.05</ele>
        <time>2022-10-19T09:36:35.361Z</time>
      </trkpt>
      <trkpt lat="45.07185" lon="2.5948">
        <ele>1372.1</ele>
        <time>2022-10-19T09:36:44.443Z</time>
      </trkpt>
      <trkpt lat="45.07195" lon="2.59484">
        <ele>1373.05</ele>
        <time>2022-10-19T09:36:53.761Z</time>
      </trkpt>
      <trkpt lat="45.07206" lon="2.59487">
        <ele>1372.06</ele>
        <time>2022-10-19T09:37:03.122Z</time>
      </trkpt>
      <trkpt lat="45.07217" lon="2.59487">
        <ele>1372.99</ele>
        <time>2022-10-19T09:37:12.423Z</time>
      </trkpt>
      <trkpt lat="45.07227" lon="2.59489">
        <ele>1373.05</ele>
        <time>2022-10-19T09:37:22.000Z</time>
      </trkpt>
      <trkpt lat="45.07238" lon="2.59491">
        <ele>1374.03</ele>
        <time>2022-10-19T09:37:31.505Z</time>
      </trkpt>
      <trkpt lat="45.07248" lon="2.59491">
        <ele>1374.03</ele>
        <time>2022-10-19T09:37:41.001Z</time>
      </trkpt>
      <trkpt lat="45.07258" lon="2.59489">
        <ele>1373.05</ele>
        <time>2022-10-19T09:37:50.164Z</time>
      </trkpt>
      <trkpt lat="45.07269" lon="2.59489">
        <ele>1373.05</ele>
        <time>2022-10-19T09:37:59.414Z</time>
      </trkpt>
      <trkpt lat="45.0728" lon="2.59489">
        <ele>1373.05</ele>
        <time>2022-10-19T09:38:08.561Z</time>
      </trkpt>
      <trkpt lat="45.07291" lon="2.59491">
        <ele>1373.05</ele>
        <time>2022-10-19T09:38:17.736Z</time>
      </trkpt>
      <trkpt lat="45.07302" lon="2.59492">
        <ele>1373.05</ele>
        <time>2022-10-19T09:38:26.964Z</time>
      </trkpt>
      <trkpt lat="45.07313" lon="2.59494">
        <ele>1374.05</ele>
        <time>2022-10-19T09:38:36.183Z</time>
      </trkpt>
      <trkpt lat="45.07323" lon="2.59495">
        <ele>1374.05</ele>
        <time>2022-10-19T09:38:45.684Z</time>
      </trkpt>
      <trkpt lat="45.07331" lon="2.59498">
        <ele>1374.05</ele>
        <time>2022-10-19T09:38:54.740Z</time>
      </trkpt>
      <trkpt lat="45.0734" lon="2.59499">
        <ele>1375.05</ele>
        <time>2022-10-19T09:39:05.000Z</time>
      </trkpt>
      <trkpt lat="45.07348" lon="2.59502">
        <ele>1376.05</ele>
        <time>2022-10-19T09:39:14.683Z</time>
      </trkpt>
      <trkpt lat="45.07354" lon="2.59504">
        <ele>1377.05</ele>
        <time>2022-10-19T09:39:24.161Z</time>
      </trkpt>
      <trkpt lat="45.07359" lon="2.59507">
        <ele>1378.05</ele>
        <time>2022-10-19T09:39:33.241Z</time>
      </trkpt>
      <trkpt lat="45.07365" lon="2.59511">
        <ele>1379.05</ele>
        <time>2022-10-19T09:39:42.642Z</time>
      </trkpt>
      <trkpt lat="45.07371" lon="2.59513">
        <ele>1380.05</ele>
        <time>2022-10-19T09:39:51.740Z</time>
      </trkpt>
      <trkpt lat="45.07376" lon="2.59518">
        <ele>1381.98</ele>
        <time>2022-10-19T09:40:01.203Z</time>
      </trkpt>
      <trkpt lat="45.0738" lon="2.59526">
        <ele>1382.05</ele>
        <time>2022-10-19T09:40:11.000Z</time>
      </trkpt>
      <trkpt lat="45.07386" lon="2.59534">
        <ele>1382.06</ele>
        <time>2022-10-19T09:40:21.000Z</time>
      </trkpt>
      <trkpt lat="45.07393" lon="2.59542">
        <ele>1382.05</ele>
        <time>2022-10-19T09:40:30.541Z</time>
      </trkpt>
      <trkpt lat="45.07399" lon="2.59552">
        <ele>1382.23</ele>
        <time>2022-10-19T09:40:40.000Z</time>
      </trkpt>
      <trkpt lat="45.07409" lon="2.59559">
        <ele>1382.05</ele>
        <time>2022-10-19T09:40:49.361Z</time>
      </trkpt>
      <trkpt lat="45.07416" lon="2.59571">
        <ele>1382.05</ele>
        <time>2022-10-19T09:40:58.735Z</time>
      </trkpt>
      <trkpt lat="45.07423" lon="2.59582">
        <ele>1382.05</ele>
        <time>2022-10-19T09:41:08.142Z</time>
      </trkpt>
      <trkpt lat="45.07431" lon="2.59592">
        <ele>1382.05</ele>
        <time>2022-10-19T09:41:17.509Z</time>
      </trkpt>
      <trkpt lat="45.07435" lon="2.59607">
        <ele>1382.06</ele>
        <time>2022-10-19T09:41:27.540Z</time>
      </trkpt>
      <trkpt lat="45.07438" lon="2.59623">
        <ele>1384.04</ele>
        <time>2022-10-19T09:41:37.513Z</time>
      </trkpt>
      <trkpt lat="45.07439" lon="2.59637">
        <ele>1385.04</ele>
        <time>2022-10-19T09:41:46.781Z</time>
      </trkpt>
      <trkpt lat="45.07438" lon="2.59637">
        <ele>1385.06</ele>
        <time>2022-10-19T09:41:56.000Z</time>
      </trkpt>
      <trkpt lat="45.07438" lon="2.59638">
        <ele>1386.04</ele>
        <time>2022-10-19T09:46:24.000Z</time>
      </trkpt>
      <trkpt lat="45.07442" lon="2.59652">
        <ele>1386.04</ele>
        <time>2022-10-19T09:46:33.322Z</time>
      </trkpt>
      <trkpt lat="45.07447" lon="2.59664">
        <ele>1386.04</ele>
        <time>2022-10-19T09:46:42.441Z</time>
      </trkpt>
      <trkpt lat="45.07451" lon="2.59676">
        <ele>1386.04</ele>
        <time>2022-10-19T09:46:51.623Z</time>
      </trkpt>
      <trkpt lat="45.07456" lon="2.59689">
        <ele>1387.04</ele>
        <time>2022-10-19T09:47:01.000Z</time>
      </trkpt>
      <trkpt lat="45.07459" lon="2.59703">
        <ele>1387.04</ele>
        <time>2022-10-19T09:47:10.241Z</time>
      </trkpt>
      <trkpt lat="45.07462" lon="2.59717">
        <ele>1387.04</ele>
        <time>2022-10-19T09:47:19.562Z</time>
      </trkpt>
      <trkpt lat="45.07465" lon="2.59731">
        <ele>1387.79</ele>
        <time>2022-10-19T09:47:29.000Z</time>
      </trkpt>
      <trkpt lat="45.07467" lon="2.59744">
        <ele>1388.04</ele>
        <time>2022-10-19T09:47:38.062Z</time>
      </trkpt>
      <trkpt lat="45.07469" lon="2.59756">
        <ele>1388.04</ele>
        <time>2022-10-19T09:47:47.382Z</time>
      </trkpt>
      <trkpt lat="45.0747" lon="2.59756">
        <ele>1388.98</ele>
        <time>2022-10-19T09:48:25.000Z</time>
      </trkpt>
      <trkpt lat="45.07469" lon="2.59756">
        <ele>1389.04</ele>
        <time>2022-10-19T09:49:37.082Z</time>
      </trkpt>
      <trkpt lat="45.07471" lon="2.59772">
        <ele>1387.04</ele>
        <time>2022-10-19T09:49:46.241Z</time>
      </trkpt>
      <trkpt lat="45.07474" lon="2.59784">
        <ele>1386.04</ele>
        <time>2022-10-19T09:49:55.511Z</time>
      </trkpt>
      <trkpt lat="45.07477" lon="2.59798">
        <ele>1386.04</ele>
        <time>2022-10-19T09:50:04.703Z</time>
      </trkpt>
      <trkpt lat="45.0748" lon="2.59814">
        <ele>1387.04</ele>
        <time>2022-10-19T09:50:14.716Z</time>
      </trkpt>
      <trkpt lat="45.07482" lon="2.59828">
        <ele>1388.04</ele>
        <time>2022-10-19T09:50:24.161Z</time>
      </trkpt>
      <trkpt lat="45.07485" lon="2.59843">
        <ele>1388.04</ele>
        <time>2022-10-19T09:50:33.281Z</time>
      </trkpt>
      <trkpt lat="45.07487" lon="2.59859">
        <ele>1388.04</ele>
        <time>2022-10-19T09:50:42.342Z</time>
      </trkpt>
      <trkpt lat="45.07489" lon="2.59874">
        <ele>1388.04</ele>
        <time>2022-10-19T09:50:51.507Z</time>
      </trkpt>
      <trkpt lat="45.0749" lon="2.59892">
        <ele>1388.04</ele>
        <time>2022-10-19T09:51:01.663Z</time>
      </trkpt>
      <trkpt lat="45.07491" lon="2.59908">
        <ele>1388.04</ele>
        <time>2022-10-19T09:51:10.736Z</time>
      </trkpt>
      <trkpt lat="45.07491" lon="2.59923">
        <ele>1388.04</ele>
        <time>2022-10-19T09:51:20.000Z</time>
      </trkpt>
      <trkpt lat="45.07492" lon="2.59938">
        <ele>1388.04</ele>
        <time>2022-10-19T09:51:29.103Z</time>
      </trkpt>
      <trkpt lat="45.07492" lon="2.59954">
        <ele>1388.04</ele>
        <time>2022-10-19T09:51:38.261Z</time>
      </trkpt>
      <trkpt lat="45.07492" lon="2.59969">
        <ele>1388.04</ele>
        <time>2022-10-19T09:51:47.401Z</time>
      </trkpt>
      <trkpt lat="45.07493" lon="2.59984">
        <ele>1388.04</ele>
        <time>2022-10-19T09:51:56.643Z</time>
      </trkpt>
      <trkpt lat="45.07495" lon="2.59999">
        <ele>1388.04</ele>
        <time>2022-10-19T09:52:05.760Z</time>
      </trkpt>
      <trkpt lat="45.07497" lon="2.60015">
        <ele>1388.29</ele>
        <time>2022-10-19T09:52:15.643Z</time>
      </trkpt>
      <trkpt lat="45.07496" lon="2.6003">
        <ele>1388.04</ele>
        <time>2022-10-19T09:52:25.000Z</time>
      </trkpt>
      <trkpt lat="45.07492" lon="2.60042">
        <ele>1388.04</ele>
        <time>2022-10-19T09:52:34.622Z</time>
      </trkpt>
      <trkpt lat="45.07489" lon="2.60047">
        <ele>1390.03</ele>
        <time>2022-10-19T09:52:44.000Z</time>
      </trkpt>
      <trkpt lat="45.07484" lon="2.6006">
        <ele>1390.04</ele>
        <time>2022-10-19T09:52:53.140Z</time>
      </trkpt>
      <trkpt lat="45.07484" lon="2.60075">
        <ele>1391.04</ele>
        <time>2022-10-19T09:53:02.441Z</time>
      </trkpt>
      <trkpt lat="45.07483" lon="2.60085">
        <ele>1390.05</ele>
        <time>2022-10-19T09:53:11.600Z</time>
      </trkpt>
      <trkpt lat="45.07485" lon="2.60091">
        <ele>1390.04</ele>
        <time>2022-10-19T09:53:20.662Z</time>
      </trkpt>
      <trkpt lat="45.0749" lon="2.60099">
        <ele>1387.04</ele>
        <time>2022-10-19T09:53:30.081Z</time>
      </trkpt>
      <trkpt lat="45.07491" lon="2.6011">
        <ele>1386.04</ele>
        <time>2022-10-19T09:53:39.722Z</time>
      </trkpt>
      <trkpt lat="45.07487" lon="2.60124">
        <ele>1385.1</ele>
        <time>2022-10-19T09:53:49.000Z</time>
      </trkpt>
      <trkpt lat="45.07484" lon="2.60135">
        <ele>1384.29</ele>
        <time>2022-10-19T09:53:58.301Z</time>
      </trkpt>
      <trkpt lat="45.07486" lon="2.60146">
        <ele>1382.04</ele>
        <time>2022-10-19T09:54:08.000Z</time>
      </trkpt>
      <trkpt lat="45.07487" lon="2.60156">
        <ele>1380.04</ele>
        <time>2022-10-19T09:54:17.498Z</time>
      </trkpt>
      <trkpt lat="45.07486" lon="2.60169">
        <ele>1380.04</ele>
        <time>2022-10-19T09:54:26.580Z</time>
      </trkpt>
      <trkpt lat="45.07484" lon="2.60185">
        <ele>1382.03</ele>
        <time>2022-10-19T09:54:35.964Z</time>
      </trkpt>
      <trkpt lat="45.07482" lon="2.60202">
        <ele>1382.03</ele>
        <time>2022-10-19T09:54:45.600Z</time>
      </trkpt>
      <trkpt lat="45.07479" lon="2.60218">
        <ele>1381.1</ele>
        <time>2022-10-19T09:54:55.000Z</time>
      </trkpt>
      <trkpt lat="45.07474" lon="2.60234">
        <ele>1379.05</ele>
        <time>2022-10-19T09:55:04.522Z</time>
      </trkpt>
      <trkpt lat="45.07472" lon="2.60248">
        <ele>1377.04</ele>
        <time>2022-10-19T09:55:13.709Z</time>
      </trkpt>
      <trkpt lat="45.07472" lon="2.60258">
        <ele>1376.03</ele>
        <time>2022-10-19T09:55:23.000Z</time>
      </trkpt>
      <trkpt lat="45.07472" lon="2.60262">
        <ele>1375.03</ele>
        <time>2022-10-19T09:55:32.720Z</time>
      </trkpt>
      <trkpt lat="45.07471" lon="2.60276">
        <ele>1374.03</ele>
        <time>2022-10-19T09:55:42.007Z</time>
      </trkpt>
      <trkpt lat="45.07472" lon="2.60286">
        <ele>1373.03</ele>
        <time>2022-10-19T09:55:51.241Z</time>
      </trkpt>
      <trkpt lat="45.07474" lon="2.603">
        <ele>1370.28</ele>
        <time>2022-10-19T09:56:00.261Z</time>
      </trkpt>
      <trkpt lat="45.07476" lon="2.60312">
        <ele>1370.03</ele>
        <time>2022-10-19T09:56:09.601Z</time>
      </trkpt>
      <trkpt lat="45.07476" lon="2.60327">
        <ele>1368.04</ele>
        <time>2022-10-19T09:56:18.643Z</time>
      </trkpt>
      <trkpt lat="45.07481" lon="2.6034">
        <ele>1366.28</ele>
        <time>2022-10-19T09:56:27.941Z</time>
      </trkpt>
      <trkpt lat="45.07484" lon="2.60351">
        <ele>1367.03</ele>
        <time>2022-10-19T09:56:37.521Z</time>
      </trkpt>
      <trkpt lat="45.07483" lon="2.60363">
        <ele>1368.03</ele>
        <time>2022-10-19T09:56:46.541Z</time>
      </trkpt>
      <trkpt lat="45.07483" lon="2.60375">
        <ele>1369.03</ele>
        <time>2022-10-19T09:56:56.063Z</time>
      </trkpt>
      <trkpt lat="45.07483" lon="2.60387">
        <ele>1369.03</ele>
        <time>2022-10-19T09:57:05.620Z</time>
      </trkpt>
      <trkpt lat="45.07484" lon="2.60399">
        <ele>1369.03</ele>
        <time>2022-10-19T09:57:15.004Z</time>
      </trkpt>
      <trkpt lat="45.07485" lon="2.60414">
        <ele>1368.03</ele>
        <time>2022-10-19T09:57:24.321Z</time>
      </trkpt>
      <trkpt lat="45.07484" lon="2.60426">
        <ele>1367.03</ele>
        <time>2022-10-19T09:57:33.521Z</time>
      </trkpt>
      <trkpt lat="45.07486" lon="2.60442">
        <ele>1366.03</ele>
        <time>2022-10-19T09:57:43.142Z</time>
      </trkpt>
      <trkpt lat="45.07486" lon="2.60455">
        <ele>1367.03</ele>
        <time>2022-10-19T09:57:52.622Z</time>
      </trkpt>
      <trkpt lat="45.07486" lon="2.60469">
        <ele>1367.03</ele>
        <time>2022-10-19T09:58:02.581Z</time>
      </trkpt>
      <trkpt lat="45.07486" lon="2.60483">
        <ele>1366.03</ele>
        <time>2022-10-19T09:58:11.583Z</time>
      </trkpt>
      <trkpt lat="45.07485" lon="2.60498">
        <ele>1364.03</ele>
        <time>2022-10-19T09:58:21.145Z</time>
      </trkpt>
      <trkpt lat="45.07485" lon="2.60513">
        <ele>1363.03</ele>
        <time>2022-10-19T09:58:30.220Z</time>
      </trkpt>
      <trkpt lat="45.07484" lon="2.60525">
        <ele>1362.09</ele>
        <time>2022-10-19T09:58:39.508Z</time>
      </trkpt>
      <trkpt lat="45.07483" lon="2.60532">
        <ele>1362.78</ele>
        <time>2022-10-19T09:58:49.661Z</time>
      </trkpt>
      <trkpt lat="45.07483" lon="2.60544">
        <ele>1362.03</ele>
        <time>2022-10-19T09:58:59.000Z</time>
      </trkpt>
      <trkpt lat="45.07481" lon="2.60556">
        <ele>1362.03</ele>
        <time>2022-10-19T09:59:08.343Z</time>
      </trkpt>
      <trkpt lat="45.07477" lon="2.60573">
        <ele>1362.03</ele>
        <time>2022-10-19T09:59:17.562Z</time>
      </trkpt>
      <trkpt lat="45.07473" lon="2.60582">
        <ele>1361.03</ele>
        <time>2022-10-19T09:59:27.000Z</time>
      </trkpt>
      <trkpt lat="45.0747" lon="2.60591">
        <ele>1360.03</ele>
        <time>2022-10-19T09:59:36.500Z</time>
      </trkpt>
      <trkpt lat="45.07467" lon="2.60608">
        <ele>1358.03</ele>
        <time>2022-10-19T09:59:46.545Z</time>
      </trkpt>
      <trkpt lat="45.07468" lon="2.60624">
        <ele>1357.03</ele>
        <time>2022-10-19T09:59:55.661Z</time>
      </trkpt>
      <trkpt lat="45.07469" lon="2.60629">
        <ele>1356.03</ele>
        <time>2022-10-19T10:00:05.000Z</time>
      </trkpt>
      <trkpt lat="45.0747" lon="2.60631">
        <ele>1354.03</ele>
        <time>2022-10-19T10:00:23.000Z</time>
      </trkpt>
      <trkpt lat="45.07471" lon="2.60636">
        <ele>1353.03</ele>
        <time>2022-10-19T10:00:33.000Z</time>
      </trkpt>
      <trkpt lat="45.07471" lon="2.60638">
        <ele>1353.03</ele>
        <time>2022-10-19T10:00:52.000Z</time>
      </trkpt>
      <trkpt lat="45.07471" lon="2.60653">
        <ele>1351.28</ele>
        <time>2022-10-19T10:01:02.000Z</time>
      </trkpt>
      <trkpt lat="45.07472" lon="2.60654">
        <ele>1350.04</ele>
        <time>2022-10-19T10:01:22.681Z</time>
      </trkpt>
      <trkpt lat="45.07476" lon="2.60671">
        <ele>1351.02</ele>
        <time>2022-10-19T10:01:32.402Z</time>
      </trkpt>
      <trkpt lat="45.0748" lon="2.60683">
        <ele>1349.97</ele>
        <time>2022-10-19T10:01:41.661Z</time>
      </trkpt>
      <trkpt lat="45.07486" lon="2.60694">
        <ele>1348.97</ele>
        <time>2022-10-19T10:01:51.000Z</time>
      </trkpt>
      <trkpt lat="45.07492" lon="2.60706">
        <ele>1348.03</ele>
        <time>2022-10-19T10:02:00.561Z</time>
      </trkpt>
      <trkpt lat="45.07499" lon="2.6072">
        <ele>1348.02</ele>
        <time>2022-10-19T10:02:09.760Z</time>
      </trkpt>
      <trkpt lat="45.07505" lon="2.6073">
        <ele>1350.03</ele>
        <time>2022-10-19T10:02:19.000Z</time>
      </trkpt>
      <trkpt lat="45.0751" lon="2.6074">
        <ele>1350.78</ele>
        <time>2022-10-19T10:02:28.021Z</time>
      </trkpt>
      <trkpt lat="45.07518" lon="2.60755">
        <ele>1351.02</ele>
        <time>2022-10-19T10:02:37.381Z</time>
      </trkpt>
      <trkpt lat="45.07525" lon="2.6077">
        <ele>1351.02</ele>
        <time>2022-10-19T10:02:46.641Z</time>
      </trkpt>
      <trkpt lat="45.07531" lon="2.60778">
        <ele>1353.02</ele>
        <time>2022-10-19T10:02:56.000Z</time>
      </trkpt>
      <trkpt lat="45.07535" lon="2.60786">
        <ele>1354.02</ele>
        <time>2022-10-19T10:03:05.381Z</time>
      </trkpt>
      <trkpt lat="45.07541" lon="2.60794">
        <ele>1353.03</ele>
        <time>2022-10-19T10:03:14.742Z</time>
      </trkpt>
      <trkpt lat="45.07546" lon="2.60801">
        <ele>1354.02</ele>
        <time>2022-10-19T10:03:23.960Z</time>
      </trkpt>
      <trkpt lat="45.0755" lon="2.6081">
        <ele>1354.77</ele>
        <time>2022-10-19T10:03:33.364Z</time>
      </trkpt>
      <trkpt lat="45.0755" lon="2.6082">
        <ele>1356.02</ele>
        <time>2022-10-19T10:03:43.000Z</time>
      </trkpt>
      <trkpt lat="45.07553" lon="2.60827">
        <ele>1356.02</ele>
        <time>2022-10-19T10:03:52.441Z</time>
      </trkpt>
      <trkpt lat="45.07555" lon="2.60838">
        <ele>1354.02</ele>
        <time>2022-10-19T10:04:01.511Z</time>
      </trkpt>
      <trkpt lat="45.07559" lon="2.60852">
        <ele>1352.02</ele>
        <time>2022-10-19T10:04:10.761Z</time>
      </trkpt>
      <trkpt lat="45.0756" lon="2.60865">
        <ele>1351.04</ele>
        <time>2022-10-19T10:04:20.064Z</time>
      </trkpt>
      <trkpt lat="45.0756" lon="2.6088">
        <ele>1351.02</ele>
        <time>2022-10-19T10:04:29.721Z</time>
      </trkpt>
      <trkpt lat="45.07561" lon="2.60893">
        <ele>1351.02</ele>
        <time>2022-10-19T10:04:39.642Z</time>
      </trkpt>
      <trkpt lat="45.07561" lon="2.60905">
        <ele>1351.21</ele>
        <time>2022-10-19T10:04:49.043Z</time>
      </trkpt>
      <trkpt lat="45.07562" lon="2.60918">
        <ele>1349.02</ele>
        <time>2022-10-19T10:04:58.681Z</time>
      </trkpt>
      <trkpt lat="45.0756" lon="2.60934">
        <ele>1349.02</ele>
        <time>2022-10-19T10:05:08.000Z</time>
      </trkpt>
      <trkpt lat="45.07561" lon="2.6095">
        <ele>1347.02</ele>
        <time>2022-10-19T10:05:17.147Z</time>
      </trkpt>
      <trkpt lat="45.07561" lon="2.60965">
        <ele>1346.02</ele>
        <time>2022-10-19T10:05:26.442Z</time>
      </trkpt>
      <trkpt lat="45.07564" lon="2.60977">
        <ele>1344.08</ele>
        <time>2022-10-19T10:05:36.000Z</time>
      </trkpt>
      <trkpt lat="45.07567" lon="2.6099">
        <ele>1342.08</ele>
        <time>2022-10-19T10:05:45.508Z</time>
      </trkpt>
      <trkpt lat="45.07568" lon="2.61001">
        <ele>1342.08</ele>
        <time>2022-10-19T10:05:55.000Z</time>
      </trkpt>
      <trkpt lat="45.0757" lon="2.61014">
        <ele>1341.04</ele>
        <time>2022-10-19T10:06:04.261Z</time>
      </trkpt>
      <trkpt lat="45.07572" lon="2.61027">
        <ele>1339.02</ele>
        <time>2022-10-19T10:06:13.443Z</time>
      </trkpt>
      <trkpt lat="45.07575" lon="2.61041">
        <ele>1336.02</ele>
        <time>2022-10-19T10:06:23.000Z</time>
      </trkpt>
      <trkpt lat="45.07577" lon="2.61054">
        <ele>1335.02</ele>
        <time>2022-10-19T10:06:32.001Z</time>
      </trkpt>
      <trkpt lat="45.07582" lon="2.61062">
        <ele>1333.02</ele>
        <time>2022-10-19T10:06:41.422Z</time>
      </trkpt>
      <trkpt lat="45.07582" lon="2.61077">
        <ele>1333.02</ele>
        <time>2022-10-19T10:06:50.607Z</time>
      </trkpt>
      <trkpt lat="45.07582" lon="2.61092">
        <ele>1332.02</ele>
        <time>2022-10-19T10:06:59.880Z</time>
      </trkpt>
      <trkpt lat="45.07584" lon="2.61104">
        <ele>1332.02</ele>
        <time>2022-10-19T10:07:09.663Z</time>
      </trkpt>
      <trkpt lat="45.07585" lon="2.61116">
        <ele>1330.02</ele>
        <time>2022-10-19T10:07:19.000Z</time>
      </trkpt>
      <trkpt lat="45.07583" lon="2.61129">
        <ele>1330.02</ele>
        <time>2022-10-19T10:07:28.240Z</time>
      </trkpt>
      <trkpt lat="45.07578" lon="2.61139">
        <ele>1331</ele>
        <time>2022-10-19T10:07:37.641Z</time>
      </trkpt>
      <trkpt lat="45.07576" lon="2.61151">
        <ele>1331.96</ele>
        <time>2022-10-19T10:07:47.203Z</time>
      </trkpt>
      <trkpt lat="45.07573" lon="2.61159">
        <ele>1332.27</ele>
        <time>2022-10-19T10:07:56.280Z</time>
      </trkpt>
      <trkpt lat="45.07572" lon="2.6116">
        <ele>1333.02</ele>
        <time>2022-10-19T10:08:55.000Z</time>
      </trkpt>
      <trkpt lat="45.0757" lon="2.61171">
        <ele>1334.02</ele>
        <time>2022-10-19T10:09:04.501Z</time>
      </trkpt>
      <trkpt lat="45.07569" lon="2.61181">
        <ele>1335.95</ele>
        <time>2022-10-19T10:09:13.623Z</time>
      </trkpt>
      <trkpt lat="45.07567" lon="2.6119">
        <ele>1338.02</ele>
        <time>2022-10-19T10:09:23.000Z</time>
      </trkpt>
      <trkpt lat="45.07566" lon="2.61196">
        <ele>1340.02</ele>
        <time>2022-10-19T10:09:32.661Z</time>
      </trkpt>
      <trkpt lat="45.07565" lon="2.61206">
        <ele>1340.77</ele>
        <time>2022-10-19T10:09:42.263Z</time>
      </trkpt>
      <trkpt lat="45.07565" lon="2.61216">
        <ele>1341.02</ele>
        <time>2022-10-19T10:09:51.781Z</time>
      </trkpt>
      <trkpt lat="45.07566" lon="2.61223">
        <ele>1342.77</ele>
        <time>2022-10-19T10:10:01.000Z</time>
      </trkpt>
      <trkpt lat="45.07569" lon="2.6123">
        <ele>1345.01</ele>
        <time>2022-10-19T10:10:10.560Z</time>
      </trkpt>
      <trkpt lat="45.0757" lon="2.61235">
        <ele>1346.95</ele>
        <time>2022-10-19T10:10:20.000Z</time>
      </trkpt>
      <trkpt lat="45.07572" lon="2.61237">
        <ele>1347.02</ele>
        <time>2022-10-19T10:10:30.000Z</time>
      </trkpt>
      <trkpt lat="45.07576" lon="2.61242">
        <ele>1348.02</ele>
        <time>2022-10-19T10:10:39.580Z</time>
      </trkpt>
      <trkpt lat="45.0758" lon="2.61249">
        <ele>1349.02</ele>
        <time>2022-10-19T10:10:49.000Z</time>
      </trkpt>
      <trkpt lat="45.07582" lon="2.61259">
        <ele>1350.95</ele>
        <time>2022-10-19T10:10:58.371Z</time>
      </trkpt>
      <trkpt lat="45.07585" lon="2.61266">
        <ele>1352.76</ele>
        <time>2022-10-19T10:11:08.000Z</time>
      </trkpt>
      <trkpt lat="45.07586" lon="2.61272">
        <ele>1354.02</ele>
        <time>2022-10-19T10:11:17.182Z</time>
      </trkpt>
      <trkpt lat="45.07588" lon="2.61278">
        <ele>1354.02</ele>
        <time>2022-10-19T10:11:27.000Z</time>
      </trkpt>
      <trkpt lat="45.07589" lon="2.61279">
        <ele>1354.02</ele>
        <time>2022-10-19T10:11:37.000Z</time>
      </trkpt>
      <trkpt lat="45.07589" lon="2.61278">
        <ele>1354.02</ele>
        <time>2022-10-19T10:12:00.000Z</time>
      </trkpt>
      <trkpt lat="45.07588" lon="2.6128">
        <ele>1354.02</ele>
        <time>2022-10-19T10:12:09.302Z</time>
      </trkpt>
      <trkpt lat="45.07589" lon="2.61291">
        <ele>1355.02</ele>
        <time>2022-10-19T10:12:18.541Z</time>
      </trkpt>
      <trkpt lat="45.0759" lon="2.61302">
        <ele>1356.01</ele>
        <time>2022-10-19T10:12:28.000Z</time>
      </trkpt>
      <trkpt lat="45.07592" lon="2.6131">
        <ele>1357.01</ele>
        <time>2022-10-19T10:12:37.343Z</time>
      </trkpt>
      <trkpt lat="45.07597" lon="2.61312">
        <ele>1359.01</ele>
        <time>2022-10-19T10:12:47.000Z</time>
      </trkpt>
      <trkpt lat="45.076" lon="2.61314">
        <ele>1360.01</ele>
        <time>2022-10-19T10:12:56.501Z</time>
      </trkpt>
      <trkpt lat="45.07602" lon="2.61316">
        <ele>1362.01</ele>
        <time>2022-10-19T10:13:05.621Z</time>
      </trkpt>
      <trkpt lat="45.07609" lon="2.61318">
        <ele>1363.01</ele>
        <time>2022-10-19T10:13:15.000Z</time>
      </trkpt>
      <trkpt lat="45.07608" lon="2.61325">
        <ele>1365</ele>
        <time>2022-10-19T10:13:25.000Z</time>
      </trkpt>
      <trkpt lat="45.07608" lon="2.61335">
        <ele>1366.76</ele>
        <time>2022-10-19T10:13:34.501Z</time>
      </trkpt>
      <trkpt lat="45.07608" lon="2.61337">
        <ele>1366.01</ele>
        <time>2022-10-19T10:13:44.000Z</time>
      </trkpt>
      <trkpt lat="45.07608" lon="2.6134">
        <ele>1365.01</ele>
        <time>2022-10-19T10:14:17.000Z</time>
      </trkpt>
      <trkpt lat="45.07609" lon="2.61352">
        <ele>1365.01</ele>
        <time>2022-10-19T10:14:26.623Z</time>
      </trkpt>
      <trkpt lat="45.0761" lon="2.61353">
        <ele>1366.01</ele>
        <time>2022-10-19T10:14:36.000Z</time>
      </trkpt>
      <trkpt lat="45.0761" lon="2.61355">
        <ele>1366.01</ele>
        <time>2022-10-19T10:15:08.000Z</time>
      </trkpt>
      <trkpt lat="45.07613" lon="2.61367">
        <ele>1367.95</ele>
        <time>2022-10-19T10:15:17.623Z</time>
      </trkpt>
      <trkpt lat="45.07614" lon="2.61375">
        <ele>1369.01</ele>
        <time>2022-10-19T10:15:27.000Z</time>
      </trkpt>
      <trkpt lat="45.07615" lon="2.61386">
        <ele>1371.01</ele>
        <time>2022-10-19T10:15:37.000Z</time>
      </trkpt>
      <trkpt lat="45.07616" lon="2.61396">
        <ele>1372.01</ele>
        <time>2022-10-19T10:15:46.740Z</time>
      </trkpt>
      <trkpt lat="45.07618" lon="2.61405">
        <ele>1373.95</ele>
        <time>2022-10-19T10:15:55.781Z</time>
      </trkpt>
      <trkpt lat="45.07619" lon="2.61415">
        <ele>1376.01</ele>
        <time>2022-10-19T10:16:05.382Z</time>
      </trkpt>
      <trkpt lat="45.0762" lon="2.61422">
        <ele>1376.76</ele>
        <time>2022-10-19T10:16:16.000Z</time>
      </trkpt>
      <trkpt lat="45.07619" lon="2.61432">
        <ele>1378.76</ele>
        <time>2022-10-19T10:16:25.600Z</time>
      </trkpt>
      <trkpt lat="45.07619" lon="2.61437">
        <ele>1379.01</ele>
        <time>2022-10-19T10:16:35.000Z</time>
      </trkpt>
      <trkpt lat="45.07621" lon="2.61444">
        <ele>1381</ele>
        <time>2022-10-19T10:16:44.499Z</time>
      </trkpt>
      <trkpt lat="45.07623" lon="2.61451">
        <ele>1381.95</ele>
        <time>2022-10-19T10:16:54.000Z</time>
      </trkpt>
      <trkpt lat="45.07625" lon="2.61461">
        <ele>1382.01</ele>
        <time>2022-10-19T10:17:03.584Z</time>
      </trkpt>
      <trkpt lat="45.07627" lon="2.61469">
        <ele>1384.76</ele>
        <time>2022-10-19T10:17:13.000Z</time>
      </trkpt>
      <trkpt lat="45.07629" lon="2.61478">
        <ele>1386.2</ele>
        <time>2022-10-19T10:17:22.443Z</time>
      </trkpt>
      <trkpt lat="45.0763" lon="2.61482">
        <ele>1388.01</ele>
        <time>2022-10-19T10:17:32.000Z</time>
      </trkpt>
      <trkpt lat="45.07634" lon="2.61492">
        <ele>1388.01</ele>
        <time>2022-10-19T10:17:41.301Z</time>
      </trkpt>
      <trkpt lat="45.07638" lon="2.61499">
        <ele>1389.95</ele>
        <time>2022-10-19T10:17:51.000Z</time>
      </trkpt>
      <trkpt lat="45.0764" lon="2.61506">
        <ele>1392</ele>
        <time>2022-10-19T10:18:00.681Z</time>
      </trkpt>
      <trkpt lat="45.07642" lon="2.61512">
        <ele>1393.07</ele>
        <time>2022-10-19T10:18:10.000Z</time>
      </trkpt>
      <trkpt lat="45.07643" lon="2.61514">
        <ele>1393.95</ele>
        <time>2022-10-19T10:18:32.781Z</time>
      </trkpt>
      <trkpt lat="45.07644" lon="2.61515">
        <ele>1394</ele>
        <time>2022-10-19T10:19:44.000Z</time>
      </trkpt>
      <trkpt lat="45.07648" lon="2.61524">
        <ele>1395.01</ele>
        <time>2022-10-19T10:19:53.083Z</time>
      </trkpt>
      <trkpt lat="45.07653" lon="2.61531">
        <ele>1396.01</ele>
        <time>2022-10-19T10:20:02.721Z</time>
      </trkpt>
      <trkpt lat="45.07657" lon="2.61534">
        <ele>1397.76</ele>
        <time>2022-10-19T10:20:12.000Z</time>
      </trkpt>
      <trkpt lat="45.07661" lon="2.61541">
        <ele>1399.01</ele>
        <time>2022-10-19T10:20:21.601Z</time>
      </trkpt>
      <trkpt lat="45.07662" lon="2.61548">
        <ele>1401.01</ele>
        <time>2022-10-19T10:20:31.000Z</time>
      </trkpt>
      <trkpt lat="45.07664" lon="2.61557">
        <ele>1402.76</ele>
        <time>2022-10-19T10:20:40.506Z</time>
      </trkpt>
      <trkpt lat="45.07665" lon="2.61564">
        <ele>1403.95</ele>
        <time>2022-10-19T10:20:50.203Z</time>
      </trkpt>
      <trkpt lat="45.07667" lon="2.61572">
        <ele>1405.01</ele>
        <time>2022-10-19T10:20:59.243Z</time>
      </trkpt>
      <trkpt lat="45.0767" lon="2.6158">
        <ele>1405.01</ele>
        <time>2022-10-19T10:21:09.000Z</time>
      </trkpt>
      <trkpt lat="45.07672" lon="2.61588">
        <ele>1407.01</ele>
        <time>2022-10-19T10:21:18.263Z</time>
      </trkpt>
      <trkpt lat="45.07671" lon="2.61594">
        <ele>1408.01</ele>
        <time>2022-10-19T10:21:27.403Z</time>
      </trkpt>
      <trkpt lat="45.07671" lon="2.61603">
        <ele>1409.01</ele>
        <time>2022-10-19T10:21:36.500Z</time>
      </trkpt>
      <trkpt lat="45.07671" lon="2.61613">
        <ele>1410.01</ele>
        <time>2022-10-19T10:21:45.684Z</time>
      </trkpt>
      <trkpt lat="45.07672" lon="2.61618">
        <ele>1410.95</ele>
        <time>2022-10-19T10:21:55.000Z</time>
      </trkpt>
      <trkpt lat="45.07672" lon="2.61628">
        <ele>1412.01</ele>
        <time>2022-10-19T10:22:04.540Z</time>
      </trkpt>
      <trkpt lat="45.07671" lon="2.61636">
        <ele>1413.01</ele>
        <time>2022-10-19T10:22:13.740Z</time>
      </trkpt>
      <trkpt lat="45.0767" lon="2.61641">
        <ele>1414.76</ele>
        <time>2022-10-19T10:22:24.000Z</time>
      </trkpt>
      <trkpt lat="45.07671" lon="2.61642">
        <ele>1414.01</ele>
        <time>2022-10-19T10:22:42.000Z</time>
      </trkpt>
      <trkpt lat="45.07671" lon="2.61643">
        <ele>1411.01</ele>
        <time>2022-10-19T10:23:03.000Z</time>
      </trkpt>
      <trkpt lat="45.07671" lon="2.61642">
        <ele>1413</ele>
        <time>2022-10-19T10:23:55.000Z</time>
      </trkpt>
      <trkpt lat="45.07671" lon="2.61644">
        <ele>1414.01</ele>
        <time>2022-10-19T10:24:27.000Z</time>
      </trkpt>
      <trkpt lat="45.07672" lon="2.61652">
        <ele>1415.01</ele>
        <time>2022-10-19T10:24:36.161Z</time>
      </trkpt>
      <trkpt lat="45.07673" lon="2.61662">
        <ele>1416.01</ele>
        <time>2022-10-19T10:24:45.703Z</time>
      </trkpt>
      <trkpt lat="45.07673" lon="2.6167">
        <ele>1417.81</ele>
        <time>2022-10-19T10:24:55.000Z</time>
      </trkpt>
      <trkpt lat="45.07677" lon="2.61678">
        <ele>1420</ele>
        <time>2022-10-19T10:25:04.324Z</time>
      </trkpt>
      <trkpt lat="45.07679" lon="2.61684">
        <ele>1421.01</ele>
        <time>2022-10-19T10:25:13.423Z</time>
      </trkpt>
      <trkpt lat="45.07683" lon="2.61691">
        <ele>1421.01</ele>
        <time>2022-10-19T10:25:23.000Z</time>
      </trkpt>
      <trkpt lat="45.07688" lon="2.61698">
        <ele>1423</ele>
        <time>2022-10-19T10:25:32.581Z</time>
      </trkpt>
      <trkpt lat="45.07692" lon="2.61705">
        <ele>1424.01</ele>
        <time>2022-10-19T10:25:42.401Z</time>
      </trkpt>
      <trkpt lat="45.07696" lon="2.6171">
        <ele>1425.01</ele>
        <time>2022-10-19T10:25:51.740Z</time>
      </trkpt>
      <trkpt lat="45.07698" lon="2.61717">
        <ele>1427</ele>
        <time>2022-10-19T10:26:01.000Z</time>
      </trkpt>
      <trkpt lat="45.07702" lon="2.61723">
        <ele>1428.76</ele>
        <time>2022-10-19T10:26:11.000Z</time>
      </trkpt>
      <trkpt lat="45.07704" lon="2.61728">
        <ele>1430</ele>
        <time>2022-10-19T10:26:20.508Z</time>
      </trkpt>
      <trkpt lat="45.07712" lon="2.61732">
        <ele>1431.01</ele>
        <time>2022-10-19T10:26:29.761Z</time>
      </trkpt>
      <trkpt lat="45.07714" lon="2.61737">
        <ele>1432.76</ele>
        <time>2022-10-19T10:26:39.000Z</time>
      </trkpt>
      <trkpt lat="45.07717" lon="2.61743">
        <ele>1434.01</ele>
        <time>2022-10-19T10:26:48.421Z</time>
      </trkpt>
      <trkpt lat="45.07723" lon="2.61747">
        <ele>1435.01</ele>
        <time>2022-10-19T10:26:57.520Z</time>
      </trkpt>
      <trkpt lat="45.07728" lon="2.6175">
        <ele>1437.01</ele>
        <time>2022-10-19T10:27:07.000Z</time>
      </trkpt>
      <trkpt lat="45.07732" lon="2.61755">
        <ele>1438.01</ele>
        <time>2022-10-19T10:27:17.000Z</time>
      </trkpt>
      <trkpt lat="45.07737" lon="2.61761">
        <ele>1439.01</ele>
        <time>2022-10-19T10:27:26.201Z</time>
      </trkpt>
      <trkpt lat="45.07737" lon="2.61766">
        <ele>1440.01</ele>
        <time>2022-10-19T10:27:35.403Z</time>
      </trkpt>
      <trkpt lat="45.07738" lon="2.61778">
        <ele>1441.01</ele>
        <time>2022-10-19T10:27:44.623Z</time>
      </trkpt>
      <trkpt lat="45.07736" lon="2.61787">
        <ele>1442.01</ele>
        <time>2022-10-19T10:27:53.721Z</time>
      </trkpt>
      <trkpt lat="45.07733" lon="2.61796">
        <ele>1443.01</ele>
        <time>2022-10-19T10:28:03.000Z</time>
      </trkpt>
      <trkpt lat="45.07728" lon="2.61811">
        <ele>1443.01</ele>
        <time>2022-10-19T10:28:12.342Z</time>
      </trkpt>
      <trkpt lat="45.07724" lon="2.61822">
        <ele>1443.01</ele>
        <time>2022-10-19T10:28:22.000Z</time>
      </trkpt>
      <trkpt lat="45.07721" lon="2.61834">
        <ele>1443.01</ele>
        <time>2022-10-19T10:28:31.401Z</time>
      </trkpt>
      <trkpt lat="45.07717" lon="2.61844">
        <ele>1444</ele>
        <time>2022-10-19T10:28:40.565Z</time>
      </trkpt>
      <trkpt lat="45.07714" lon="2.61855">
        <ele>1444</ele>
        <time>2022-10-19T10:28:50.000Z</time>
      </trkpt>
      <trkpt lat="45.07709" lon="2.61866">
        <ele>1444</ele>
        <time>2022-10-19T10:28:59.141Z</time>
      </trkpt>
      <trkpt lat="45.07704" lon="2.61876">
        <ele>1445.94</ele>
        <time>2022-10-19T10:29:08.362Z</time>
      </trkpt>
      <trkpt lat="45.07701" lon="2.61889">
        <ele>1446.75</ele>
        <time>2022-10-19T10:29:18.000Z</time>
      </trkpt>
      <trkpt lat="45.07697" lon="2.61899">
        <ele>1448</ele>
        <time>2022-10-19T10:29:27.264Z</time>
      </trkpt>
      <trkpt lat="45.07694" lon="2.6191">
        <ele>1449</ele>
        <time>2022-10-19T10:29:36.735Z</time>
      </trkpt>
      <trkpt lat="45.07691" lon="2.61921">
        <ele>1450.75</ele>
        <time>2022-10-19T10:29:46.273Z</time>
      </trkpt>
      <trkpt lat="45.07689" lon="2.61932">
        <ele>1452</ele>
        <time>2022-10-19T10:29:55.611Z</time>
      </trkpt>
      <trkpt lat="45.07687" lon="2.61942">
        <ele>1454</ele>
        <time>2022-10-19T10:30:05.115Z</time>
      </trkpt>
      <trkpt lat="45.07687" lon="2.61953">
        <ele>1454.05</ele>
        <time>2022-10-19T10:30:14.692Z</time>
      </trkpt>
      <trkpt lat="45.07685" lon="2.61962">
        <ele>1455</ele>
        <time>2022-10-19T10:30:24.251Z</time>
      </trkpt>
      <trkpt lat="45.07684" lon="2.61972">
        <ele>1457</ele>
        <time>2022-10-19T10:30:33.693Z</time>
      </trkpt>
      <trkpt lat="45.07683" lon="2.61981">
        <ele>1458.24</ele>
        <time>2022-10-19T10:30:43.431Z</time>
      </trkpt>
      <trkpt lat="45.07682" lon="2.61991">
        <ele>1459.99</ele>
        <time>2022-10-19T10:30:53.000Z</time>
      </trkpt>
      <trkpt lat="45.07681" lon="2.62001">
        <ele>1461</ele>
        <time>2022-10-19T10:31:02.213Z</time>
      </trkpt>
      <trkpt lat="45.0768" lon="2.6201">
        <ele>1462</ele>
        <time>2022-10-19T10:31:11.750Z</time>
      </trkpt>
      <trkpt lat="45.07678" lon="2.62018">
        <ele>1463</ele>
        <time>2022-10-19T10:31:21.333Z</time>
      </trkpt>
      <trkpt lat="45.07677" lon="2.62029">
        <ele>1465</ele>
        <time>2022-10-19T10:31:31.074Z</time>
      </trkpt>
      <trkpt lat="45.07676" lon="2.62039">
        <ele>1466.75</ele>
        <time>2022-10-19T10:31:41.000Z</time>
      </trkpt>
      <trkpt lat="45.07672" lon="2.62048">
        <ele>1468.99</ele>
        <time>2022-10-19T10:31:50.571Z</time>
      </trkpt>
      <trkpt lat="45.07672" lon="2.62058">
        <ele>1469.81</ele>
        <time>2022-10-19T10:32:00.171Z</time>
      </trkpt>
      <trkpt lat="45.07671" lon="2.62068">
        <ele>1471.75</ele>
        <time>2022-10-19T10:32:09.393Z</time>
      </trkpt>
      <trkpt lat="45.07667" lon="2.62071">
        <ele>1472</ele>
        <time>2022-10-19T10:32:19.000Z</time>
      </trkpt>
      <trkpt lat="45.07665" lon="2.62072">
        <ele>1473</ele>
        <time>2022-10-19T10:32:31.571Z</time>
      </trkpt>
      <trkpt lat="45.07663" lon="2.62073">
        <ele>1474</ele>
        <time>2022-10-19T10:32:41.000Z</time>
      </trkpt>
      <trkpt lat="45.07664" lon="2.62075">
        <ele>1474</ele>
        <time>2022-10-19T10:32:53.000Z</time>
      </trkpt>
      <trkpt lat="45.07663" lon="2.62074">
        <ele>1474</ele>
        <time>2022-10-19T10:33:06.233Z</time>
      </trkpt>
      <trkpt lat="45.0766" lon="2.62078">
        <ele>1474</ele>
        <time>2022-10-19T10:33:16.000Z</time>
      </trkpt>
      <trkpt lat="45.07655" lon="2.62082">
        <ele>1475</ele>
        <time>2022-10-19T10:33:25.272Z</time>
      </trkpt>
      <trkpt lat="45.07657" lon="2.62097">
        <ele>1476.94</ele>
        <time>2022-10-19T10:33:34.508Z</time>
      </trkpt>
      <trkpt lat="45.07657" lon="2.62105">
        <ele>1478.75</ele>
        <time>2022-10-19T10:33:44.000Z</time>
      </trkpt>
      <trkpt lat="45.0766" lon="2.62113">
        <ele>1480</ele>
        <time>2022-10-19T10:33:53.510Z</time>
      </trkpt>
      <trkpt lat="45.07661" lon="2.62122">
        <ele>1481</ele>
        <time>2022-10-19T10:34:02.771Z</time>
      </trkpt>
      <trkpt lat="45.07661" lon="2.6213">
        <ele>1483</ele>
        <time>2022-10-19T10:34:12.414Z</time>
      </trkpt>
      <trkpt lat="45.07661" lon="2.62138">
        <ele>1485</ele>
        <time>2022-10-19T10:34:22.000Z</time>
      </trkpt>
      <trkpt lat="45.07657" lon="2.62145">
        <ele>1486</ele>
        <time>2022-10-19T10:34:32.000Z</time>
      </trkpt>
      <trkpt lat="45.07657" lon="2.62152">
        <ele>1487.75</ele>
        <time>2022-10-19T10:34:41.251Z</time>
      </trkpt>
      <trkpt lat="45.07658" lon="2.62157">
        <ele>1489.75</ele>
        <time>2022-10-19T10:34:51.000Z</time>
      </trkpt>
      <trkpt lat="45.07659" lon="2.62162">
        <ele>1491</ele>
        <time>2022-10-19T10:35:00.392Z</time>
      </trkpt>
      <trkpt lat="45.07661" lon="2.62169">
        <ele>1493</ele>
        <time>2022-10-19T10:35:09.413Z</time>
      </trkpt>
      <trkpt lat="45.07663" lon="2.62176">
        <ele>1493.25</ele>
        <time>2022-10-19T10:35:19.000Z</time>
      </trkpt>
      <trkpt lat="45.07662" lon="2.62182">
        <ele>1495</ele>
        <time>2022-10-19T10:35:29.000Z</time>
      </trkpt>
      <trkpt lat="45.07661" lon="2.62191">
        <ele>1496</ele>
        <time>2022-10-19T10:35:39.000Z</time>
      </trkpt>
      <trkpt lat="45.07666" lon="2.62199">
        <ele>1497.94</ele>
        <time>2022-10-19T10:35:48.273Z</time>
      </trkpt>
      <trkpt lat="45.07668" lon="2.62205">
        <ele>1499</ele>
        <time>2022-10-19T10:35:57.413Z</time>
      </trkpt>
      <trkpt lat="45.0767" lon="2.62211">
        <ele>1500</ele>
        <time>2022-10-19T10:36:06.433Z</time>
      </trkpt>
      <trkpt lat="45.07665" lon="2.62213">
        <ele>1501</ele>
        <time>2022-10-19T10:36:16.570Z</time>
      </trkpt>
      <trkpt lat="45.07662" lon="2.62215">
        <ele>1501</ele>
        <time>2022-10-19T10:36:26.000Z</time>
      </trkpt>
      <trkpt lat="45.07661" lon="2.62218">
        <ele>1501</ele>
        <time>2022-10-19T10:36:35.331Z</time>
      </trkpt>
      <trkpt lat="45.07658" lon="2.62224">
        <ele>1501.06</ele>
        <time>2022-10-19T10:36:45.000Z</time>
      </trkpt>
      <trkpt lat="45.07659" lon="2.62227">
        <ele>1502.94</ele>
        <time>2022-10-19T10:36:54.717Z</time>
      </trkpt>
      <trkpt lat="45.0766" lon="2.62234">
        <ele>1504.73</ele>
        <time>2022-10-19T10:37:04.000Z</time>
      </trkpt>
      <trkpt lat="45.07658" lon="2.62239">
        <ele>1504.99</ele>
        <time>2022-10-19T10:37:13.508Z</time>
      </trkpt>
      <trkpt lat="45.07659" lon="2.62245">
        <ele>1504.98</ele>
        <time>2022-10-19T10:37:23.000Z</time>
      </trkpt>
      <trkpt lat="45.0766" lon="2.62253">
        <ele>1504</ele>
        <time>2022-10-19T10:37:32.112Z</time>
      </trkpt>
      <trkpt lat="45.07662" lon="2.6226">
        <ele>1503</ele>
        <time>2022-10-19T10:37:42.000Z</time>
      </trkpt>
      <trkpt lat="45.07663" lon="2.62268">
        <ele>1503</ele>
        <time>2022-10-19T10:37:52.000Z</time>
      </trkpt>
      <trkpt lat="45.07666" lon="2.62273">
        <ele>1504.75</ele>
        <time>2022-10-19T10:38:02.000Z</time>
      </trkpt>
      <trkpt lat="45.07668" lon="2.62273">
        <ele>1505.19</ele>
        <time>2022-10-19T10:38:12.000Z</time>
      </trkpt>
      <trkpt lat="45.07668" lon="2.62271">
        <ele>1506</ele>
        <time>2022-10-19T10:38:22.000Z</time>
      </trkpt>
      <trkpt lat="45.07668" lon="2.62273">
        <ele>1507</ele>
        <time>2022-10-19T10:38:32.000Z</time>
      </trkpt>
      <trkpt lat="45.07668" lon="2.62274">
        <ele>1508</ele>
        <time>2022-10-19T10:38:58.000Z</time>
      </trkpt>
      <trkpt lat="45.07671" lon="2.62276">
        <ele>1509.75</ele>
        <time>2022-10-19T10:39:08.000Z</time>
      </trkpt>
      <trkpt lat="45.07674" lon="2.62278">
        <ele>1510.94</ele>
        <time>2022-10-19T10:39:17.692Z</time>
      </trkpt>
      <trkpt lat="45.07679" lon="2.6228">
        <ele>1512</ele>
        <time>2022-10-19T10:39:27.000Z</time>
      </trkpt>
      <trkpt lat="45.07684" lon="2.62288">
        <ele>1513</ele>
        <time>2022-10-19T10:39:36.212Z</time>
      </trkpt>
      <trkpt lat="45.07689" lon="2.62298">
        <ele>1514</ele>
        <time>2022-10-19T10:39:45.771Z</time>
      </trkpt>
      <trkpt lat="45.07696" lon="2.62302">
        <ele>1515</ele>
        <time>2022-10-19T10:39:55.493Z</time>
      </trkpt>
      <trkpt lat="45.07701" lon="2.62309">
        <ele>1516</ele>
        <time>2022-10-19T10:40:05.000Z</time>
      </trkpt>
      <trkpt lat="45.07704" lon="2.62314">
        <ele>1517</ele>
        <time>2022-10-19T10:40:15.000Z</time>
      </trkpt>
      <trkpt lat="45.07704" lon="2.62316">
        <ele>1517.93</ele>
        <time>2022-10-19T10:40:28.531Z</time>
      </trkpt>
      <trkpt lat="45.07708" lon="2.62326">
        <ele>1518.75</ele>
        <time>2022-10-19T10:40:38.251Z</time>
      </trkpt>
      <trkpt lat="45.0771" lon="2.62335">
        <ele>1519.94</ele>
        <time>2022-10-19T10:40:47.351Z</time>
      </trkpt>
      <trkpt lat="45.07708" lon="2.62344">
        <ele>1521</ele>
        <time>2022-10-19T10:40:57.000Z</time>
      </trkpt>
      <trkpt lat="45.07709" lon="2.62348">
        <ele>1521</ele>
        <time>2022-10-19T10:41:07.000Z</time>
      </trkpt>
      <trkpt lat="45.0771" lon="2.6235">
        <ele>1521.06</ele>
        <time>2022-10-19T10:44:36.000Z</time>
      </trkpt>
      <trkpt lat="45.07715" lon="2.62359">
        <ele>1520</ele>
        <time>2022-10-19T10:44:45.413Z</time>
      </trkpt>
      <trkpt lat="45.07719" lon="2.62368">
        <ele>1519</ele>
        <time>2022-10-19T10:44:54.713Z</time>
      </trkpt>
      <trkpt lat="45.07721" lon="2.62378">
        <ele>1517</ele>
        <time>2022-10-19T10:45:04.000Z</time>
      </trkpt>
      <trkpt lat="45.07726" lon="2.62388">
        <ele>1516</ele>
        <time>2022-10-19T10:45:13.131Z</time>
      </trkpt>
      <trkpt lat="45.0773" lon="2.62399">
        <ele>1514.25</ele>
        <time>2022-10-19T10:45:22.512Z</time>
      </trkpt>
      <trkpt lat="45.07734" lon="2.6241">
        <ele>1513</ele>
        <time>2022-10-19T10:45:31.770Z</time>
      </trkpt>
      <trkpt lat="45.07739" lon="2.62416">
        <ele>1511.25</ele>
        <time>2022-10-19T10:45:41.291Z</time>
      </trkpt>
      <trkpt lat="45.07739" lon="2.62417">
        <ele>1511.99</ele>
        <time>2022-10-19T10:45:51.000Z</time>
      </trkpt>
      <trkpt lat="45.07738" lon="2.62419">
        <ele>1511.99</ele>
        <time>2022-10-19T10:46:06.271Z</time>
      </trkpt>
      <trkpt lat="45.07737" lon="2.62419">
        <ele>1510.99</ele>
        <time>2022-10-19T10:46:16.000Z</time>
      </trkpt>
      <trkpt lat="45.07738" lon="2.62419">
        <ele>1510.24</ele>
        <time>2022-10-19T10:46:44.000Z</time>
      </trkpt>
      <trkpt lat="45.07742" lon="2.62423">
        <ele>1509</ele>
        <time>2022-10-19T10:46:53.372Z</time>
      </trkpt>
      <trkpt lat="45.07746" lon="2.62432">
        <ele>1507.99</ele>
        <time>2022-10-19T10:47:02.572Z</time>
      </trkpt>
      <trkpt lat="45.0775" lon="2.62442">
        <ele>1507</ele>
        <time>2022-10-19T10:47:12.452Z</time>
      </trkpt>
      <trkpt lat="45.07754" lon="2.62452">
        <ele>1506.18</ele>
        <time>2022-10-19T10:47:22.000Z</time>
      </trkpt>
      <trkpt lat="45.07752" lon="2.62465">
        <ele>1505.01</ele>
        <time>2022-10-19T10:47:31.393Z</time>
      </trkpt>
      <trkpt lat="45.07751" lon="2.62477">
        <ele>1503.94</ele>
        <time>2022-10-19T10:47:40.631Z</time>
      </trkpt>
      <trkpt lat="45.07749" lon="2.62489">
        <ele>1502.26</ele>
        <time>2022-10-19T10:47:49.934Z</time>
      </trkpt>
      <trkpt lat="45.0775" lon="2.625">
        <ele>1501.99</ele>
        <time>2022-10-19T10:47:59.000Z</time>
      </trkpt>
      <trkpt lat="45.07747" lon="2.62515">
        <ele>1500.24</ele>
        <time>2022-10-19T10:48:08.093Z</time>
      </trkpt>
      <trkpt lat="45.07743" lon="2.62526">
        <ele>1498.99</ele>
        <time>2022-10-19T10:48:17.590Z</time>
      </trkpt>
      <trkpt lat="45.0774" lon="2.62529">
        <ele>1498.99</ele>
        <time>2022-10-19T10:48:27.000Z</time>
      </trkpt>
      <trkpt lat="45.0774" lon="2.62528">
        <ele>1498.06</ele>
        <time>2022-10-19T10:48:54.000Z</time>
      </trkpt>
      <trkpt lat="45.07741" lon="2.62521">
        <ele>1498.99</ele>
        <time>2022-10-19T10:49:03.492Z</time>
      </trkpt>
      <trkpt lat="45.07739" lon="2.62516">
        <ele>1498.01</ele>
        <time>2022-10-19T10:49:13.000Z</time>
      </trkpt>
      <trkpt lat="45.07739" lon="2.62511">
        <ele>1498.99</ele>
        <time>2022-10-19T10:49:23.000Z</time>
      </trkpt>
      <trkpt lat="45.07738" lon="2.62509">
        <ele>1498.99</ele>
        <time>2022-10-19T10:49:32.523Z</time>
      </trkpt>
      <trkpt lat="45.07747" lon="2.62524">
        <ele>1498.99</ele>
        <time>2022-10-19T10:49:42.000Z</time>
      </trkpt>
      <trkpt lat="45.07758" lon="2.62493">
        <ele>1468</ele>
        <time>2022-10-19T10:51:55.451Z</time>
      </trkpt>
      <trkpt lat="45.07742" lon="2.62527">
        <ele>1518.48</ele>
        <time>2022-10-19T10:52:05.000Z</time>
      </trkpt>
      <trkpt lat="45.07739" lon="2.62526">
        <ele>1508.17</ele>
        <time>2022-10-19T10:52:15.000Z</time>
      </trkpt>
      <trkpt lat="45.0774" lon="2.62521">
        <ele>1499</ele>
        <time>2022-10-19T10:52:25.000Z</time>
      </trkpt>
      <trkpt lat="45.07739" lon="2.62522">
        <ele>1498.99</ele>
        <time>2022-10-19T10:52:35.000Z</time>
      </trkpt>
      <trkpt lat="45.07741" lon="2.62525">
        <ele>1498.99</ele>
        <time>2022-10-19T10:52:45.000Z</time>
      </trkpt>
      <trkpt lat="45.07743" lon="2.62532">
        <ele>1498.24</ele>
        <time>2022-10-19T10:52:55.000Z</time>
      </trkpt>
      <trkpt lat="45.07749" lon="2.62543">
        <ele>1498.74</ele>
        <time>2022-10-19T10:53:05.000Z</time>
      </trkpt>
      <trkpt lat="45.07753" lon="2.62558">
        <ele>1496.99</ele>
        <time>2022-10-19T10:53:15.000Z</time>
      </trkpt>
      <trkpt lat="45.0776" lon="2.62572">
        <ele>1495.8</ele>
        <time>2022-10-19T10:53:25.000Z</time>
      </trkpt>
      <trkpt lat="45.07763" lon="2.62587">
        <ele>1495.99</ele>
        <time>2022-10-19T10:53:34.651Z</time>
      </trkpt>
      <trkpt lat="45.0776" lon="2.62601">
        <ele>1494.99</ele>
        <time>2022-10-19T10:53:44.191Z</time>
      </trkpt>
      <trkpt lat="45.07763" lon="2.62613">
        <ele>1494.99</ele>
        <time>2022-10-19T10:53:53.531Z</time>
      </trkpt>
      <trkpt lat="45.07764" lon="2.62625">
        <ele>1496.93</ele>
        <time>2022-10-19T10:54:04.000Z</time>
      </trkpt>
      <trkpt lat="45.07767" lon="2.62634">
        <ele>1498.99</ele>
        <time>2022-10-19T10:54:13.611Z</time>
      </trkpt>
      <trkpt lat="45.07769" lon="2.62636">
        <ele>1498.99</ele>
        <time>2022-10-19T10:54:23.210Z</time>
      </trkpt>
      <trkpt lat="45.07771" lon="2.62645">
        <ele>1499.99</ele>
        <time>2022-10-19T10:54:32.293Z</time>
      </trkpt>
      <trkpt lat="45.07773" lon="2.62653">
        <ele>1500.99</ele>
        <time>2022-10-19T10:54:41.531Z</time>
      </trkpt>
      <trkpt lat="45.07776" lon="2.62658">
        <ele>1502.99</ele>
        <time>2022-10-19T10:54:50.732Z</time>
      </trkpt>
      <trkpt lat="45.07779" lon="2.62662">
        <ele>1504.93</ele>
        <time>2022-10-19T10:55:00.000Z</time>
      </trkpt>
      <trkpt lat="45.07781" lon="2.62668">
        <ele>1505.97</ele>
        <time>2022-10-19T10:55:09.271Z</time>
      </trkpt>
      <trkpt lat="45.07784" lon="2.62675">
        <ele>1506.99</ele>
        <time>2022-10-19T10:55:18.671Z</time>
      </trkpt>
      <trkpt lat="45.07786" lon="2.62679">
        <ele>1508.74</ele>
        <time>2022-10-19T10:55:28.000Z</time>
      </trkpt>
      <trkpt lat="45.07788" lon="2.62687">
        <ele>1509.97</ele>
        <time>2022-10-19T10:55:37.672Z</time>
      </trkpt>
      <trkpt lat="45.0779" lon="2.62693">
        <ele>1511.93</ele>
        <time>2022-10-19T10:55:47.460Z</time>
      </trkpt>
      <trkpt lat="45.0779" lon="2.62695">
        <ele>1511.99</ele>
        <time>2022-10-19T10:55:57.000Z</time>
      </trkpt>
      <trkpt lat="45.0779" lon="2.62696">
        <ele>1510.99</ele>
        <time>2022-10-19T10:56:42.000Z</time>
      </trkpt>
      <trkpt lat="45.07792" lon="2.62704">
        <ele>1512.74</ele>
        <time>2022-10-19T10:56:51.130Z</time>
      </trkpt>
      <trkpt lat="45.07795" lon="2.62716">
        <ele>1514.93</ele>
        <time>2022-10-19T10:57:00.551Z</time>
      </trkpt>
      <trkpt lat="45.07798" lon="2.62725">
        <ele>1515.99</ele>
        <time>2022-10-19T10:57:10.000Z</time>
      </trkpt>
      <trkpt lat="45.078" lon="2.62734">
        <ele>1517.99</ele>
        <time>2022-10-19T10:57:19.151Z</time>
      </trkpt>
      <trkpt lat="45.07801" lon="2.62743">
        <ele>1518.99</ele>
        <time>2022-10-19T10:57:28.592Z</time>
      </trkpt>
      <trkpt lat="45.07804" lon="2.62754">
        <ele>1519.93</ele>
        <time>2022-10-19T10:57:38.111Z</time>
      </trkpt>
      <trkpt lat="45.07808" lon="2.62765">
        <ele>1520.98</ele>
        <time>2022-10-19T10:57:47.171Z</time>
      </trkpt>
      <trkpt lat="45.07809" lon="2.62774">
        <ele>1520.99</ele>
        <time>2022-10-19T10:57:56.421Z</time>
      </trkpt>
      <trkpt lat="45.07811" lon="2.62783">
        <ele>1522.98</ele>
        <time>2022-10-19T10:58:06.000Z</time>
      </trkpt>
      <trkpt lat="45.07815" lon="2.62792">
        <ele>1523.74</ele>
        <time>2022-10-19T10:58:15.294Z</time>
      </trkpt>
      <trkpt lat="45.07817" lon="2.62798">
        <ele>1524.99</ele>
        <time>2022-10-19T10:58:25.000Z</time>
      </trkpt>
      <trkpt lat="45.07818" lon="2.62804">
        <ele>1525.99</ele>
        <time>2022-10-19T10:58:34.192Z</time>
      </trkpt>
      <trkpt lat="45.07821" lon="2.62815">
        <ele>1527.99</ele>
        <time>2022-10-19T10:58:43.311Z</time>
      </trkpt>
      <trkpt lat="45.07824" lon="2.62822">
        <ele>1528.99</ele>
        <time>2022-10-19T10:58:52.531Z</time>
      </trkpt>
      <trkpt lat="45.07824" lon="2.62829">
        <ele>1530.92</ele>
        <time>2022-10-19T10:59:02.061Z</time>
      </trkpt>
      <trkpt lat="45.07825" lon="2.62836">
        <ele>1532.92</ele>
        <time>2022-10-19T10:59:11.780Z</time>
      </trkpt>
      <trkpt lat="45.07829" lon="2.62843">
        <ele>1532.99</ele>
        <time>2022-10-19T10:59:21.000Z</time>
      </trkpt>
      <trkpt lat="45.0783" lon="2.6285">
        <ele>1534.97</ele>
        <time>2022-10-19T10:59:31.000Z</time>
      </trkpt>
      <trkpt lat="45.07833" lon="2.62854">
        <ele>1535.97</ele>
        <time>2022-10-19T10:59:40.361Z</time>
      </trkpt>
      <trkpt lat="45.07836" lon="2.62862">
        <ele>1535.99</ele>
        <time>2022-10-19T10:59:50.000Z</time>
      </trkpt>
      <trkpt lat="45.07834" lon="2.62867">
        <ele>1537.97</ele>
        <time>2022-10-19T11:00:00.000Z</time>
      </trkpt>
      <trkpt lat="45.07835" lon="2.62867">
        <ele>1537.99</ele>
        <time>2022-10-19T11:00:10.000Z</time>
      </trkpt>
      <trkpt lat="45.07835" lon="2.62868">
        <ele>1539.98</ele>
        <time>2022-10-19T11:00:25.000Z</time>
      </trkpt>
      <trkpt lat="45.07832" lon="2.62868">
        <ele>1542.99</ele>
        <time>2022-10-19T11:00:35.000Z</time>
      </trkpt>
      <trkpt lat="45.07826" lon="2.62867">
        <ele>1542.99</ele>
        <time>2022-10-19T11:00:44.354Z</time>
      </trkpt>
      <trkpt lat="45.07827" lon="2.62866">
        <ele>1542.99</ele>
        <time>2022-10-19T11:00:54.000Z</time>
      </trkpt>
      <trkpt lat="45.07827" lon="2.62867">
        <ele>1541.99</ele>
        <time>2022-10-19T11:01:04.000Z</time>
      </trkpt>
      <trkpt lat="45.07826" lon="2.62867">
        <ele>1541.99</ele>
        <time>2022-10-19T11:02:31.000Z</time>
      </trkpt>
      <trkpt lat="45.07827" lon="2.62867">
        <ele>1542.92</ele>
        <time>2022-10-19T11:08:54.551Z</time>
      </trkpt>
      <trkpt lat="45.07827" lon="2.62869">
        <ele>1543.99</ele>
        <time>2022-10-19T11:09:49.000Z</time>
      </trkpt>
      <trkpt lat="45.0783" lon="2.6288">
        <ele>1544.99</ele>
        <time>2022-10-19T11:09:58.735Z</time>
      </trkpt>
      <trkpt lat="45.07828" lon="2.62889">
        <ele>1545.99</ele>
        <time>2022-10-19T11:10:07.780Z</time>
      </trkpt>
      <trkpt lat="45.07828" lon="2.62901">
        <ele>1546.99</ele>
        <time>2022-10-19T11:10:18.000Z</time>
      </trkpt>
      <trkpt lat="45.07829" lon="2.62913">
        <ele>1547.99</ele>
        <time>2022-10-19T11:10:27.271Z</time>
      </trkpt>
      <trkpt lat="45.07831" lon="2.62924">
        <ele>1548.92</ele>
        <time>2022-10-19T11:10:36.735Z</time>
      </trkpt>
      <trkpt lat="45.07832" lon="2.62934">
        <ele>1548.99</ele>
        <time>2022-10-19T11:10:46.000Z</time>
      </trkpt>
      <trkpt lat="45.07835" lon="2.62946">
        <ele>1550.74</ele>
        <time>2022-10-19T11:10:55.452Z</time>
      </trkpt>
      <trkpt lat="45.07838" lon="2.62956">
        <ele>1551.98</ele>
        <time>2022-10-19T11:11:05.000Z</time>
      </trkpt>
      <trkpt lat="45.07842" lon="2.62967">
        <ele>1552.98</ele>
        <time>2022-10-19T11:11:14.341Z</time>
      </trkpt>
      <trkpt lat="45.07846" lon="2.62977">
        <ele>1553.98</ele>
        <time>2022-10-19T11:11:24.000Z</time>
      </trkpt>
      <trkpt lat="45.0785" lon="2.62987">
        <ele>1553.98</ele>
        <time>2022-10-19T11:11:33.031Z</time>
      </trkpt>
      <trkpt lat="45.07856" lon="2.62996">
        <ele>1554.98</ele>
        <time>2022-10-19T11:11:42.701Z</time>
      </trkpt>
      <trkpt lat="45.07861" lon="2.63007">
        <ele>1555.98</ele>
        <time>2022-10-19T11:11:52.152Z</time>
      </trkpt>
      <trkpt lat="45.07863" lon="2.63015">
        <ele>1556.98</ele>
        <time>2022-10-19T11:12:01.371Z</time>
      </trkpt>
      <trkpt lat="45.07865" lon="2.63023">
        <ele>1557.98</ele>
        <time>2022-10-19T11:12:10.730Z</time>
      </trkpt>
      <trkpt lat="45.07867" lon="2.63024">
        <ele>1557.98</ele>
        <time>2022-10-19T11:12:20.000Z</time>
      </trkpt>
      <trkpt lat="45.07868" lon="2.63023">
        <ele>1557.98</ele>
        <time>2022-10-19T11:12:30.000Z</time>
      </trkpt>
      <trkpt lat="45.07866" lon="2.63017">
        <ele>1555.98</ele>
        <time>2022-10-19T11:12:39.550Z</time>
      </trkpt>
      <trkpt lat="45.07868" lon="2.63015">
        <ele>1555.98</ele>
        <time>2022-10-19T11:12:49.000Z</time>
      </trkpt>
      <trkpt lat="45.07869" lon="2.63016">
        <ele>1554.98</ele>
        <time>2022-10-19T11:12:59.000Z</time>
      </trkpt>
      <trkpt lat="45.0787" lon="2.63021">
        <ele>1554.23</ele>
        <time>2022-10-19T11:13:08.393Z</time>
      </trkpt>
      <trkpt lat="45.07874" lon="2.63028">
        <ele>1554.97</ele>
        <time>2022-10-19T11:13:18.000Z</time>
      </trkpt>
      <trkpt lat="45.07876" lon="2.63037">
        <ele>1553.98</ele>
        <time>2022-10-19T11:13:27.631Z</time>
      </trkpt>
      <trkpt lat="45.07877" lon="2.63046">
        <ele>1554.23</ele>
        <time>2022-10-19T11:13:37.000Z</time>
      </trkpt>
      <trkpt lat="45.07877" lon="2.63051">
        <ele>1554.98</ele>
        <time>2022-10-19T11:13:46.252Z</time>
      </trkpt>
      <trkpt lat="45.07881" lon="2.63062">
        <ele>1554.98</ele>
        <time>2022-10-19T11:13:55.713Z</time>
      </trkpt>
      <trkpt lat="45.07881" lon="2.63072">
        <ele>1554.98</ele>
        <time>2022-10-19T11:14:04.978Z</time>
      </trkpt>
      <trkpt lat="45.07884" lon="2.63084">
        <ele>1553.98</ele>
        <time>2022-10-19T11:14:14.381Z</time>
      </trkpt>
      <trkpt lat="45.07884" lon="2.63086">
        <ele>1553.98</ele>
        <time>2022-10-19T11:14:24.000Z</time>
      </trkpt>
      <trkpt lat="45.07886" lon="2.63086">
        <ele>1553.98</ele>
        <time>2022-10-19T11:14:35.000Z</time>
      </trkpt>
      <trkpt lat="45.07893" lon="2.631">
        <ele>1553.98</ele>
        <time>2022-10-19T11:14:44.711Z</time>
      </trkpt>
      <trkpt lat="45.07897" lon="2.63109">
        <ele>1554.97</ele>
        <time>2022-10-19T11:14:54.000Z</time>
      </trkpt>
      <trkpt lat="45.079" lon="2.63121">
        <ele>1555.98</ele>
        <time>2022-10-19T11:15:03.212Z</time>
      </trkpt>
      <trkpt lat="45.07906" lon="2.63125">
        <ele>1554.98</ele>
        <time>2022-10-19T11:15:13.000Z</time>
      </trkpt>
      <trkpt lat="45.07909" lon="2.63134">
        <ele>1554.97</ele>
        <time>2022-10-19T11:15:22.550Z</time>
      </trkpt>
      <trkpt lat="45.07912" lon="2.63139">
        <ele>1554.98</ele>
        <time>2022-10-19T11:15:31.780Z</time>
      </trkpt>
      <trkpt lat="45.07917" lon="2.63151">
        <ele>1552.98</ele>
        <time>2022-10-19T11:15:41.020Z</time>
      </trkpt>
      <trkpt lat="45.07924" lon="2.63158">
        <ele>1552.98</ele>
        <time>2022-10-19T11:15:50.291Z</time>
      </trkpt>
      <trkpt lat="45.07929" lon="2.63165">
        <ele>1553.98</ele>
        <time>2022-10-19T11:16:00.000Z</time>
      </trkpt>
      <trkpt lat="45.07933" lon="2.63169">
        <ele>1553.98</ele>
        <time>2022-10-19T11:16:09.171Z</time>
      </trkpt>
      <trkpt lat="45.07931" lon="2.63174">
        <ele>1555.98</ele>
        <time>2022-10-19T11:16:18.282Z</time>
      </trkpt>
      <trkpt lat="45.0793" lon="2.63178">
        <ele>1556.98</ele>
        <time>2022-10-19T11:16:27.402Z</time>
      </trkpt>
      <trkpt lat="45.07929" lon="2.63182">
        <ele>1558.98</ele>
        <time>2022-10-19T11:16:37.000Z</time>
      </trkpt>
      <trkpt lat="45.07928" lon="2.63186">
        <ele>1559.98</ele>
        <time>2022-10-19T11:16:46.274Z</time>
      </trkpt>
      <trkpt lat="45.0793" lon="2.6319">
        <ele>1560.98</ele>
        <time>2022-10-19T11:16:55.293Z</time>
      </trkpt>
      <trkpt lat="45.07933" lon="2.63198">
        <ele>1561.98</ele>
        <time>2022-10-19T11:17:05.000Z</time>
      </trkpt>
      <trkpt lat="45.07931" lon="2.63206">
        <ele>1563.73</ele>
        <time>2022-10-19T11:17:14.540Z</time>
      </trkpt>
      <trkpt lat="45.07935" lon="2.63209">
        <ele>1563.98</ele>
        <time>2022-10-19T11:17:23.594Z</time>
      </trkpt>
      <trkpt lat="45.07938" lon="2.63215">
        <ele>1565.73</ele>
        <time>2022-10-19T11:17:33.000Z</time>
      </trkpt>
      <trkpt lat="45.0794" lon="2.63221">
        <ele>1566.92</ele>
        <time>2022-10-19T11:17:43.000Z</time>
      </trkpt>
      <trkpt lat="45.07942" lon="2.63226">
        <ele>1565.98</ele>
        <time>2022-10-19T11:17:52.252Z</time>
      </trkpt>
      <trkpt lat="45.07943" lon="2.63233">
        <ele>1567.04</ele>
        <time>2022-10-19T11:18:01.740Z</time>
      </trkpt>
      <trkpt lat="45.07946" lon="2.63237">
        <ele>1568.98</ele>
        <time>2022-10-19T11:18:11.511Z</time>
      </trkpt>
      <trkpt lat="45.07948" lon="2.63241">
        <ele>1569.96</ele>
        <time>2022-10-19T11:18:21.000Z</time>
      </trkpt>
      <trkpt lat="45.0795" lon="2.63247">
        <ele>1569.23</ele>
        <time>2022-10-19T11:18:30.552Z</time>
      </trkpt>
      <trkpt lat="45.07953" lon="2.63252">
        <ele>1570.73</ele>
        <time>2022-10-19T11:18:39.711Z</time>
      </trkpt>
      <trkpt lat="45.07957" lon="2.63257">
        <ele>1571.98</ele>
        <time>2022-10-19T11:18:49.000Z</time>
      </trkpt>
      <trkpt lat="45.07961" lon="2.63262">
        <ele>1570.98</ele>
        <time>2022-10-19T11:18:58.071Z</time>
      </trkpt>
      <trkpt lat="45.07968" lon="2.63271">
        <ele>1569.98</ele>
        <time>2022-10-19T11:19:07.530Z</time>
      </trkpt>
      <trkpt lat="45.07971" lon="2.63282">
        <ele>1569.98</ele>
        <time>2022-10-19T11:19:16.601Z</time>
      </trkpt>
      <trkpt lat="45.0798" lon="2.63287">
        <ele>1569.98</ele>
        <time>2022-10-19T11:19:25.791Z</time>
      </trkpt>
      <trkpt lat="45.07987" lon="2.63295">
        <ele>1570.74</ele>
        <time>2022-10-19T11:19:35.550Z</time>
      </trkpt>
      <trkpt lat="45.07994" lon="2.63297">
        <ele>1570.96</ele>
        <time>2022-10-19T11:19:44.582Z</time>
      </trkpt>
      <trkpt lat="45.07996" lon="2.63306">
        <ele>1572.73</ele>
        <time>2022-10-19T11:19:54.000Z</time>
      </trkpt>
      <trkpt lat="45.08001" lon="2.63307">
        <ele>1571.98</ele>
        <time>2022-10-19T11:20:03.444Z</time>
      </trkpt>
      <trkpt lat="45.08005" lon="2.63319">
        <ele>1571.98</ele>
        <time>2022-10-19T11:20:12.571Z</time>
      </trkpt>
      <trkpt lat="45.08011" lon="2.63326">
        <ele>1571.99</ele>
        <time>2022-10-19T11:20:21.703Z</time>
      </trkpt>
      <trkpt lat="45.08018" lon="2.63331">
        <ele>1570.98</ele>
        <time>2022-10-19T11:20:30.716Z</time>
      </trkpt>
      <trkpt lat="45.08024" lon="2.63337">
        <ele>1569.98</ele>
        <time>2022-10-19T11:20:40.000Z</time>
      </trkpt>
      <trkpt lat="45.08033" lon="2.63344">
        <ele>1569.97</ele>
        <time>2022-10-19T11:20:49.271Z</time>
      </trkpt>
      <trkpt lat="45.08042" lon="2.63352">
        <ele>1568.98</ele>
        <time>2022-10-19T11:20:58.445Z</time>
      </trkpt>
      <trkpt lat="45.08048" lon="2.63362">
        <ele>1566.98</ele>
        <time>2022-10-19T11:21:07.651Z</time>
      </trkpt>
      <trkpt lat="45.08057" lon="2.6337">
        <ele>1565.98</ele>
        <time>2022-10-19T11:21:16.780Z</time>
      </trkpt>
      <trkpt lat="45.08067" lon="2.63377">
        <ele>1564.98</ele>
        <time>2022-10-19T11:21:26.161Z</time>
      </trkpt>
      <trkpt lat="45.08076" lon="2.63385">
        <ele>1564.98</ele>
        <time>2022-10-19T11:21:35.451Z</time>
      </trkpt>
      <trkpt lat="45.08083" lon="2.63395">
        <ele>1563.99</ele>
        <time>2022-10-19T11:21:45.000Z</time>
      </trkpt>
      <trkpt lat="45.08091" lon="2.63406">
        <ele>1563.98</ele>
        <time>2022-10-19T11:21:54.112Z</time>
      </trkpt>
      <trkpt lat="45.08098" lon="2.63417">
        <ele>1563.98</ele>
        <time>2022-10-19T11:22:03.292Z</time>
      </trkpt>
      <trkpt lat="45.08104" lon="2.63427">
        <ele>1564.98</ele>
        <time>2022-10-19T11:22:12.390Z</time>
      </trkpt>
      <trkpt lat="45.08112" lon="2.63438">
        <ele>1564.98</ele>
        <time>2022-10-19T11:22:21.751Z</time>
      </trkpt>
      <trkpt lat="45.08119" lon="2.6345">
        <ele>1563.98</ele>
        <time>2022-10-19T11:22:31.670Z</time>
      </trkpt>
      <trkpt lat="45.08127" lon="2.6346">
        <ele>1563.98</ele>
        <time>2022-10-19T11:22:41.132Z</time>
      </trkpt>
      <trkpt lat="45.08132" lon="2.63472">
        <ele>1563.99</ele>
        <time>2022-10-19T11:22:50.691Z</time>
      </trkpt>
      <trkpt lat="45.08139" lon="2.63479">
        <ele>1562.98</ele>
        <time>2022-10-19T11:22:59.751Z</time>
      </trkpt>
      <trkpt lat="45.08147" lon="2.63486">
        <ele>1561.22</ele>
        <time>2022-10-19T11:23:09.701Z</time>
      </trkpt>
      <trkpt lat="45.08146" lon="2.63486">
        <ele>1562.97</ele>
        <time>2022-10-19T11:23:22.000Z</time>
      </trkpt>
      <trkpt lat="45.08147" lon="2.63486">
        <ele>1562.22</ele>
        <time>2022-10-19T11:23:53.000Z</time>
      </trkpt>
      <trkpt lat="45.08149" lon="2.63487">
        <ele>1561.99</ele>
        <time>2022-10-19T11:24:02.030Z</time>
      </trkpt>
      <trkpt lat="45.08156" lon="2.63491">
        <ele>1560.98</ele>
        <time>2022-10-19T11:24:11.132Z</time>
      </trkpt>
      <trkpt lat="45.08157" lon="2.63491">
        <ele>1560.97</ele>
        <time>2022-10-19T11:24:20.311Z</time>
      </trkpt>
      <trkpt lat="45.08163" lon="2.635">
        <ele>1560.97</ele>
        <time>2022-10-19T11:24:29.661Z</time>
      </trkpt>
      <trkpt lat="45.08164" lon="2.63504">
        <ele>1559.97</ele>
        <time>2022-10-19T11:24:39.000Z</time>
      </trkpt>
      <trkpt lat="45.08167" lon="2.63505">
        <ele>1557.99</ele>
        <time>2022-10-19T11:24:48.572Z</time>
      </trkpt>
      <trkpt lat="45.08169" lon="2.63506">
        <ele>1558.97</ele>
        <time>2022-10-19T11:24:58.000Z</time>
      </trkpt>
      <trkpt lat="45.0817" lon="2.63505">
        <ele>1558.97</ele>
        <time>2022-10-19T11:25:37.000Z</time>
      </trkpt>
      <trkpt lat="45.08171" lon="2.63501">
        <ele>1558.22</ele>
        <time>2022-10-19T11:25:47.000Z</time>
      </trkpt>
      <trkpt lat="45.08172" lon="2.63498">
        <ele>1556.24</ele>
        <time>2022-10-19T11:25:57.000Z</time>
      </trkpt>
      <trkpt lat="45.08174" lon="2.63499">
        <ele>1555.97</ele>
        <time>2022-10-19T11:26:06.612Z</time>
      </trkpt>
      <trkpt lat="45.08178" lon="2.63505">
        <ele>1555.97</ele>
        <time>2022-10-19T11:26:16.131Z</time>
      </trkpt>
      <trkpt lat="45.08179" lon="2.63517">
        <ele>1556.97</ele>
        <time>2022-10-19T11:26:25.330Z</time>
      </trkpt>
      <trkpt lat="45.08177" lon="2.63521">
        <ele>1557.97</ele>
        <time>2022-10-19T11:26:35.000Z</time>
      </trkpt>
      <trkpt lat="45.08179" lon="2.63529">
        <ele>1559.97</ele>
        <time>2022-10-19T11:26:44.731Z</time>
      </trkpt>
      <trkpt lat="45.08181" lon="2.63535">
        <ele>1560.97</ele>
        <time>2022-10-19T11:26:55.000Z</time>
      </trkpt>
      <trkpt lat="45.08182" lon="2.63541">
        <ele>1560.97</ele>
        <time>2022-10-19T11:27:04.571Z</time>
      </trkpt>
      <trkpt lat="45.08185" lon="2.6355">
        <ele>1560.99</ele>
        <time>2022-10-19T11:27:13.760Z</time>
      </trkpt>
      <trkpt lat="45.08187" lon="2.63558">
        <ele>1560.97</ele>
        <time>2022-10-19T11:27:23.394Z</time>
      </trkpt>
      <trkpt lat="45.0819" lon="2.63566">
        <ele>1561.97</ele>
        <time>2022-10-19T11:27:32.592Z</time>
      </trkpt>
      <trkpt lat="45.08193" lon="2.63575">
        <ele>1561.97</ele>
        <time>2022-10-19T11:27:42.212Z</time>
      </trkpt>
      <trkpt lat="45.08193" lon="2.63582">
        <ele>1562.78</ele>
        <time>2022-10-19T11:27:52.000Z</time>
      </trkpt>
      <trkpt lat="45.08191" lon="2.6359">
        <ele>1562.97</ele>
        <time>2022-10-19T11:28:01.351Z</time>
      </trkpt>
      <trkpt lat="45.08187" lon="2.63597">
        <ele>1562.97</ele>
        <time>2022-10-19T11:28:10.732Z</time>
      </trkpt>
      <trkpt lat="45.08185" lon="2.636">
        <ele>1563.97</ele>
        <time>2022-10-19T11:28:20.000Z</time>
      </trkpt>
      <trkpt lat="45.08184" lon="2.63609">
        <ele>1565.97</ele>
        <time>2022-10-19T11:28:30.000Z</time>
      </trkpt>
      <trkpt lat="45.08183" lon="2.63616">
        <ele>1567.96</ele>
        <time>2022-10-19T11:28:39.111Z</time>
      </trkpt>
      <trkpt lat="45.08184" lon="2.63622">
        <ele>1568.97</ele>
        <time>2022-10-19T11:28:48.131Z</time>
      </trkpt>
      <trkpt lat="45.08185" lon="2.6363">
        <ele>1570.97</ele>
        <time>2022-10-19T11:28:57.211Z</time>
      </trkpt>
      <trkpt lat="45.08189" lon="2.63641">
        <ele>1571.97</ele>
        <time>2022-10-19T11:29:06.351Z</time>
      </trkpt>
      <trkpt lat="45.08191" lon="2.63652">
        <ele>1571.97</ele>
        <time>2022-10-19T11:29:15.450Z</time>
      </trkpt>
      <trkpt lat="45.08189" lon="2.63662">
        <ele>1571.97</ele>
        <time>2022-10-19T11:29:24.591Z</time>
      </trkpt>
      <trkpt lat="45.0819" lon="2.63669">
        <ele>1573.72</ele>
        <time>2022-10-19T11:29:34.000Z</time>
      </trkpt>
      <trkpt lat="45.08193" lon="2.63678">
        <ele>1574.72</ele>
        <time>2022-10-19T11:29:43.222Z</time>
      </trkpt>
      <trkpt lat="45.08195" lon="2.63687">
        <ele>1575.97</ele>
        <time>2022-10-19T11:29:53.000Z</time>
      </trkpt>
      <trkpt lat="45.08195" lon="2.63695">
        <ele>1576.97</ele>
        <time>2022-10-19T11:30:02.711Z</time>
      </trkpt>
      <trkpt lat="45.082" lon="2.63702">
        <ele>1576.97</ele>
        <time>2022-10-19T11:30:12.371Z</time>
      </trkpt>
      <trkpt lat="45.08206" lon="2.6371">
        <ele>1578.72</ele>
        <time>2022-10-19T11:30:22.071Z</time>
      </trkpt>
      <trkpt lat="45.0821" lon="2.6372">
        <ele>1579.91</ele>
        <time>2022-10-19T11:30:31.741Z</time>
      </trkpt>
      <trkpt lat="45.08215" lon="2.63726">
        <ele>1580.72</ele>
        <time>2022-10-19T11:30:41.000Z</time>
      </trkpt>
      <trkpt lat="45.08216" lon="2.63731">
        <ele>1581.96</ele>
        <time>2022-10-19T11:30:50.760Z</time>
      </trkpt>
      <trkpt lat="45.0822" lon="2.63737">
        <ele>1582.78</ele>
        <time>2022-10-19T11:31:00.131Z</time>
      </trkpt>
      <trkpt lat="45.08221" lon="2.63743">
        <ele>1584.72</ele>
        <time>2022-10-19T11:31:09.391Z</time>
      </trkpt>
      <trkpt lat="45.0822" lon="2.63751">
        <ele>1585.97</ele>
        <time>2022-10-19T11:31:19.000Z</time>
      </trkpt>
      <trkpt lat="45.08221" lon="2.63759">
        <ele>1586.97</ele>
        <time>2022-10-19T11:31:29.000Z</time>
      </trkpt>
      <trkpt lat="45.08228" lon="2.63763">
        <ele>1586.97</ele>
        <time>2022-10-19T11:31:38.460Z</time>
      </trkpt>
      <trkpt lat="45.08239" lon="2.63766">
        <ele>1586.22</ele>
        <time>2022-10-19T11:31:48.000Z</time>
      </trkpt>
      <trkpt lat="45.08243" lon="2.6377">
        <ele>1587.96</ele>
        <time>2022-10-19T11:31:57.332Z</time>
      </trkpt>
      <trkpt lat="45.08247" lon="2.63775">
        <ele>1587.97</ele>
        <time>2022-10-19T11:32:06.631Z</time>
      </trkpt>
      <trkpt lat="45.0825" lon="2.63786">
        <ele>1588.97</ele>
        <time>2022-10-19T11:32:16.760Z</time>
      </trkpt>
      <trkpt lat="45.08252" lon="2.63797">
        <ele>1589.97</ele>
        <time>2022-10-19T11:32:26.172Z</time>
      </trkpt>
      <trkpt lat="45.08259" lon="2.63807">
        <ele>1589.97</ele>
        <time>2022-10-19T11:32:35.570Z</time>
      </trkpt>
      <trkpt lat="45.08264" lon="2.63817">
        <ele>1588.97</ele>
        <time>2022-10-19T11:32:44.631Z</time>
      </trkpt>
      <trkpt lat="45.08269" lon="2.63831">
        <ele>1589.97</ele>
        <time>2022-10-19T11:32:54.735Z</time>
      </trkpt>
      <trkpt lat="45.08276" lon="2.63839">
        <ele>1589.96</ele>
        <time>2022-10-19T11:33:04.352Z</time>
      </trkpt>
      <trkpt lat="45.08279" lon="2.6385">
        <ele>1590.01</ele>
        <time>2022-10-19T11:33:13.480Z</time>
      </trkpt>
      <trkpt lat="45.08286" lon="2.63863">
        <ele>1589.97</ele>
        <time>2022-10-19T11:33:22.612Z</time>
      </trkpt>
      <trkpt lat="45.08293" lon="2.63872">
        <ele>1589.96</ele>
        <time>2022-10-19T11:33:31.735Z</time>
      </trkpt>
      <trkpt lat="45.08301" lon="2.63878">
        <ele>1588.03</ele>
        <time>2022-10-19T11:33:41.611Z</time>
      </trkpt>
      <trkpt lat="45.08305" lon="2.63886">
        <ele>1588.97</ele>
        <time>2022-10-19T11:33:51.000Z</time>
      </trkpt>
      <trkpt lat="45.0831" lon="2.6389">
        <ele>1588.97</ele>
        <time>2022-10-19T11:34:01.000Z</time>
      </trkpt>
      <trkpt lat="45.08314" lon="2.63894">
        <ele>1587.97</ele>
        <time>2022-10-19T11:34:11.000Z</time>
      </trkpt>
      <trkpt lat="45.0832" lon="2.63902">
        <ele>1586.97</ele>
        <time>2022-10-19T11:34:20.272Z</time>
      </trkpt>
      <trkpt lat="45.08324" lon="2.63906">
        <ele>1586.03</ele>
        <time>2022-10-19T11:34:29.591Z</time>
      </trkpt>
      <trkpt lat="45.08326" lon="2.63913">
        <ele>1584.98</ele>
        <time>2022-10-19T11:34:40.000Z</time>
      </trkpt>
      <trkpt lat="45.08329" lon="2.63922">
        <ele>1583.97</ele>
        <time>2022-10-19T11:34:49.491Z</time>
      </trkpt>
      <trkpt lat="45.08334" lon="2.63933">
        <ele>1583.97</ele>
        <time>2022-10-19T11:34:58.671Z</time>
      </trkpt>
      <trkpt lat="45.08337" lon="2.63944">
        <ele>1585.2</ele>
        <time>2022-10-19T11:35:08.273Z</time>
      </trkpt>
      <trkpt lat="45.0834" lon="2.63956">
        <ele>1584.03</ele>
        <time>2022-10-19T11:35:17.541Z</time>
      </trkpt>
      <trkpt lat="45.08344" lon="2.63964">
        <ele>1582.97</ele>
        <time>2022-10-19T11:35:26.572Z</time>
      </trkpt>
      <trkpt lat="45.08349" lon="2.63971">
        <ele>1581.9</ele>
        <time>2022-10-19T11:35:36.000Z</time>
      </trkpt>
      <trkpt lat="45.08353" lon="2.63977">
        <ele>1581.03</ele>
        <time>2022-10-19T11:35:45.611Z</time>
      </trkpt>
      <trkpt lat="45.08358" lon="2.63987">
        <ele>1579.96</ele>
        <time>2022-10-19T11:35:55.042Z</time>
      </trkpt>
      <trkpt lat="45.08359" lon="2.63999">
        <ele>1579.96</ele>
        <time>2022-10-19T11:36:04.371Z</time>
      </trkpt>
      <trkpt lat="45.08361" lon="2.64011">
        <ele>1579.96</ele>
        <time>2022-10-19T11:36:13.591Z</time>
      </trkpt>
      <trkpt lat="45.08365" lon="2.64025">
        <ele>1577.98</ele>
        <time>2022-10-19T11:36:23.450Z</time>
      </trkpt>
      <trkpt lat="45.08369" lon="2.64035">
        <ele>1575.97</ele>
        <time>2022-10-19T11:36:32.560Z</time>
      </trkpt>
      <trkpt lat="45.08375" lon="2.64044">
        <ele>1574.78</ele>
        <time>2022-10-19T11:36:42.000Z</time>
      </trkpt>
      <trkpt lat="45.0838" lon="2.64054">
        <ele>1573.03</ele>
        <time>2022-10-19T11:36:51.591Z</time>
      </trkpt>
      <trkpt lat="45.08383" lon="2.64066">
        <ele>1571.03</ele>
        <time>2022-10-19T11:37:00.612Z</time>
      </trkpt>
      <trkpt lat="45.08388" lon="2.64071">
        <ele>1568.96</ele>
        <time>2022-10-19T11:37:09.931Z</time>
      </trkpt>
      <trkpt lat="45.0839" lon="2.64084">
        <ele>1568.96</ele>
        <time>2022-10-19T11:37:20.000Z</time>
      </trkpt>
      <trkpt lat="45.08393" lon="2.64095">
        <ele>1567.97</ele>
        <time>2022-10-19T11:37:29.192Z</time>
      </trkpt>
      <trkpt lat="45.08396" lon="2.64103">
        <ele>1566.96</ele>
        <time>2022-10-19T11:37:38.572Z</time>
      </trkpt>
      <trkpt lat="45.08397" lon="2.64115">
        <ele>1565.96</ele>
        <time>2022-10-19T11:37:47.711Z</time>
      </trkpt>
      <trkpt lat="45.08401" lon="2.64128">
        <ele>1563.96</ele>
        <time>2022-10-19T11:37:57.725Z</time>
      </trkpt>
      <trkpt lat="45.08404" lon="2.64141">
        <ele>1563.96</ele>
        <time>2022-10-19T11:38:07.000Z</time>
      </trkpt>
      <trkpt lat="45.08407" lon="2.64152">
        <ele>1563.21</ele>
        <time>2022-10-19T11:38:16.151Z</time>
      </trkpt>
      <trkpt lat="45.08409" lon="2.64164">
        <ele>1562.96</ele>
        <time>2022-10-19T11:38:25.700Z</time>
      </trkpt>
      <trkpt lat="45.08413" lon="2.64176">
        <ele>1561.96</ele>
        <time>2022-10-19T11:38:35.000Z</time>
      </trkpt>
      <trkpt lat="45.08415" lon="2.64187">
        <ele>1561.96</ele>
        <time>2022-10-19T11:38:44.071Z</time>
      </trkpt>
      <trkpt lat="45.08423" lon="2.64196">
        <ele>1559.96</ele>
        <time>2022-10-19T11:38:53.351Z</time>
      </trkpt>
      <trkpt lat="45.08428" lon="2.64207">
        <ele>1558.02</ele>
        <time>2022-10-19T11:39:02.712Z</time>
      </trkpt>
      <trkpt lat="45.08435" lon="2.64219">
        <ele>1557.02</ele>
        <time>2022-10-19T11:39:12.131Z</time>
      </trkpt>
      <trkpt lat="45.08442" lon="2.6423">
        <ele>1555.96</ele>
        <time>2022-10-19T11:39:21.139Z</time>
      </trkpt>
      <trkpt lat="45.08449" lon="2.6424">
        <ele>1554.96</ele>
        <time>2022-10-19T11:39:30.532Z</time>
      </trkpt>
      <trkpt lat="45.08454" lon="2.64247">
        <ele>1554.96</ele>
        <time>2022-10-19T11:39:40.000Z</time>
      </trkpt>
      <trkpt lat="45.08459" lon="2.64255">
        <ele>1554.96</ele>
        <time>2022-10-19T11:39:49.571Z</time>
      </trkpt>
      <trkpt lat="45.08464" lon="2.64262">
        <ele>1553.96</ele>
        <time>2022-10-19T11:39:59.071Z</time>
      </trkpt>
      <trkpt lat="45.08465" lon="2.64263">
        <ele>1553.96</ele>
        <time>2022-10-19T11:40:09.611Z</time>
      </trkpt>
      <trkpt lat="45.08471" lon="2.64274">
        <ele>1553.96</ele>
        <time>2022-10-19T11:40:19.000Z</time>
      </trkpt>
      <trkpt lat="45.0847" lon="2.64274">
        <ele>1553.96</ele>
        <time>2022-10-19T11:40:34.000Z</time>
      </trkpt>
      <trkpt lat="45.08475" lon="2.6428">
        <ele>1553.96</ele>
        <time>2022-10-19T11:40:43.011Z</time>
      </trkpt>
      <trkpt lat="45.08482" lon="2.64292">
        <ele>1552.96</ele>
        <time>2022-10-19T11:40:52.450Z</time>
      </trkpt>
      <trkpt lat="45.08485" lon="2.64299">
        <ele>1552.96</ele>
        <time>2022-10-19T11:41:02.000Z</time>
      </trkpt>
      <trkpt lat="45.08486" lon="2.643">
        <ele>1552.96</ele>
        <time>2022-10-19T11:41:14.000Z</time>
      </trkpt>
      <trkpt lat="45.08487" lon="2.64303">
        <ele>1553.95</ele>
        <time>2022-10-19T11:41:24.000Z</time>
      </trkpt>
      <trkpt lat="45.08488" lon="2.64302">
        <ele>1552.96</ele>
        <time>2022-10-19T11:41:40.000Z</time>
      </trkpt>
      <trkpt lat="45.08491" lon="2.64306">
        <ele>1552.97</ele>
        <time>2022-10-19T11:41:49.632Z</time>
      </trkpt>
      <trkpt lat="45.08496" lon="2.64316">
        <ele>1552.96</ele>
        <time>2022-10-19T11:41:59.219Z</time>
      </trkpt>
      <trkpt lat="45.08504" lon="2.64326">
        <ele>1551.96</ele>
        <time>2022-10-19T11:42:08.734Z</time>
      </trkpt>
      <trkpt lat="45.0851" lon="2.64336">
        <ele>1551.95</ele>
        <time>2022-10-19T11:42:18.131Z</time>
      </trkpt>
      <trkpt lat="45.08515" lon="2.64346">
        <ele>1550.96</ele>
        <time>2022-10-19T11:42:27.351Z</time>
      </trkpt>
      <trkpt lat="45.08524" lon="2.64356">
        <ele>1548.96</ele>
        <time>2022-10-19T11:42:37.000Z</time>
      </trkpt>
      <trkpt lat="45.08531" lon="2.64367">
        <ele>1547.96</ele>
        <time>2022-10-19T11:42:46.012Z</time>
      </trkpt>
      <trkpt lat="45.08539" lon="2.64378">
        <ele>1546.96</ele>
        <time>2022-10-19T11:42:55.433Z</time>
      </trkpt>
      <trkpt lat="45.08546" lon="2.64387">
        <ele>1546.96</ele>
        <time>2022-10-19T11:43:04.736Z</time>
      </trkpt>
      <trkpt lat="45.08552" lon="2.644">
        <ele>1545.96</ele>
        <time>2022-10-19T11:43:14.000Z</time>
      </trkpt>
      <trkpt lat="45.08552" lon="2.64407">
        <ele>1545.96</ele>
        <time>2022-10-19T11:43:24.000Z</time>
      </trkpt>
      <trkpt lat="45.0855" lon="2.64408">
        <ele>1546.96</ele>
        <time>2022-10-19T11:43:34.000Z</time>
      </trkpt>
      <trkpt lat="45.0855" lon="2.64407">
        <ele>1547.96</ele>
        <time>2022-10-19T11:43:44.000Z</time>
      </trkpt>
      <trkpt lat="45.0855" lon="2.64406">
        <ele>1545.96</ele>
        <time>2022-10-19T11:44:16.000Z</time>
      </trkpt>
      <trkpt lat="45.08551" lon="2.64407">
        <ele>1545.96</ele>
        <time>2022-10-19T11:44:39.000Z</time>
      </trkpt>
      <trkpt lat="45.08551" lon="2.64408">
        <ele>1544.95</ele>
        <time>2022-10-19T12:04:54.632Z</time>
      </trkpt>
      <trkpt lat="45.08552" lon="2.64409">
        <ele>1543.97</ele>
        <time>2022-10-19T12:05:18.000Z</time>
      </trkpt>
      <trkpt lat="45.08559" lon="2.64413">
        <ele>1541.96</ele>
        <time>2022-10-19T12:05:27.445Z</time>
      </trkpt>
      <trkpt lat="45.08565" lon="2.64421">
        <ele>1538.96</ele>
        <time>2022-10-19T12:05:36.467Z</time>
      </trkpt>
      <trkpt lat="45.08575" lon="2.64424">
        <ele>1537.96</ele>
        <time>2022-10-19T12:05:45.737Z</time>
      </trkpt>
      <trkpt lat="45.08582" lon="2.64433">
        <ele>1536.96</ele>
        <time>2022-10-19T12:05:55.051Z</time>
      </trkpt>
      <trkpt lat="45.08592" lon="2.6444">
        <ele>1534.96</ele>
        <time>2022-10-19T12:06:04.173Z</time>
      </trkpt>
      <trkpt lat="45.08602" lon="2.64445">
        <ele>1533.96</ele>
        <time>2022-10-19T12:06:13.611Z</time>
      </trkpt>
      <trkpt lat="45.08612" lon="2.64449">
        <ele>1532.96</ele>
        <time>2022-10-19T12:06:22.974Z</time>
      </trkpt>
      <trkpt lat="45.08622" lon="2.64454">
        <ele>1531.97</ele>
        <time>2022-10-19T12:06:32.212Z</time>
      </trkpt>
      <trkpt lat="45.08632" lon="2.64456">
        <ele>1530.96</ele>
        <time>2022-10-19T12:06:41.591Z</time>
      </trkpt>
      <trkpt lat="45.08642" lon="2.64455">
        <ele>1530.95</ele>
        <time>2022-10-19T12:06:50.672Z</time>
      </trkpt>
      <trkpt lat="45.08653" lon="2.64456">
        <ele>1530.95</ele>
        <time>2022-10-19T12:07:00.171Z</time>
      </trkpt>
      <trkpt lat="45.08662" lon="2.64452">
        <ele>1530.97</ele>
        <time>2022-10-19T12:07:09.192Z</time>
      </trkpt>
      <trkpt lat="45.08673" lon="2.64451">
        <ele>1531.95</ele>
        <time>2022-10-19T12:07:19.000Z</time>
      </trkpt>
      <trkpt lat="45.08682" lon="2.64446">
        <ele>1531.97</ele>
        <time>2022-10-19T12:07:28.130Z</time>
      </trkpt>
      <trkpt lat="45.08691" lon="2.64441">
        <ele>1533.95</ele>
        <time>2022-10-19T12:07:37.191Z</time>
      </trkpt>
      <trkpt lat="45.08698" lon="2.64437">
        <ele>1533.95</ele>
        <time>2022-10-19T12:07:47.000Z</time>
      </trkpt>
      <trkpt lat="45.08708" lon="2.64433">
        <ele>1533.97</ele>
        <time>2022-10-19T12:07:56.252Z</time>
      </trkpt>
      <trkpt lat="45.08716" lon="2.64429">
        <ele>1534.95</ele>
        <time>2022-10-19T12:08:06.000Z</time>
      </trkpt>
      <trkpt lat="45.08724" lon="2.64424">
        <ele>1536.7</ele>
        <time>2022-10-19T12:08:15.472Z</time>
      </trkpt>
      <trkpt lat="45.08731" lon="2.64422">
        <ele>1536.95</ele>
        <time>2022-10-19T12:08:24.750Z</time>
      </trkpt>
      <trkpt lat="45.08737" lon="2.64419">
        <ele>1537.95</ele>
        <time>2022-10-19T12:08:34.301Z</time>
      </trkpt>
      <trkpt lat="45.08744" lon="2.64417">
        <ele>1538.7</ele>
        <time>2022-10-19T12:08:44.000Z</time>
      </trkpt>
      <trkpt lat="45.08745" lon="2.64416">
        <ele>1539.69</ele>
        <time>2022-10-19T12:08:55.000Z</time>
      </trkpt>
      <trkpt lat="45.0875" lon="2.6441">
        <ele>1542.69</ele>
        <time>2022-10-19T12:09:04.331Z</time>
      </trkpt>
      <trkpt lat="45.08755" lon="2.64406">
        <ele>1544.89</ele>
        <time>2022-10-19T12:09:14.000Z</time>
      </trkpt>
      <trkpt lat="45.08762" lon="2.64402">
        <ele>1545.95</ele>
        <time>2022-10-19T12:09:23.523Z</time>
      </trkpt>
      <trkpt lat="45.08767" lon="2.64398">
        <ele>1547.94</ele>
        <time>2022-10-19T12:09:32.771Z</time>
      </trkpt>
      <trkpt lat="45.0877" lon="2.64398">
        <ele>1548.95</ele>
        <time>2022-10-19T12:09:42.131Z</time>
      </trkpt>
      <trkpt lat="45.08775" lon="2.64398">
        <ele>1550.71</ele>
        <time>2022-10-19T12:09:52.000Z</time>
      </trkpt>
      <trkpt lat="45.0878" lon="2.64396">
        <ele>1552.89</ele>
        <time>2022-10-19T12:10:01.220Z</time>
      </trkpt>
      <trkpt lat="45.08783" lon="2.64395">
        <ele>1553.96</ele>
        <time>2022-10-19T12:10:11.000Z</time>
      </trkpt>
      <trkpt lat="45.08788" lon="2.64395">
        <ele>1553.96</ele>
        <time>2022-10-19T12:10:20.780Z</time>
      </trkpt>
      <trkpt lat="45.08792" lon="2.64391">
        <ele>1555.95</ele>
        <time>2022-10-19T12:10:30.000Z</time>
      </trkpt>
      <trkpt lat="45.08795" lon="2.64389">
        <ele>1557.71</ele>
        <time>2022-10-19T12:10:40.000Z</time>
      </trkpt>
      <trkpt lat="45.08798" lon="2.64388">
        <ele>1558.71</ele>
        <time>2022-10-19T12:10:50.000Z</time>
      </trkpt>
      <trkpt lat="45.08802" lon="2.64387">
        <ele>1559.95</ele>
        <time>2022-10-19T12:10:59.511Z</time>
      </trkpt>
      <trkpt lat="45.08806" lon="2.64386">
        <ele>1559.96</ele>
        <time>2022-10-19T12:11:09.000Z</time>
      </trkpt>
      <trkpt lat="45.08808" lon="2.64386">
        <ele>1560.89</ele>
        <time>2022-10-19T12:11:18.353Z</time>
      </trkpt>
      <trkpt lat="45.08811" lon="2.64386">
        <ele>1561.96</ele>
        <time>2022-10-19T12:11:28.000Z</time>
      </trkpt>
      <trkpt lat="45.08815" lon="2.64386">
        <ele>1562.96</ele>
        <time>2022-10-19T12:11:37.771Z</time>
      </trkpt>
      <trkpt lat="45.0882" lon="2.64386">
        <ele>1564.95</ele>
        <time>2022-10-19T12:11:47.311Z</time>
      </trkpt>
      <trkpt lat="45.08821" lon="2.64384">
        <ele>1564.96</ele>
        <time>2022-10-19T12:11:57.000Z</time>
      </trkpt>
      <trkpt lat="45.08825" lon="2.64384">
        <ele>1566.96</ele>
        <time>2022-10-19T12:12:06.530Z</time>
      </trkpt>
      <trkpt lat="45.08828" lon="2.64382">
        <ele>1568.95</ele>
        <time>2022-10-19T12:12:15.591Z</time>
      </trkpt>
      <trkpt lat="45.08833" lon="2.64381">
        <ele>1570.95</ele>
        <time>2022-10-19T12:12:25.510Z</time>
      </trkpt>
      <trkpt lat="45.08836" lon="2.6438">
        <ele>1571.95</ele>
        <time>2022-10-19T12:12:34.571Z</time>
      </trkpt>
      <trkpt lat="45.08841" lon="2.64378">
        <ele>1572.95</ele>
        <time>2022-10-19T12:12:44.000Z</time>
      </trkpt>
      <trkpt lat="45.08843" lon="2.64377">
        <ele>1573.96</ele>
        <time>2022-10-19T12:12:53.291Z</time>
      </trkpt>
      <trkpt lat="45.08846" lon="2.64376">
        <ele>1574.71</ele>
        <time>2022-10-19T12:13:03.000Z</time>
      </trkpt>
      <trkpt lat="45.08851" lon="2.64372">
        <ele>1575.95</ele>
        <time>2022-10-19T12:13:12.631Z</time>
      </trkpt>
      <trkpt lat="45.08854" lon="2.6437">
        <ele>1577.71</ele>
        <time>2022-10-19T12:13:22.000Z</time>
      </trkpt>
      <trkpt lat="45.08856" lon="2.64369">
        <ele>1578.71</ele>
        <time>2022-10-19T12:13:31.491Z</time>
      </trkpt>
      <trkpt lat="45.0886" lon="2.64367">
        <ele>1580.96</ele>
        <time>2022-10-19T12:13:41.000Z</time>
      </trkpt>
      <trkpt lat="45.08864" lon="2.64366">
        <ele>1581.95</ele>
        <time>2022-10-19T12:13:51.000Z</time>
      </trkpt>
      <trkpt lat="45.08865" lon="2.64365">
        <ele>1581.96</ele>
        <time>2022-10-19T12:14:00.091Z</time>
      </trkpt>
      <trkpt lat="45.08869" lon="2.64362">
        <ele>1583.94</ele>
        <time>2022-10-19T12:14:10.000Z</time>
      </trkpt>
      <trkpt lat="45.08872" lon="2.64359">
        <ele>1584.96</ele>
        <time>2022-10-19T12:14:19.491Z</time>
      </trkpt>
      <trkpt lat="45.08875" lon="2.64356">
        <ele>1586.19</ele>
        <time>2022-10-19T12:14:28.610Z</time>
      </trkpt>
      <trkpt lat="45.08878" lon="2.64361">
        <ele>1585.96</ele>
        <time>2022-10-19T12:14:38.000Z</time>
      </trkpt>
      <trkpt lat="45.08879" lon="2.64364">
        <ele>1586.95</ele>
        <time>2022-10-19T12:14:47.091Z</time>
      </trkpt>
      <trkpt lat="45.08881" lon="2.64364">
        <ele>1587.96</ele>
        <time>2022-10-19T12:14:56.291Z</time>
      </trkpt>
      <trkpt lat="45.0888" lon="2.64369">
        <ele>1589.95</ele>
        <time>2022-10-19T12:15:05.540Z</time>
      </trkpt>
      <trkpt lat="45.08882" lon="2.64376">
        <ele>1590.94</ele>
        <time>2022-10-19T12:15:14.731Z</time>
      </trkpt>
      <trkpt lat="45.08884" lon="2.64379">
        <ele>1591.94</ele>
        <time>2022-10-19T12:15:24.291Z</time>
      </trkpt>
      <trkpt lat="45.08882" lon="2.64385">
        <ele>1593.7</ele>
        <time>2022-10-19T12:15:34.000Z</time>
      </trkpt>
      <trkpt lat="45.08881" lon="2.64391">
        <ele>1595.7</ele>
        <time>2022-10-19T12:15:44.000Z</time>
      </trkpt>
      <trkpt lat="45.08881" lon="2.64394">
        <ele>1595.95</ele>
        <time>2022-10-19T12:15:53.270Z</time>
      </trkpt>
      <trkpt lat="45.08883" lon="2.64397">
        <ele>1595.94</ele>
        <time>2022-10-19T12:16:02.391Z</time>
      </trkpt>
      <trkpt lat="45.08886" lon="2.64398">
        <ele>1596.95</ele>
        <time>2022-10-19T12:16:12.000Z</time>
      </trkpt>
      <trkpt lat="45.0889" lon="2.64397">
        <ele>1598.95</ele>
        <time>2022-10-19T12:16:22.000Z</time>
      </trkpt>
      <trkpt lat="45.08893" lon="2.64399">
        <ele>1599.95</ele>
        <time>2022-10-19T12:16:32.000Z</time>
      </trkpt>
      <trkpt lat="45.08895" lon="2.64399">
        <ele>1599.95</ele>
        <time>2022-10-19T12:16:41.711Z</time>
      </trkpt>
      <trkpt lat="45.08896" lon="2.64404">
        <ele>1601.89</ele>
        <time>2022-10-19T12:16:51.000Z</time>
      </trkpt>
      <trkpt lat="45.089" lon="2.64405">
        <ele>1603.95</ele>
        <time>2022-10-19T12:17:00.450Z</time>
      </trkpt>
      <trkpt lat="45.08904" lon="2.644">
        <ele>1604.95</ele>
        <time>2022-10-19T12:17:11.000Z</time>
      </trkpt>
      <trkpt lat="45.08906" lon="2.64402">
        <ele>1604.7</ele>
        <time>2022-10-19T12:17:20.311Z</time>
      </trkpt>
      <trkpt lat="45.08908" lon="2.64405">
        <ele>1604.95</ele>
        <time>2022-10-19T12:17:30.000Z</time>
      </trkpt>
      <trkpt lat="45.0891" lon="2.64408">
        <ele>1606.94</ele>
        <time>2022-10-19T12:17:40.000Z</time>
      </trkpt>
      <trkpt lat="45.08917" lon="2.64408">
        <ele>1607.95</ele>
        <time>2022-10-19T12:17:49.381Z</time>
      </trkpt>
      <trkpt lat="45.08923" lon="2.64413">
        <ele>1610.89</ele>
        <time>2022-10-19T12:17:59.000Z</time>
      </trkpt>
      <trkpt lat="45.08929" lon="2.64414">
        <ele>1611.95</ele>
        <time>2022-10-19T12:18:08.530Z</time>
      </trkpt>
      <trkpt lat="45.08936" lon="2.64414">
        <ele>1612.95</ele>
        <time>2022-10-19T12:18:17.612Z</time>
      </trkpt>
      <trkpt lat="45.08944" lon="2.64413">
        <ele>1614.95</ele>
        <time>2022-10-19T12:18:27.000Z</time>
      </trkpt>
      <trkpt lat="45.08952" lon="2.64412">
        <ele>1614.95</ele>
        <time>2022-10-19T12:18:36.300Z</time>
      </trkpt>
      <trkpt lat="45.08961" lon="2.64411">
        <ele>1614.95</ele>
        <time>2022-10-19T12:18:45.391Z</time>
      </trkpt>
      <trkpt lat="45.08971" lon="2.64409">
        <ele>1614.95</ele>
        <time>2022-10-19T12:18:54.780Z</time>
      </trkpt>
      <trkpt lat="45.0898" lon="2.64405">
        <ele>1614.95</ele>
        <time>2022-10-19T12:19:03.993Z</time>
      </trkpt>
      <trkpt lat="45.08989" lon="2.64399">
        <ele>1615.95</ele>
        <time>2022-10-19T12:19:14.000Z</time>
      </trkpt>
      <trkpt lat="45.08997" lon="2.64395">
        <ele>1616.95</ele>
        <time>2022-10-19T12:19:23.271Z</time>
      </trkpt>
      <trkpt lat="45.09004" lon="2.64393">
        <ele>1616.95</ele>
        <time>2022-10-19T12:19:32.530Z</time>
      </trkpt>
      <trkpt lat="45.0901" lon="2.64389">
        <ele>1618.94</ele>
        <time>2022-10-19T12:19:41.671Z</time>
      </trkpt>
      <trkpt lat="45.09015" lon="2.64384">
        <ele>1620.89</ele>
        <time>2022-10-19T12:19:51.152Z</time>
      </trkpt>
      <trkpt lat="45.09019" lon="2.64381">
        <ele>1621.95</ele>
        <time>2022-10-19T12:20:00.771Z</time>
      </trkpt>
      <trkpt lat="45.09025" lon="2.64376">
        <ele>1622.95</ele>
        <time>2022-10-19T12:20:10.511Z</time>
      </trkpt>
      <trkpt lat="45.09029" lon="2.64371">
        <ele>1623.95</ele>
        <time>2022-10-19T12:20:19.571Z</time>
      </trkpt>
      <trkpt lat="45.09033" lon="2.64366">
        <ele>1625.89</ele>
        <time>2022-10-19T12:20:30.000Z</time>
      </trkpt>
      <trkpt lat="45.09037" lon="2.64363">
        <ele>1627.95</ele>
        <time>2022-10-19T12:20:39.580Z</time>
      </trkpt>
      <trkpt lat="45.09041" lon="2.6436">
        <ele>1627.95</ele>
        <time>2022-10-19T12:20:49.312Z</time>
      </trkpt>
      <trkpt lat="45.09042" lon="2.64355">
        <ele>1628.95</ele>
        <time>2022-10-19T12:20:58.591Z</time>
      </trkpt>
      <trkpt lat="45.09044" lon="2.6435">
        <ele>1627.95</ele>
        <time>2022-10-19T12:21:07.611Z</time>
      </trkpt>
      <trkpt lat="45.09047" lon="2.6435">
        <ele>1628.71</ele>
        <time>2022-10-19T12:21:17.000Z</time>
      </trkpt>
      <trkpt lat="45.09052" lon="2.64346">
        <ele>1629.95</ele>
        <time>2022-10-19T12:21:26.272Z</time>
      </trkpt>
      <trkpt lat="45.09058" lon="2.64345">
        <ele>1627.96</ele>
        <time>2022-10-19T12:21:35.781Z</time>
      </trkpt>
      <trkpt lat="45.09062" lon="2.64344">
        <ele>1626.95</ele>
        <time>2022-10-19T12:21:45.000Z</time>
      </trkpt>
      <trkpt lat="45.09066" lon="2.64341">
        <ele>1627.95</ele>
        <time>2022-10-19T12:21:54.271Z</time>
      </trkpt>
      <trkpt lat="45.0907" lon="2.64341">
        <ele>1629.89</ele>
        <time>2022-10-19T12:22:03.571Z</time>
      </trkpt>
      <trkpt lat="45.09074" lon="2.64338">
        <ele>1630.95</ele>
        <time>2022-10-19T12:22:13.000Z</time>
      </trkpt>
      <trkpt lat="45.09078" lon="2.64334">
        <ele>1634.89</ele>
        <time>2022-10-19T12:22:22.530Z</time>
      </trkpt>
      <trkpt lat="45.09081" lon="2.64332">
        <ele>1638.64</ele>
        <time>2022-10-19T12:22:32.000Z</time>
      </trkpt>
      <trkpt lat="45.09086" lon="2.64329">
        <ele>1640.95</ele>
        <time>2022-10-19T12:22:41.446Z</time>
      </trkpt>
      <trkpt lat="45.09089" lon="2.64325">
        <ele>1642.95</ele>
        <time>2022-10-19T12:22:51.000Z</time>
      </trkpt>
      <trkpt lat="45.09092" lon="2.64321">
        <ele>1643.95</ele>
        <time>2022-10-19T12:23:00.392Z</time>
      </trkpt>
      <trkpt lat="45.09095" lon="2.64316">
        <ele>1642.95</ele>
        <time>2022-10-19T12:23:10.000Z</time>
      </trkpt>
      <trkpt lat="45.09099" lon="2.64314">
        <ele>1643.95</ele>
        <time>2022-10-19T12:23:19.591Z</time>
      </trkpt>
      <trkpt lat="45.09102" lon="2.64312">
        <ele>1644.95</ele>
        <time>2022-10-19T12:23:29.373Z</time>
      </trkpt>
      <trkpt lat="45.09107" lon="2.64307">
        <ele>1645.95</ele>
        <time>2022-10-19T12:23:39.000Z</time>
      </trkpt>
      <trkpt lat="45.09108" lon="2.64304">
        <ele>1646.95</ele>
        <time>2022-10-19T12:23:49.000Z</time>
      </trkpt>
      <trkpt lat="45.09112" lon="2.64301">
        <ele>1648.7</ele>
        <time>2022-10-19T12:23:58.371Z</time>
      </trkpt>
      <trkpt lat="45.09114" lon="2.64299">
        <ele>1650.95</ele>
        <time>2022-10-19T12:24:07.571Z</time>
      </trkpt>
      <trkpt lat="45.09117" lon="2.64295">
        <ele>1653.89</ele>
        <time>2022-10-19T12:24:17.000Z</time>
      </trkpt>
      <trkpt lat="45.09121" lon="2.64293">
        <ele>1654.95</ele>
        <time>2022-10-19T12:24:27.000Z</time>
      </trkpt>
      <trkpt lat="45.09129" lon="2.6429">
        <ele>1655.95</ele>
        <time>2022-10-19T12:24:40.000Z</time>
      </trkpt>
      <trkpt lat="45.09132" lon="2.64288">
        <ele>1657.95</ele>
        <time>2022-10-19T12:24:51.000Z</time>
      </trkpt>
      <trkpt lat="45.09134" lon="2.64284">
        <ele>1657.95</ele>
        <time>2022-10-19T12:25:01.000Z</time>
      </trkpt>
      <trkpt lat="45.09139" lon="2.6428">
        <ele>1659.95</ele>
        <time>2022-10-19T12:25:11.000Z</time>
      </trkpt>
      <trkpt lat="45.09143" lon="2.64275">
        <ele>1660.94</ele>
        <time>2022-10-19T12:25:24.000Z</time>
      </trkpt>
      <trkpt lat="45.09147" lon="2.64274">
        <ele>1662.71</ele>
        <time>2022-10-19T12:25:35.000Z</time>
      </trkpt>
      <trkpt lat="45.0915" lon="2.64271">
        <ele>1663.96</ele>
        <time>2022-10-19T12:25:45.000Z</time>
      </trkpt>
      <trkpt lat="45.09153" lon="2.64271">
        <ele>1664.96</ele>
        <time>2022-10-19T12:25:55.000Z</time>
      </trkpt>
      <trkpt lat="45.09157" lon="2.6427">
        <ele>1666.94</ele>
        <time>2022-10-19T12:26:05.000Z</time>
      </trkpt>
      <trkpt lat="45.09161" lon="2.64268">
        <ele>1669.89</ele>
        <time>2022-10-19T12:26:15.000Z</time>
      </trkpt>
      <trkpt lat="45.09164" lon="2.64274">
        <ele>1670.7</ele>
        <time>2022-10-19T12:26:27.000Z</time>
      </trkpt>
      <trkpt lat="45.09167" lon="2.64273">
        <ele>1671.95</ele>
        <time>2022-10-19T12:26:37.000Z</time>
      </trkpt>
      <trkpt lat="45.09172" lon="2.64273">
        <ele>1674.95</ele>
        <time>2022-10-19T12:26:49.000Z</time>
      </trkpt>
      <trkpt lat="45.09176" lon="2.64272">
        <ele>1676.94</ele>
        <time>2022-10-19T12:26:59.000Z</time>
      </trkpt>
      <trkpt lat="45.0918" lon="2.64271">
        <ele>1678.7</ele>
        <time>2022-10-19T12:27:09.000Z</time>
      </trkpt>
      <trkpt lat="45.09186" lon="2.64268">
        <ele>1679.95</ele>
        <time>2022-10-19T12:27:20.000Z</time>
      </trkpt>
      <trkpt lat="45.09193" lon="2.64266">
        <ele>1681.95</ele>
        <time>2022-10-19T12:27:30.000Z</time>
      </trkpt>
      <trkpt lat="45.092" lon="2.64265">
        <ele>1683.95</ele>
        <time>2022-10-19T12:27:40.000Z</time>
      </trkpt>
      <trkpt lat="45.09208" lon="2.64264">
        <ele>1685.7</ele>
        <time>2022-10-19T12:27:50.000Z</time>
      </trkpt>
      <trkpt lat="45.09217" lon="2.64265">
        <ele>1685.95</ele>
        <time>2022-10-19T12:28:01.000Z</time>
      </trkpt>
      <trkpt lat="45.09226" lon="2.64266">
        <ele>1686.95</ele>
        <time>2022-10-19T12:28:10.672Z</time>
      </trkpt>
      <trkpt lat="45.09235" lon="2.64264">
        <ele>1686.95</ele>
        <time>2022-10-19T12:28:20.000Z</time>
      </trkpt>
      <trkpt lat="45.09245" lon="2.64266">
        <ele>1686.95</ele>
        <time>2022-10-19T12:28:29.534Z</time>
      </trkpt>
      <trkpt lat="45.09255" lon="2.64268">
        <ele>1687.95</ele>
        <time>2022-10-19T12:28:39.000Z</time>
      </trkpt>
      <trkpt lat="45.09265" lon="2.64269">
        <ele>1688.95</ele>
        <time>2022-10-19T12:28:48.563Z</time>
      </trkpt>
      <trkpt lat="45.09273" lon="2.64274">
        <ele>1688.95</ele>
        <time>2022-10-19T12:28:57.722Z</time>
      </trkpt>
      <trkpt lat="45.09282" lon="2.64281">
        <ele>1689.7</ele>
        <time>2022-10-19T12:29:07.863Z</time>
      </trkpt>
      <trkpt lat="45.09291" lon="2.64286">
        <ele>1689.95</ele>
        <time>2022-10-19T12:29:17.000Z</time>
      </trkpt>
      <trkpt lat="45.09301" lon="2.64291">
        <ele>1690.95</ele>
        <time>2022-10-19T12:29:26.550Z</time>
      </trkpt>
      <trkpt lat="45.09309" lon="2.64297">
        <ele>1691.95</ele>
        <time>2022-10-19T12:29:35.566Z</time>
      </trkpt>
      <trkpt lat="45.09319" lon="2.643">
        <ele>1692.89</ele>
        <time>2022-10-19T12:29:45.000Z</time>
      </trkpt>
      <trkpt lat="45.09329" lon="2.64303">
        <ele>1693.95</ele>
        <time>2022-10-19T12:29:54.549Z</time>
      </trkpt>
      <trkpt lat="45.09338" lon="2.64307">
        <ele>1693.95</ele>
        <time>2022-10-19T12:30:03.743Z</time>
      </trkpt>
      <trkpt lat="45.09348" lon="2.64313">
        <ele>1693.95</ele>
        <time>2022-10-19T12:30:13.000Z</time>
      </trkpt>
      <trkpt lat="45.09357" lon="2.6432">
        <ele>1693.95</ele>
        <time>2022-10-19T12:30:22.615Z</time>
      </trkpt>
      <trkpt lat="45.09364" lon="2.64329">
        <ele>1692.96</ele>
        <time>2022-10-19T12:30:32.000Z</time>
      </trkpt>
      <trkpt lat="45.09374" lon="2.64335">
        <ele>1692.95</ele>
        <time>2022-10-19T12:30:41.185Z</time>
      </trkpt>
      <trkpt lat="45.09385" lon="2.64334">
        <ele>1692.95</ele>
        <time>2022-10-19T12:30:50.743Z</time>
      </trkpt>
      <trkpt lat="45.09395" lon="2.64337">
        <ele>1692.02</ele>
        <time>2022-10-19T12:31:00.000Z</time>
      </trkpt>
      <trkpt lat="45.09406" lon="2.64342">
        <ele>1691.95</ele>
        <time>2022-10-19T12:31:09.765Z</time>
      </trkpt>
      <trkpt lat="45.09415" lon="2.64347">
        <ele>1692.89</ele>
        <time>2022-10-19T12:31:19.064Z</time>
      </trkpt>
      <trkpt lat="45.09424" lon="2.6435">
        <ele>1693.95</ele>
        <time>2022-10-19T12:31:28.893Z</time>
      </trkpt>
      <trkpt lat="45.09431" lon="2.64354">
        <ele>1694.95</ele>
        <time>2022-10-19T12:31:38.483Z</time>
      </trkpt>
      <trkpt lat="45.09439" lon="2.64358">
        <ele>1696.95</ele>
        <time>2022-10-19T12:31:47.822Z</time>
      </trkpt>
      <trkpt lat="45.09446" lon="2.6436">
        <ele>1697.95</ele>
        <time>2022-10-19T12:31:57.000Z</time>
      </trkpt>
      <trkpt lat="45.09452" lon="2.64366">
        <ele>1698.95</ele>
        <time>2022-10-19T12:32:06.443Z</time>
      </trkpt>
      <trkpt lat="45.09457" lon="2.6437">
        <ele>1700.7</ele>
        <time>2022-10-19T12:32:16.000Z</time>
      </trkpt>
      <trkpt lat="45.09461" lon="2.64375">
        <ele>1701.94</ele>
        <time>2022-10-19T12:32:25.561Z</time>
      </trkpt>
      <trkpt lat="45.09466" lon="2.64383">
        <ele>1703.94</ele>
        <time>2022-10-19T12:32:34.823Z</time>
      </trkpt>
      <trkpt lat="45.09469" lon="2.64388">
        <ele>1704.94</ele>
        <time>2022-10-19T12:32:44.344Z</time>
      </trkpt>
      <trkpt lat="45.09472" lon="2.64394">
        <ele>1706.7</ele>
        <time>2022-10-19T12:32:53.447Z</time>
      </trkpt>
      <trkpt lat="45.09474" lon="2.64399">
        <ele>1707.95</ele>
        <time>2022-10-19T12:33:03.203Z</time>
      </trkpt>
      <trkpt lat="45.09478" lon="2.64404">
        <ele>1709.89</ele>
        <time>2022-10-19T12:33:12.549Z</time>
      </trkpt>
      <trkpt lat="45.09482" lon="2.6441">
        <ele>1711.89</ele>
        <time>2022-10-19T12:33:22.000Z</time>
      </trkpt>
      <trkpt lat="45.09488" lon="2.64413">
        <ele>1713.95</ele>
        <time>2022-10-19T12:33:31.664Z</time>
      </trkpt>
      <trkpt lat="45.09493" lon="2.64419">
        <ele>1715.95</ele>
        <time>2022-10-19T12:33:42.000Z</time>
      </trkpt>
      <trkpt lat="45.09499" lon="2.64424">
        <ele>1716.95</ele>
        <time>2022-10-19T12:33:51.304Z</time>
      </trkpt>
      <trkpt lat="45.09503" lon="2.64431">
        <ele>1717.95</ele>
        <time>2022-10-19T12:34:00.862Z</time>
      </trkpt>
      <trkpt lat="45.09508" lon="2.64434">
        <ele>1718.95</ele>
        <time>2022-10-19T12:34:10.604Z</time>
      </trkpt>
      <trkpt lat="45.09515" lon="2.64438">
        <ele>1720.93</ele>
        <time>2022-10-19T12:34:19.686Z</time>
      </trkpt>
      <trkpt lat="45.0952" lon="2.64441">
        <ele>1721.2</ele>
        <time>2022-10-19T12:34:29.000Z</time>
      </trkpt>
      <trkpt lat="45.09524" lon="2.64442">
        <ele>1722.89</ele>
        <time>2022-10-19T12:34:38.602Z</time>
      </trkpt>
      <trkpt lat="45.09532" lon="2.64444">
        <ele>1722.93</ele>
        <time>2022-10-19T12:34:47.744Z</time>
      </trkpt>
      <trkpt lat="45.09542" lon="2.6445">
        <ele>1722.95</ele>
        <time>2022-10-19T12:34:57.000Z</time>
      </trkpt>
      <trkpt lat="45.09551" lon="2.64456">
        <ele>1722.95</ele>
        <time>2022-10-19T12:35:06.872Z</time>
      </trkpt>
      <trkpt lat="45.0956" lon="2.6446">
        <ele>1722.95</ele>
        <time>2022-10-19T12:35:16.262Z</time>
      </trkpt>
      <trkpt lat="45.09567" lon="2.64464">
        <ele>1723.95</ele>
        <time>2022-10-19T12:35:25.746Z</time>
      </trkpt>
      <trkpt lat="45.09576" lon="2.64467">
        <ele>1725.93</ele>
        <time>2022-10-19T12:35:35.425Z</time>
      </trkpt>
      <trkpt lat="45.09583" lon="2.64468">
        <ele>1727.95</ele>
        <time>2022-10-19T12:35:45.000Z</time>
      </trkpt>
      <trkpt lat="45.0959" lon="2.64471">
        <ele>1729.7</ele>
        <time>2022-10-19T12:35:54.684Z</time>
      </trkpt>
      <trkpt lat="45.09592" lon="2.64473">
        <ele>1729.95</ele>
        <time>2022-10-19T12:36:04.000Z</time>
      </trkpt>
      <trkpt lat="45.09601" lon="2.6447">
        <ele>1730.95</ele>
        <time>2022-10-19T12:36:13.653Z</time>
      </trkpt>
      <trkpt lat="45.0961" lon="2.64469">
        <ele>1731.95</ele>
        <time>2022-10-19T12:36:23.104Z</time>
      </trkpt>
      <trkpt lat="45.09619" lon="2.64469">
        <ele>1731.95</ele>
        <time>2022-10-19T12:36:32.612Z</time>
      </trkpt>
      <trkpt lat="45.09627" lon="2.64472">
        <ele>1732.95</ele>
        <time>2022-10-19T12:36:41.624Z</time>
      </trkpt>
      <trkpt lat="45.09633" lon="2.64478">
        <ele>1733.95</ele>
        <time>2022-10-19T12:36:51.243Z</time>
      </trkpt>
      <trkpt lat="45.09635" lon="2.64484">
        <ele>1733.95</ele>
        <time>2022-10-19T12:37:00.683Z</time>
      </trkpt>
      <trkpt lat="45.09637" lon="2.64487">
        <ele>1734.95</ele>
        <time>2022-10-19T12:37:09.696Z</time>
      </trkpt>
      <trkpt lat="45.09635" lon="2.64486">
        <ele>1734.95</ele>
        <time>2022-10-19T12:37:19.000Z</time>
      </trkpt>
      <trkpt lat="45.09635" lon="2.64485">
        <ele>1734.95</ele>
        <time>2022-10-19T12:37:29.000Z</time>
      </trkpt>
      <trkpt lat="45.09635" lon="2.64484">
        <ele>1734.2</ele>
        <time>2022-10-19T12:37:53.000Z</time>
      </trkpt>
      <trkpt lat="45.09636" lon="2.64484">
        <ele>1733.95</ele>
        <time>2022-10-19T12:41:15.000Z</time>
        <extensions>
          <visugpx:TrkExtension xmlns:visugpx="https://www.visugpx.com/editgpx/">
            <visugpx:node>1</visugpx:node>
            </visugpx:TrkExtension>
        </extensions>
      </trkpt>
      <trkpt lat="45.09632" lon="2.64484">
        <ele>1728.95</ele>
        <time>2022-10-19T12:48:41.000Z</time>
        <extensions>
          <visugpx:TrkExtension xmlns:visugpx="https://www.visugpx.com/editgpx/">
            <visugpx:node>2</visugpx:node>
            </visugpx:TrkExtension>
        </extensions>
      </trkpt>
      <trkpt lat="45.09633" lon="2.64485">
        <ele>1730.93</ele>
        <time>2022-10-19T12:48:53.000Z</time>
      </trkpt>
      <trkpt lat="45.09634" lon="2.64485">
        <ele>1728.96</ele>
        <time>2022-10-19T12:51:16.000Z</time>
      </trkpt>
      <trkpt lat="45.09635" lon="2.64485">
        <ele>1728.95</ele>
        <time>2022-10-19T12:51:53.000Z</time>
      </trkpt>
      <trkpt lat="45.09634" lon="2.64486">
        <ele>1731.95</ele>
        <time>2022-10-19T13:00:12.512Z</time>
      </trkpt>
      <trkpt lat="45.09637" lon="2.64486">
        <ele>1732.95</ele>
        <time>2022-10-19T13:00:22.000Z</time>
      </trkpt>
      <trkpt lat="45.09633" lon="2.64481">
        <ele>1732.95</ele>
        <time>2022-10-19T13:00:31.511Z</time>
      </trkpt>
      <trkpt lat="45.09628" lon="2.64475">
        <ele>1732.01</ele>
        <time>2022-10-19T13:00:42.000Z</time>
      </trkpt>
      <trkpt lat="45.09626" lon="2.64472">
        <ele>1731.95</ele>
        <time>2022-10-19T13:00:52.000Z</time>
      </trkpt>
      <trkpt lat="45.09625" lon="2.64473">
        <ele>1731.95</ele>
        <time>2022-10-19T13:01:02.000Z</time>
      </trkpt>
      <trkpt lat="45.09624" lon="2.64474">
        <ele>1731.95</ele>
        <time>2022-10-19T13:02:41.392Z</time>
      </trkpt>
      <trkpt lat="45.09614" lon="2.6447">
        <ele>1731.95</ele>
        <time>2022-10-19T13:02:50.511Z</time>
      </trkpt>
      <trkpt lat="45.09604" lon="2.64471">
        <ele>1731.76</ele>
        <time>2022-10-19T13:02:59.990Z</time>
      </trkpt>
      <trkpt lat="45.09595" lon="2.64472">
        <ele>1730.95</ele>
        <time>2022-10-19T13:03:09.493Z</time>
      </trkpt>
      <trkpt lat="45.09586" lon="2.64472">
        <ele>1730.76</ele>
        <time>2022-10-19T13:03:19.451Z</time>
      </trkpt>
      <trkpt lat="45.09583" lon="2.64472">
        <ele>1728.95</ele>
        <time>2022-10-19T13:03:29.000Z</time>
      </trkpt>
      <trkpt lat="45.09585" lon="2.64472">
        <ele>1728.95</ele>
        <time>2022-10-19T13:03:39.000Z</time>
      </trkpt>
      <trkpt lat="45.09586" lon="2.64472">
        <ele>1728.01</ele>
        <time>2022-10-19T13:03:52.000Z</time>
      </trkpt>
      <trkpt lat="45.09584" lon="2.64472">
        <ele>1728.95</ele>
        <time>2022-10-19T13:04:01.152Z</time>
      </trkpt>
      <trkpt lat="45.09574" lon="2.64469">
        <ele>1727.95</ele>
        <time>2022-10-19T13:04:10.292Z</time>
      </trkpt>
      <trkpt lat="45.09567" lon="2.64467">
        <ele>1726.95</ele>
        <time>2022-10-19T13:04:20.000Z</time>
      </trkpt>
      <trkpt lat="45.09561" lon="2.64463">
        <ele>1725.95</ele>
        <time>2022-10-19T13:04:29.172Z</time>
      </trkpt>
      <trkpt lat="45.09552" lon="2.64459">
        <ele>1723.97</ele>
        <time>2022-10-19T13:04:39.372Z</time>
      </trkpt>
      <trkpt lat="45.09548" lon="2.64456">
        <ele>1722.95</ele>
        <time>2022-10-19T13:04:49.000Z</time>
      </trkpt>
      <trkpt lat="45.09541" lon="2.64453">
        <ele>1722.95</ele>
        <time>2022-10-19T13:04:58.153Z</time>
      </trkpt>
      <trkpt lat="45.09539" lon="2.64451">
        <ele>1722.95</ele>
        <time>2022-10-19T13:05:08.000Z</time>
      </trkpt>
      <trkpt lat="45.09528" lon="2.64447">
        <ele>1722.95</ele>
        <time>2022-10-19T13:05:17.471Z</time>
      </trkpt>
      <trkpt lat="45.0952" lon="2.6444">
        <ele>1721.95</ele>
        <time>2022-10-19T13:05:27.000Z</time>
      </trkpt>
      <trkpt lat="45.09518" lon="2.64438">
        <ele>1720.95</ele>
        <time>2022-10-19T13:05:37.000Z</time>
      </trkpt>
      <trkpt lat="45.09513" lon="2.64435">
        <ele>1719.95</ele>
        <time>2022-10-19T13:05:46.631Z</time>
      </trkpt>
      <trkpt lat="45.09507" lon="2.64431">
        <ele>1718.95</ele>
        <time>2022-10-19T13:05:56.332Z</time>
      </trkpt>
      <trkpt lat="45.09499" lon="2.64425">
        <ele>1717.95</ele>
        <time>2022-10-19T13:06:06.000Z</time>
      </trkpt>
      <trkpt lat="45.09493" lon="2.64423">
        <ele>1715.95</ele>
        <time>2022-10-19T13:06:15.173Z</time>
      </trkpt>
      <trkpt lat="45.09486" lon="2.64414">
        <ele>1714.97</ele>
        <time>2022-10-19T13:06:25.000Z</time>
      </trkpt>
      <trkpt lat="45.09478" lon="2.6441">
        <ele>1714.95</ele>
        <time>2022-10-19T13:06:34.151Z</time>
      </trkpt>
      <trkpt lat="45.09474" lon="2.64401">
        <ele>1712.01</ele>
        <time>2022-10-19T13:06:43.172Z</time>
      </trkpt>
      <trkpt lat="45.09469" lon="2.64392">
        <ele>1708.96</ele>
        <time>2022-10-19T13:06:53.000Z</time>
      </trkpt>
      <trkpt lat="45.09468" lon="2.6439">
        <ele>1708.95</ele>
        <time>2022-10-19T13:07:02.292Z</time>
      </trkpt>
      <trkpt lat="45.09462" lon="2.6438">
        <ele>1706.95</ele>
        <time>2022-10-19T13:07:11.453Z</time>
      </trkpt>
      <trkpt lat="45.09456" lon="2.64372">
        <ele>1704.95</ele>
        <time>2022-10-19T13:07:20.711Z</time>
      </trkpt>
      <trkpt lat="45.0945" lon="2.64365">
        <ele>1702.96</ele>
        <time>2022-10-19T13:07:29.991Z</time>
      </trkpt>
      <trkpt lat="45.09443" lon="2.64361">
        <ele>1701.95</ele>
        <time>2022-10-19T13:07:38.992Z</time>
      </trkpt>
      <trkpt lat="45.09442" lon="2.6436">
        <ele>1701.95</ele>
        <time>2022-10-19T13:07:48.000Z</time>
      </trkpt>
      <trkpt lat="45.09433" lon="2.64355">
        <ele>1700.95</ele>
        <time>2022-10-19T13:07:57.553Z</time>
      </trkpt>
      <trkpt lat="45.09423" lon="2.64351">
        <ele>1700.01</ele>
        <time>2022-10-19T13:08:06.611Z</time>
      </trkpt>
      <trkpt lat="45.09413" lon="2.64347">
        <ele>1698.95</ele>
        <time>2022-10-19T13:08:16.091Z</time>
      </trkpt>
      <trkpt lat="45.09403" lon="2.64341">
        <ele>1698.95</ele>
        <time>2022-10-19T13:08:25.152Z</time>
      </trkpt>
      <trkpt lat="45.09393" lon="2.64337">
        <ele>1699.71</ele>
        <time>2022-10-19T13:08:34.405Z</time>
      </trkpt>
      <trkpt lat="45.09382" lon="2.64334">
        <ele>1698.14</ele>
        <time>2022-10-19T13:08:43.532Z</time>
      </trkpt>
      <trkpt lat="45.09372" lon="2.64336">
        <ele>1697.95</ele>
        <time>2022-10-19T13:08:52.939Z</time>
      </trkpt>
      <trkpt lat="45.09363" lon="2.64327">
        <ele>1697.95</ele>
        <time>2022-10-19T13:09:02.531Z</time>
      </trkpt>
      <trkpt lat="45.09356" lon="2.64316">
        <ele>1697.95</ele>
        <time>2022-10-19T13:09:11.871Z</time>
      </trkpt>
      <trkpt lat="45.09345" lon="2.6431">
        <ele>1696.95</ele>
        <time>2022-10-19T13:09:21.114Z</time>
      </trkpt>
      <trkpt lat="45.09336" lon="2.64305">
        <ele>1696.95</ele>
        <time>2022-10-19T13:09:31.000Z</time>
      </trkpt>
      <trkpt lat="45.09325" lon="2.643">
        <ele>1696.95</ele>
        <time>2022-10-19T13:09:40.254Z</time>
      </trkpt>
      <trkpt lat="45.09322" lon="2.64299">
        <ele>1696.95</ele>
        <time>2022-10-19T13:09:50.000Z</time>
      </trkpt>
      <trkpt lat="45.09323" lon="2.64299">
        <ele>1696.95</ele>
        <time>2022-10-19T13:10:00.000Z</time>
      </trkpt>
      <trkpt lat="45.09321" lon="2.64299">
        <ele>1696.02</ele>
        <time>2022-10-19T13:10:18.000Z</time>
      </trkpt>
      <trkpt lat="45.09314" lon="2.64297">
        <ele>1694.97</ele>
        <time>2022-10-19T13:10:27.371Z</time>
      </trkpt>
      <trkpt lat="45.09305" lon="2.64291">
        <ele>1694.95</ele>
        <time>2022-10-19T13:10:37.000Z</time>
      </trkpt>
      <trkpt lat="45.09295" lon="2.64285">
        <ele>1693.95</ele>
        <time>2022-10-19T13:10:46.531Z</time>
      </trkpt>
      <trkpt lat="45.09285" lon="2.6428">
        <ele>1693.96</ele>
        <time>2022-10-19T13:10:55.952Z</time>
      </trkpt>
      <trkpt lat="45.09276" lon="2.64274">
        <ele>1691.97</ele>
        <time>2022-10-19T13:11:05.332Z</time>
      </trkpt>
      <trkpt lat="45.09274" lon="2.64275">
        <ele>1690.96</ele>
        <time>2022-10-19T13:11:15.000Z</time>
      </trkpt>
      <trkpt lat="45.09264" lon="2.64271">
        <ele>1690.95</ele>
        <time>2022-10-19T13:11:24.074Z</time>
      </trkpt>
      <trkpt lat="45.09265" lon="2.6427">
        <ele>1690.95</ele>
        <time>2022-10-19T13:11:36.000Z</time>
      </trkpt>
      <trkpt lat="45.09266" lon="2.6427">
        <ele>1690.02</ele>
        <time>2022-10-19T13:11:53.000Z</time>
      </trkpt>
      <trkpt lat="45.09267" lon="2.6427">
        <ele>1688.89</ele>
        <time>2022-10-19T13:14:22.391Z</time>
      </trkpt>
      <trkpt lat="45.09266" lon="2.64271">
        <ele>1688.95</ele>
        <time>2022-10-19T13:14:33.000Z</time>
      </trkpt>
      <trkpt lat="45.09262" lon="2.64271">
        <ele>1688.95</ele>
        <time>2022-10-19T13:14:43.000Z</time>
      </trkpt>
      <trkpt lat="45.0925" lon="2.64269">
        <ele>1688.95</ele>
        <time>2022-10-19T13:14:52.134Z</time>
      </trkpt>
      <trkpt lat="45.09239" lon="2.64265">
        <ele>1687.96</ele>
        <time>2022-10-19T13:15:01.312Z</time>
      </trkpt>
      <trkpt lat="45.09227" lon="2.64266">
        <ele>1686.95</ele>
        <time>2022-10-19T13:15:11.391Z</time>
      </trkpt>
      <trkpt lat="45.09216" lon="2.64265">
        <ele>1686.2</ele>
        <time>2022-10-19T13:15:21.491Z</time>
      </trkpt>
      <trkpt lat="45.09207" lon="2.64264">
        <ele>1684.96</ele>
        <time>2022-10-19T13:15:30.591Z</time>
      </trkpt>
      <trkpt lat="45.09199" lon="2.64264">
        <ele>1683.2</ele>
        <time>2022-10-19T13:15:40.000Z</time>
      </trkpt>
      <trkpt lat="45.09191" lon="2.64266">
        <ele>1681.96</ele>
        <time>2022-10-19T13:15:49.471Z</time>
      </trkpt>
      <trkpt lat="45.09184" lon="2.6427">
        <ele>1680.02</ele>
        <time>2022-10-19T13:15:58.712Z</time>
      </trkpt>
      <trkpt lat="45.09179" lon="2.64273">
        <ele>1677.21</ele>
        <time>2022-10-19T13:16:08.000Z</time>
      </trkpt>
      <trkpt lat="45.09171" lon="2.64274">
        <ele>1674.96</ele>
        <time>2022-10-19T13:16:17.591Z</time>
      </trkpt>
      <trkpt lat="45.09165" lon="2.64274">
        <ele>1672.97</ele>
        <time>2022-10-19T13:16:26.834Z</time>
      </trkpt>
      <trkpt lat="45.09159" lon="2.64276">
        <ele>1670.21</ele>
        <time>2022-10-19T13:16:36.356Z</time>
      </trkpt>
      <trkpt lat="45.09153" lon="2.64275">
        <ele>1668.96</ele>
        <time>2022-10-19T13:16:45.373Z</time>
      </trkpt>
      <trkpt lat="45.09148" lon="2.64276">
        <ele>1666.96</ele>
        <time>2022-10-19T13:16:55.072Z</time>
      </trkpt>
      <trkpt lat="45.09144" lon="2.64276">
        <ele>1664.96</ele>
        <time>2022-10-19T13:17:04.291Z</time>
      </trkpt>
      <trkpt lat="45.09142" lon="2.64279">
        <ele>1663.97</ele>
        <time>2022-10-19T13:17:13.590Z</time>
      </trkpt>
      <trkpt lat="45.09138" lon="2.6428">
        <ele>1662.02</ele>
        <time>2022-10-19T13:17:23.000Z</time>
      </trkpt>
      <trkpt lat="45.09133" lon="2.64285">
        <ele>1660.02</ele>
        <time>2022-10-19T13:17:32.610Z</time>
      </trkpt>
      <trkpt lat="45.09129" lon="2.6429">
        <ele>1657.97</ele>
        <time>2022-10-19T13:17:42.312Z</time>
      </trkpt>
      <trkpt lat="45.09123" lon="2.6429">
        <ele>1656.97</ele>
        <time>2022-10-19T13:17:52.150Z</time>
      </trkpt>
      <trkpt lat="45.09117" lon="2.64293">
        <ele>1654.96</ele>
        <time>2022-10-19T13:18:01.453Z</time>
      </trkpt>
      <trkpt lat="45.09112" lon="2.64298">
        <ele>1652.02</ele>
        <time>2022-10-19T13:18:11.000Z</time>
      </trkpt>
      <trkpt lat="45.09109" lon="2.64302">
        <ele>1648.96</ele>
        <time>2022-10-19T13:18:20.512Z</time>
      </trkpt>
      <trkpt lat="45.09106" lon="2.64306">
        <ele>1646.97</ele>
        <time>2022-10-19T13:18:29.790Z</time>
      </trkpt>
      <trkpt lat="45.09101" lon="2.64311">
        <ele>1645.2</ele>
        <time>2022-10-19T13:18:40.000Z</time>
      </trkpt>
      <trkpt lat="45.09095" lon="2.64317">
        <ele>1642.95</ele>
        <time>2022-10-19T13:18:49.575Z</time>
      </trkpt>
      <trkpt lat="45.0909" lon="2.64322">
        <ele>1639.96</ele>
        <time>2022-10-19T13:18:58.929Z</time>
      </trkpt>
      <trkpt lat="45.09087" lon="2.64329">
        <ele>1638.2</ele>
        <time>2022-10-19T13:19:07.992Z</time>
      </trkpt>
      <trkpt lat="45.09082" lon="2.64331">
        <ele>1636.96</ele>
        <time>2022-10-19T13:19:18.000Z</time>
      </trkpt>
      <trkpt lat="45.09074" lon="2.64336">
        <ele>1634.97</ele>
        <time>2022-10-19T13:19:27.254Z</time>
      </trkpt>
      <trkpt lat="45.09068" lon="2.64341">
        <ele>1632.95</ele>
        <time>2022-10-19T13:19:36.552Z</time>
      </trkpt>
      <trkpt lat="45.0906" lon="2.64345">
        <ele>1630.95</ele>
        <time>2022-10-19T13:19:46.191Z</time>
      </trkpt>
      <trkpt lat="45.09054" lon="2.64348">
        <ele>1628.96</ele>
        <time>2022-10-19T13:19:56.000Z</time>
      </trkpt>
      <trkpt lat="45.09048" lon="2.64353">
        <ele>1626.97</ele>
        <time>2022-10-19T13:20:06.000Z</time>
      </trkpt>
      <trkpt lat="45.09045" lon="2.64356">
        <ele>1625.02</ele>
        <time>2022-10-19T13:20:16.000Z</time>
      </trkpt>
      <trkpt lat="45.09043" lon="2.64361">
        <ele>1623.97</ele>
        <time>2022-10-19T13:20:25.372Z</time>
      </trkpt>
      <trkpt lat="45.09036" lon="2.64364">
        <ele>1622.95</ele>
        <time>2022-10-19T13:20:34.571Z</time>
      </trkpt>
      <trkpt lat="45.0903" lon="2.64372">
        <ele>1620.2</ele>
        <time>2022-10-19T13:20:44.091Z</time>
      </trkpt>
      <trkpt lat="45.09023" lon="2.6438">
        <ele>1617.2</ele>
        <time>2022-10-19T13:20:54.000Z</time>
      </trkpt>
      <trkpt lat="45.09016" lon="2.64385">
        <ele>1615.95</ele>
        <time>2022-10-19T13:21:03.133Z</time>
      </trkpt>
      <trkpt lat="45.0901" lon="2.6439">
        <ele>1614.2</ele>
        <time>2022-10-19T13:21:12.192Z</time>
      </trkpt>
      <trkpt lat="45.09003" lon="2.64398">
        <ele>1613.02</ele>
        <time>2022-10-19T13:21:21.591Z</time>
      </trkpt>
      <trkpt lat="45.08992" lon="2.64402">
        <ele>1612.02</ele>
        <time>2022-10-19T13:21:31.092Z</time>
      </trkpt>
      <trkpt lat="45.0899" lon="2.64402">
        <ele>1612.95</ele>
        <time>2022-10-19T13:21:41.000Z</time>
      </trkpt>
      <trkpt lat="45.08991" lon="2.64401">
        <ele>1612.89</ele>
        <time>2022-10-19T13:21:52.000Z</time>
      </trkpt>
      <trkpt lat="45.0899" lon="2.64401">
        <ele>1612.75</ele>
        <time>2022-10-19T13:23:50.000Z</time>
      </trkpt>
      <trkpt lat="45.0898" lon="2.64407">
        <ele>1612.95</ele>
        <time>2022-10-19T13:23:59.072Z</time>
      </trkpt>
      <trkpt lat="45.08972" lon="2.64411">
        <ele>1614.89</ele>
        <time>2022-10-19T13:24:08.491Z</time>
      </trkpt>
      <trkpt lat="45.08963" lon="2.64411">
        <ele>1614.95</ele>
        <time>2022-10-19T13:24:18.000Z</time>
      </trkpt>
      <trkpt lat="45.08954" lon="2.64413">
        <ele>1614.95</ele>
        <time>2022-10-19T13:24:27.561Z</time>
      </trkpt>
      <trkpt lat="45.08951" lon="2.64412">
        <ele>1614.95</ele>
        <time>2022-10-19T13:24:37.132Z</time>
      </trkpt>
      <trkpt lat="45.08939" lon="2.64415">
        <ele>1613.96</ele>
        <time>2022-10-19T13:24:47.417Z</time>
      </trkpt>
      <trkpt lat="45.08929" lon="2.64415">
        <ele>1612.95</ele>
        <time>2022-10-19T13:24:57.517Z</time>
      </trkpt>
      <trkpt lat="45.08923" lon="2.64415">
        <ele>1611.95</ele>
        <time>2022-10-19T13:25:07.113Z</time>
      </trkpt>
      <trkpt lat="45.08915" lon="2.64412">
        <ele>1609.97</ele>
        <time>2022-10-19T13:25:16.252Z</time>
      </trkpt>
      <trkpt lat="45.0891" lon="2.6441">
        <ele>1608.95</ele>
        <time>2022-10-19T13:25:25.512Z</time>
      </trkpt>
      <trkpt lat="45.08907" lon="2.64405">
        <ele>1607.96</ele>
        <time>2022-10-19T13:25:35.000Z</time>
      </trkpt>
      <trkpt lat="45.08904" lon="2.64407">
        <ele>1606.2</ele>
        <time>2022-10-19T13:25:45.000Z</time>
      </trkpt>
      <trkpt lat="45.08902" lon="2.64406">
        <ele>1605.95</ele>
        <time>2022-10-19T13:25:54.492Z</time>
      </trkpt>
      <trkpt lat="45.08899" lon="2.64403">
        <ele>1603.96</ele>
        <time>2022-10-19T13:26:04.451Z</time>
      </trkpt>
      <trkpt lat="45.089" lon="2.64399">
        <ele>1600.97</ele>
        <time>2022-10-19T13:26:14.000Z</time>
      </trkpt>
      <trkpt lat="45.08898" lon="2.64396">
        <ele>1599.95</ele>
        <time>2022-10-19T13:26:23.272Z</time>
      </trkpt>
      <trkpt lat="45.08893" lon="2.64398">
        <ele>1598.2</ele>
        <time>2022-10-19T13:26:33.000Z</time>
      </trkpt>
      <trkpt lat="45.0889" lon="2.64398">
        <ele>1597.96</ele>
        <time>2022-10-19T13:26:43.000Z</time>
      </trkpt>
      <trkpt lat="45.08886" lon="2.64399">
        <ele>1596.95</ele>
        <time>2022-10-19T13:26:52.012Z</time>
      </trkpt>
      <trkpt lat="45.08882" lon="2.644">
        <ele>1594.97</ele>
        <time>2022-10-19T13:27:01.213Z</time>
      </trkpt>
      <trkpt lat="45.08881" lon="2.64397">
        <ele>1594.95</ele>
        <time>2022-10-19T13:27:11.000Z</time>
      </trkpt>
      <trkpt lat="45.0888" lon="2.64396">
        <ele>1594.95</ele>
        <time>2022-10-19T13:28:49.452Z</time>
      </trkpt>
      <trkpt lat="45.0888" lon="2.64388">
        <ele>1593.02</ele>
        <time>2022-10-19T13:28:58.591Z</time>
      </trkpt>
      <trkpt lat="45.08882" lon="2.64383">
        <ele>1592.95</ele>
        <time>2022-10-19T13:29:08.000Z</time>
      </trkpt>
      <trkpt lat="45.08882" lon="2.64376">
        <ele>1590.96</ele>
        <time>2022-10-19T13:29:18.000Z</time>
      </trkpt>
      <trkpt lat="45.08882" lon="2.64374">
        <ele>1588.95</ele>
        <time>2022-10-19T13:29:27.234Z</time>
      </trkpt>
      <trkpt lat="45.08883" lon="2.64366">
        <ele>1586.97</ele>
        <time>2022-10-19T13:29:36.353Z</time>
      </trkpt>
      <trkpt lat="45.08884" lon="2.64361">
        <ele>1585.97</ele>
        <time>2022-10-19T13:29:45.391Z</time>
      </trkpt>
      <trkpt lat="45.08882" lon="2.64355">
        <ele>1583.21</ele>
        <time>2022-10-19T13:29:55.312Z</time>
      </trkpt>
      <trkpt lat="45.08875" lon="2.64356">
        <ele>1582.96</ele>
        <time>2022-10-19T13:30:05.000Z</time>
      </trkpt>
      <trkpt lat="45.08871" lon="2.64363">
        <ele>1580.96</ele>
        <time>2022-10-19T13:30:14.412Z</time>
      </trkpt>
      <trkpt lat="45.08866" lon="2.64366">
        <ele>1578.96</ele>
        <time>2022-10-19T13:30:23.433Z</time>
      </trkpt>
      <trkpt lat="45.08863" lon="2.64369">
        <ele>1577.21</ele>
        <time>2022-10-19T13:30:33.000Z</time>
      </trkpt>
      <trkpt lat="45.08865" lon="2.64369">
        <ele>1576.96</ele>
        <time>2022-10-19T13:30:43.000Z</time>
      </trkpt>
      <trkpt lat="45.08862" lon="2.64368">
        <ele>1576.96</ele>
        <time>2022-10-19T13:30:52.392Z</time>
      </trkpt>
      <trkpt lat="45.08858" lon="2.64369">
        <ele>1575.02</ele>
        <time>2022-10-19T13:31:03.000Z</time>
      </trkpt>
      <trkpt lat="45.08852" lon="2.64371">
        <ele>1573.96</ele>
        <time>2022-10-19T13:31:12.331Z</time>
      </trkpt>
      <trkpt lat="45.08846" lon="2.64378">
        <ele>1572.96</ele>
        <time>2022-10-19T13:31:21.563Z</time>
      </trkpt>
      <trkpt lat="45.0884" lon="2.64379">
        <ele>1569.96</ele>
        <time>2022-10-19T13:31:31.000Z</time>
      </trkpt>
      <trkpt lat="45.08835" lon="2.6438">
        <ele>1567.02</ele>
        <time>2022-10-19T13:31:40.337Z</time>
      </trkpt>
      <trkpt lat="45.08831" lon="2.64383">
        <ele>1566.96</ele>
        <time>2022-10-19T13:31:49.533Z</time>
      </trkpt>
      <trkpt lat="45.08826" lon="2.64385">
        <ele>1564.97</ele>
        <time>2022-10-19T13:31:59.151Z</time>
      </trkpt>
      <trkpt lat="45.08821" lon="2.64384">
        <ele>1562.96</ele>
        <time>2022-10-19T13:32:09.000Z</time>
      </trkpt>
      <trkpt lat="45.08821" lon="2.64386">
        <ele>1562.96</ele>
        <time>2022-10-19T13:32:19.000Z</time>
      </trkpt>
      <trkpt lat="45.08818" lon="2.64387">
        <ele>1561.02</ele>
        <time>2022-10-19T13:32:29.000Z</time>
      </trkpt>
      <trkpt lat="45.08814" lon="2.64388">
        <ele>1559.96</ele>
        <time>2022-10-19T13:32:38.452Z</time>
      </trkpt>
      <trkpt lat="45.08814" lon="2.64387">
        <ele>1557.96</ele>
        <time>2022-10-19T13:32:48.000Z</time>
      </trkpt>
      <trkpt lat="45.08813" lon="2.64387">
        <ele>1557.96</ele>
        <time>2022-10-19T13:32:57.372Z</time>
      </trkpt>
      <trkpt lat="45.0881" lon="2.64386">
        <ele>1556.96</ele>
        <time>2022-10-19T13:33:08.000Z</time>
      </trkpt>
      <trkpt lat="45.08805" lon="2.64389">
        <ele>1555.96</ele>
        <time>2022-10-19T13:33:18.000Z</time>
      </trkpt>
      <trkpt lat="45.08801" lon="2.64389">
        <ele>1554.9</ele>
        <time>2022-10-19T13:33:27.051Z</time>
      </trkpt>
      <trkpt lat="45.08795" lon="2.64389">
        <ele>1552.96</ele>
        <time>2022-10-19T13:33:36.073Z</time>
      </trkpt>
      <trkpt lat="45.0879" lon="2.64397">
        <ele>1550.97</ele>
        <time>2022-10-19T13:33:46.000Z</time>
      </trkpt>
      <trkpt lat="45.08783" lon="2.64396">
        <ele>1548.96</ele>
        <time>2022-10-19T13:33:55.071Z</time>
      </trkpt>
      <trkpt lat="45.08776" lon="2.64399">
        <ele>1546.97</ele>
        <time>2022-10-19T13:34:04.331Z</time>
      </trkpt>
      <trkpt lat="45.0877" lon="2.644">
        <ele>1545.96</ele>
        <time>2022-10-19T13:34:14.472Z</time>
      </trkpt>
      <trkpt lat="45.08761" lon="2.644">
        <ele>1544.96</ele>
        <time>2022-10-19T13:34:24.000Z</time>
      </trkpt>
      <trkpt lat="45.08754" lon="2.64408">
        <ele>1542.96</ele>
        <time>2022-10-19T13:34:33.431Z</time>
      </trkpt>
      <trkpt lat="45.08748" lon="2.64412">
        <ele>1542.02</ele>
        <time>2022-10-19T13:34:43.000Z</time>
      </trkpt>
      <trkpt lat="45.08741" lon="2.64418">
        <ele>1540.02</ele>
        <time>2022-10-19T13:34:53.000Z</time>
      </trkpt>
      <trkpt lat="45.0873" lon="2.64421">
        <ele>1538.95</ele>
        <time>2022-10-19T13:35:02.751Z</time>
      </trkpt>
      <trkpt lat="45.08723" lon="2.64425">
        <ele>1537.2</ele>
        <time>2022-10-19T13:35:12.000Z</time>
      </trkpt>
      <trkpt lat="45.08712" lon="2.64429">
        <ele>1535.97</ele>
        <time>2022-10-19T13:35:21.331Z</time>
      </trkpt>
      <trkpt lat="45.08702" lon="2.64434">
        <ele>1535.95</ele>
        <time>2022-10-19T13:35:30.592Z</time>
      </trkpt>
      <trkpt lat="45.08692" lon="2.64439">
        <ele>1534.95</ele>
        <time>2022-10-19T13:35:40.472Z</time>
      </trkpt>
      <trkpt lat="45.08681" lon="2.64445">
        <ele>1533.97</ele>
        <time>2022-10-19T13:35:50.372Z</time>
      </trkpt>
      <trkpt lat="45.08671" lon="2.64452">
        <ele>1533.95</ele>
        <time>2022-10-19T13:35:59.871Z</time>
      </trkpt>
      <trkpt lat="45.08661" lon="2.64452">
        <ele>1533.95</ele>
        <time>2022-10-19T13:36:08.911Z</time>
      </trkpt>
      <trkpt lat="45.08651" lon="2.64455">
        <ele>1533.72</ele>
        <time>2022-10-19T13:36:17.978Z</time>
      </trkpt>
      <trkpt lat="45.08641" lon="2.64453">
        <ele>1533.89</ele>
        <time>2022-10-19T13:36:27.591Z</time>
      </trkpt>
      <trkpt lat="45.08632" lon="2.64454">
        <ele>1533.95</ele>
        <time>2022-10-19T13:36:37.231Z</time>
      </trkpt>
      <trkpt lat="45.08633" lon="2.64454">
        <ele>1533.95</ele>
        <time>2022-10-19T13:36:47.000Z</time>
      </trkpt>
      <trkpt lat="45.08632" lon="2.64454">
        <ele>1534.7</ele>
        <time>2022-10-19T13:37:29.000Z</time>
      </trkpt>
      <trkpt lat="45.08633" lon="2.64452">
        <ele>1534.95</ele>
        <time>2022-10-19T13:37:39.000Z</time>
      </trkpt>
      <trkpt lat="45.08632" lon="2.64452">
        <ele>1534.95</ele>
        <time>2022-10-19T13:37:49.986Z</time>
      </trkpt>
      <trkpt lat="45.08622" lon="2.64453">
        <ele>1535.96</ele>
        <time>2022-10-19T13:37:59.051Z</time>
      </trkpt>
      <trkpt lat="45.08614" lon="2.64449">
        <ele>1536.96</ele>
        <time>2022-10-19T13:38:09.000Z</time>
      </trkpt>
      <trkpt lat="45.08606" lon="2.64446">
        <ele>1536.96</ele>
        <time>2022-10-19T13:38:18.132Z</time>
      </trkpt>
      <trkpt lat="45.08598" lon="2.64443">
        <ele>1537.96</ele>
        <time>2022-10-19T13:38:27.171Z</time>
      </trkpt>
      <trkpt lat="45.0859" lon="2.64439">
        <ele>1538.2</ele>
        <time>2022-10-19T13:38:37.000Z</time>
      </trkpt>
      <trkpt lat="45.08583" lon="2.64433">
        <ele>1538.96</ele>
        <time>2022-10-19T13:38:46.533Z</time>
      </trkpt>
      <trkpt lat="45.08576" lon="2.64426">
        <ele>1538.96</ele>
        <time>2022-10-19T13:38:56.212Z</time>
      </trkpt>
      <trkpt lat="45.0857" lon="2.6442">
        <ele>1539.96</ele>
        <time>2022-10-19T13:39:05.391Z</time>
      </trkpt>
      <trkpt lat="45.08564" lon="2.64418">
        <ele>1541.89</ele>
        <time>2022-10-19T13:39:15.000Z</time>
      </trkpt>
      <trkpt lat="45.08558" lon="2.64412">
        <ele>1541.96</ele>
        <time>2022-10-19T13:39:24.131Z</time>
      </trkpt>
      <trkpt lat="45.08555" lon="2.64407">
        <ele>1542.96</ele>
        <time>2022-10-19T13:39:34.000Z</time>
      </trkpt>
      <trkpt lat="45.08554" lon="2.64401">
        <ele>1542.71</ele>
        <time>2022-10-19T13:39:43.352Z</time>
      </trkpt>
      <trkpt lat="45.0855" lon="2.6439">
        <ele>1542.96</ele>
        <time>2022-10-19T13:39:53.000Z</time>
      </trkpt>
      <trkpt lat="45.08543" lon="2.6438">
        <ele>1543.96</ele>
        <time>2022-10-19T13:40:02.292Z</time>
      </trkpt>
      <trkpt lat="45.08537" lon="2.64372">
        <ele>1544.89</ele>
        <time>2022-10-19T13:40:12.000Z</time>
      </trkpt>
      <trkpt lat="45.08531" lon="2.64363">
        <ele>1545.96</ele>
        <time>2022-10-19T13:40:21.533Z</time>
      </trkpt>
      <trkpt lat="45.08524" lon="2.64352">
        <ele>1545.96</ele>
        <time>2022-10-19T13:40:31.111Z</time>
      </trkpt>
      <trkpt lat="45.08517" lon="2.64345">
        <ele>1546.96</ele>
        <time>2022-10-19T13:40:40.290Z</time>
      </trkpt>
      <trkpt lat="45.08511" lon="2.64339">
        <ele>1547.96</ele>
        <time>2022-10-19T13:40:49.590Z</time>
      </trkpt>
      <trkpt lat="45.08507" lon="2.64329">
        <ele>1548.96</ele>
        <time>2022-10-19T13:40:59.153Z</time>
      </trkpt>
      <trkpt lat="45.08501" lon="2.6432">
        <ele>1548.96</ele>
        <time>2022-10-19T13:41:09.000Z</time>
      </trkpt>
      <trkpt lat="45.08494" lon="2.64311">
        <ele>1549.96</ele>
        <time>2022-10-19T13:41:18.093Z</time>
      </trkpt>
      <trkpt lat="45.08487" lon="2.643">
        <ele>1549.96</ele>
        <time>2022-10-19T13:41:27.371Z</time>
      </trkpt>
      <trkpt lat="45.08482" lon="2.64289">
        <ele>1549.96</ele>
        <time>2022-10-19T13:41:37.000Z</time>
      </trkpt>
      <trkpt lat="45.08475" lon="2.64278">
        <ele>1550.96</ele>
        <time>2022-10-19T13:41:46.172Z</time>
      </trkpt>
      <trkpt lat="45.08469" lon="2.64267">
        <ele>1550.96</ele>
        <time>2022-10-19T13:41:56.000Z</time>
      </trkpt>
      <trkpt lat="45.08462" lon="2.64258">
        <ele>1551.96</ele>
        <time>2022-10-19T13:42:05.574Z</time>
      </trkpt>
      <trkpt lat="45.08456" lon="2.6425">
        <ele>1552.94</ele>
        <time>2022-10-19T13:42:15.092Z</time>
      </trkpt>
      <trkpt lat="45.08451" lon="2.64241">
        <ele>1552.96</ele>
        <time>2022-10-19T13:42:24.570Z</time>
      </trkpt>
      <trkpt lat="45.08446" lon="2.64233">
        <ele>1553.96</ele>
        <time>2022-10-19T13:42:34.151Z</time>
      </trkpt>
      <trkpt lat="45.0844" lon="2.64224">
        <ele>1554.96</ele>
        <time>2022-10-19T13:42:43.371Z</time>
      </trkpt>
      <trkpt lat="45.08434" lon="2.64215">
        <ele>1554.96</ele>
        <time>2022-10-19T13:42:52.411Z</time>
      </trkpt>
      <trkpt lat="45.08429" lon="2.64206">
        <ele>1554.96</ele>
        <time>2022-10-19T13:43:02.000Z</time>
      </trkpt>
      <trkpt lat="45.08424" lon="2.64197">
        <ele>1555.96</ele>
        <time>2022-10-19T13:43:11.071Z</time>
      </trkpt>
      <trkpt lat="45.08419" lon="2.64188">
        <ele>1556.96</ele>
        <time>2022-10-19T13:43:20.591Z</time>
      </trkpt>
      <trkpt lat="45.08414" lon="2.64183">
        <ele>1557.96</ele>
        <time>2022-10-19T13:43:30.000Z</time>
      </trkpt>
      <trkpt lat="45.08414" lon="2.64176">
        <ele>1557.96</ele>
        <time>2022-10-19T13:43:39.352Z</time>
      </trkpt>
      <trkpt lat="45.08411" lon="2.64165">
        <ele>1557.96</ele>
        <time>2022-10-19T13:43:48.471Z</time>
      </trkpt>
      <trkpt lat="45.08408" lon="2.64155">
        <ele>1557.96</ele>
        <time>2022-10-19T13:43:58.000Z</time>
      </trkpt>
      <trkpt lat="45.08407" lon="2.64145">
        <ele>1557.96</ele>
        <time>2022-10-19T13:44:07.372Z</time>
      </trkpt>
      <trkpt lat="45.08405" lon="2.64134">
        <ele>1558.96</ele>
        <time>2022-10-19T13:44:16.411Z</time>
      </trkpt>
      <trkpt lat="45.08402" lon="2.64123">
        <ele>1559.9</ele>
        <time>2022-10-19T13:44:27.000Z</time>
      </trkpt>
      <trkpt lat="45.08399" lon="2.64114">
        <ele>1559.96</ele>
        <time>2022-10-19T13:44:36.114Z</time>
      </trkpt>
      <trkpt lat="45.08399" lon="2.64102">
        <ele>1559.96</ele>
        <time>2022-10-19T13:44:45.172Z</time>
      </trkpt>
      <trkpt lat="45.08396" lon="2.64094">
        <ele>1560.96</ele>
        <time>2022-10-19T13:44:55.000Z</time>
      </trkpt>
      <trkpt lat="45.08392" lon="2.64086">
        <ele>1562.91</ele>
        <time>2022-10-19T13:45:05.000Z</time>
      </trkpt>
      <trkpt lat="45.0839" lon="2.64077">
        <ele>1564.9</ele>
        <time>2022-10-19T13:45:14.570Z</time>
      </trkpt>
      <trkpt lat="45.08388" lon="2.64067">
        <ele>1565.96</ele>
        <time>2022-10-19T13:45:24.000Z</time>
      </trkpt>
      <trkpt lat="45.08384" lon="2.64063">
        <ele>1567.9</ele>
        <time>2022-10-19T13:45:33.333Z</time>
      </trkpt>
      <trkpt lat="45.08382" lon="2.64056">
        <ele>1568.21</ele>
        <time>2022-10-19T13:45:43.000Z</time>
      </trkpt>
      <trkpt lat="45.08378" lon="2.64046">
        <ele>1569.71</ele>
        <time>2022-10-19T13:45:53.000Z</time>
      </trkpt>
      <trkpt lat="45.08375" lon="2.64039">
        <ele>1569.96</ele>
        <time>2022-10-19T13:46:02.351Z</time>
      </trkpt>
      <trkpt lat="45.0837" lon="2.64033">
        <ele>1570.96</ele>
        <time>2022-10-19T13:46:12.010Z</time>
      </trkpt>
      <trkpt lat="45.08367" lon="2.64025">
        <ele>1571.96</ele>
        <time>2022-10-19T13:46:21.590Z</time>
      </trkpt>
      <trkpt lat="45.08365" lon="2.64015">
        <ele>1572.96</ele>
        <time>2022-10-19T13:46:31.000Z</time>
      </trkpt>
      <trkpt lat="45.08361" lon="2.64007">
        <ele>1574.01</ele>
        <time>2022-10-19T13:46:40.512Z</time>
      </trkpt>
      <trkpt lat="45.08359" lon="2.63994">
        <ele>1573.96</ele>
        <time>2022-10-19T13:46:50.473Z</time>
      </trkpt>
      <trkpt lat="45.08358" lon="2.63983">
        <ele>1572.97</ele>
        <time>2022-10-19T13:47:00.000Z</time>
      </trkpt>
      <trkpt lat="45.08355" lon="2.63978">
        <ele>1573.96</ele>
        <time>2022-10-19T13:47:09.170Z</time>
      </trkpt>
      <trkpt lat="45.08351" lon="2.63971">
        <ele>1575.2</ele>
        <time>2022-10-19T13:47:19.000Z</time>
      </trkpt>
      <trkpt lat="45.08347" lon="2.63961">
        <ele>1575.96</ele>
        <time>2022-10-19T13:47:29.000Z</time>
      </trkpt>
      <trkpt lat="45.08343" lon="2.63957">
        <ele>1577.96</ele>
        <time>2022-10-19T13:47:38.271Z</time>
      </trkpt>
      <trkpt lat="45.08339" lon="2.63948">
        <ele>1577.97</ele>
        <time>2022-10-19T13:47:47.970Z</time>
      </trkpt>
      <trkpt lat="45.08337" lon="2.6394">
        <ele>1578.95</ele>
        <time>2022-10-19T13:47:57.000Z</time>
      </trkpt>
      <trkpt lat="45.08334" lon="2.63929">
        <ele>1578.97</ele>
        <time>2022-10-19T13:48:07.000Z</time>
      </trkpt>
      <trkpt lat="45.0833" lon="2.63918">
        <ele>1580.96</ele>
        <time>2022-10-19T13:48:16.491Z</time>
      </trkpt>
      <trkpt lat="45.08327" lon="2.63911">
        <ele>1580.97</ele>
        <time>2022-10-19T13:48:26.000Z</time>
      </trkpt>
      <trkpt lat="45.08325" lon="2.63909">
        <ele>1580.97</ele>
        <time>2022-10-19T13:48:35.431Z</time>
      </trkpt>
      <trkpt lat="45.08324" lon="2.63905">
        <ele>1582.97</ele>
        <time>2022-10-19T13:48:45.000Z</time>
      </trkpt>
      <trkpt lat="45.08323" lon="2.63903">
        <ele>1583.97</ele>
        <time>2022-10-19T13:48:54.292Z</time>
      </trkpt>
      <trkpt lat="45.0832" lon="2.63899">
        <ele>1583.97</ele>
        <time>2022-10-19T13:49:04.000Z</time>
      </trkpt>
      <trkpt lat="45.08312" lon="2.63891">
        <ele>1583.97</ele>
        <time>2022-10-19T13:49:13.171Z</time>
      </trkpt>
      <trkpt lat="45.08305" lon="2.63885">
        <ele>1584.97</ele>
        <time>2022-10-19T13:49:23.000Z</time>
      </trkpt>
      <trkpt lat="45.083" lon="2.63876">
        <ele>1585.97</ele>
        <time>2022-10-19T13:49:32.372Z</time>
      </trkpt>
      <trkpt lat="45.08293" lon="2.63872">
        <ele>1586.97</ele>
        <time>2022-10-19T13:49:41.472Z</time>
      </trkpt>
      <trkpt lat="45.08286" lon="2.63862">
        <ele>1586.22</ele>
        <time>2022-10-19T13:49:51.579Z</time>
      </trkpt>
      <trkpt lat="45.0828" lon="2.63849">
        <ele>1585.97</ele>
        <time>2022-10-19T13:50:01.590Z</time>
      </trkpt>
      <trkpt lat="45.08277" lon="2.63836">
        <ele>1585.97</ele>
        <time>2022-10-19T13:50:11.131Z</time>
      </trkpt>
      <trkpt lat="45.0827" lon="2.63827">
        <ele>1584.97</ele>
        <time>2022-10-19T13:50:21.000Z</time>
      </trkpt>
      <trkpt lat="45.08265" lon="2.63814">
        <ele>1584.98</ele>
        <time>2022-10-19T13:50:30.311Z</time>
      </trkpt>
      <trkpt lat="45.08259" lon="2.63803">
        <ele>1585.97</ele>
        <time>2022-10-19T13:50:40.000Z</time>
      </trkpt>
      <trkpt lat="45.08252" lon="2.63794">
        <ele>1585.97</ele>
        <time>2022-10-19T13:50:49.277Z</time>
      </trkpt>
      <trkpt lat="45.08251" lon="2.63783">
        <ele>1585.97</ele>
        <time>2022-10-19T13:50:58.372Z</time>
      </trkpt>
      <trkpt lat="45.08248" lon="2.63775">
        <ele>1585.97</ele>
        <time>2022-10-19T13:51:08.000Z</time>
      </trkpt>
      <trkpt lat="45.08249" lon="2.63777">
        <ele>1586.97</ele>
        <time>2022-10-19T13:51:20.000Z</time>
      </trkpt>
      <trkpt lat="45.08248" lon="2.63775">
        <ele>1586.97</ele>
        <time>2022-10-19T13:52:01.000Z</time>
      </trkpt>
      <trkpt lat="45.08244" lon="2.63769">
        <ele>1585.97</ele>
        <time>2022-10-19T13:52:10.412Z</time>
      </trkpt>
      <trkpt lat="45.08239" lon="2.63764">
        <ele>1583.97</ele>
        <time>2022-10-19T13:52:20.000Z</time>
      </trkpt>
      <trkpt lat="45.08228" lon="2.63761">
        <ele>1583.97</ele>
        <time>2022-10-19T13:52:29.111Z</time>
      </trkpt>
      <trkpt lat="45.08223" lon="2.6376">
        <ele>1583.97</ele>
        <time>2022-10-19T13:52:38.471Z</time>
      </trkpt>
      <trkpt lat="45.08223" lon="2.63752">
        <ele>1582.97</ele>
        <time>2022-10-19T13:52:48.000Z</time>
      </trkpt>
      <trkpt lat="45.08221" lon="2.63742">
        <ele>1581.98</ele>
        <time>2022-10-19T13:52:57.232Z</time>
      </trkpt>
      <trkpt lat="45.08222" lon="2.63739">
        <ele>1581.03</ele>
        <time>2022-10-19T13:53:06.411Z</time>
      </trkpt>
      <trkpt lat="45.08219" lon="2.63732">
        <ele>1578.97</ele>
        <time>2022-10-19T13:53:16.000Z</time>
      </trkpt>
      <trkpt lat="45.08217" lon="2.63727">
        <ele>1578.97</ele>
        <time>2022-10-19T13:53:26.000Z</time>
      </trkpt>
      <trkpt lat="45.08214" lon="2.63722">
        <ele>1576.99</ele>
        <time>2022-10-19T13:53:35.331Z</time>
      </trkpt>
      <trkpt lat="45.08208" lon="2.63713">
        <ele>1575.97</ele>
        <time>2022-10-19T13:53:45.000Z</time>
      </trkpt>
      <trkpt lat="45.08202" lon="2.63703">
        <ele>1574.97</ele>
        <time>2022-10-19T13:53:55.000Z</time>
      </trkpt>
      <trkpt lat="45.08198" lon="2.63695">
        <ele>1573.97</ele>
        <time>2022-10-19T13:54:04.012Z</time>
      </trkpt>
      <trkpt lat="45.08197" lon="2.63688">
        <ele>1572.97</ele>
        <time>2022-10-19T13:54:13.512Z</time>
      </trkpt>
      <trkpt lat="45.08194" lon="2.63681">
        <ele>1571.97</ele>
        <time>2022-10-19T13:54:22.590Z</time>
      </trkpt>
      <trkpt lat="45.08194" lon="2.63672">
        <ele>1570.97</ele>
        <time>2022-10-19T13:54:33.000Z</time>
      </trkpt>
      <trkpt lat="45.08191" lon="2.63662">
        <ele>1569.97</ele>
        <time>2022-10-19T13:54:42.412Z</time>
      </trkpt>
      <trkpt lat="45.08192" lon="2.63652">
        <ele>1568.97</ele>
        <time>2022-10-19T13:54:52.000Z</time>
      </trkpt>
      <trkpt lat="45.08191" lon="2.63638">
        <ele>1567.97</ele>
        <time>2022-10-19T13:55:01.111Z</time>
      </trkpt>
      <trkpt lat="45.08187" lon="2.63629">
        <ele>1567.97</ele>
        <time>2022-10-19T13:55:10.132Z</time>
      </trkpt>
      <trkpt lat="45.08186" lon="2.63624">
        <ele>1566.97</ele>
        <time>2022-10-19T13:55:19.292Z</time>
      </trkpt>
      <trkpt lat="45.08186" lon="2.63618">
        <ele>1564.99</ele>
        <time>2022-10-19T13:55:29.000Z</time>
      </trkpt>
      <trkpt lat="45.08187" lon="2.63608">
        <ele>1563.98</ele>
        <time>2022-10-19T13:55:38.412Z</time>
      </trkpt>
      <trkpt lat="45.08186" lon="2.636">
        <ele>1562.97</ele>
        <time>2022-10-19T13:55:47.433Z</time>
      </trkpt>
      <trkpt lat="45.0819" lon="2.63596">
        <ele>1562.22</ele>
        <time>2022-10-19T13:55:57.000Z</time>
      </trkpt>
      <trkpt lat="45.08194" lon="2.6359">
        <ele>1561.22</ele>
        <time>2022-10-19T13:56:07.000Z</time>
      </trkpt>
      <trkpt lat="45.08196" lon="2.63583">
        <ele>1559.97</ele>
        <time>2022-10-19T13:56:18.000Z</time>
      </trkpt>
      <trkpt lat="45.08195" lon="2.63575">
        <ele>1558.97</ele>
        <time>2022-10-19T13:56:27.572Z</time>
      </trkpt>
      <trkpt lat="45.08192" lon="2.63564">
        <ele>1557.97</ele>
        <time>2022-10-19T13:56:36.792Z</time>
      </trkpt>
      <trkpt lat="45.08188" lon="2.63558">
        <ele>1556.97</ele>
        <time>2022-10-19T13:56:46.000Z</time>
      </trkpt>
      <trkpt lat="45.08185" lon="2.63551">
        <ele>1555.98</ele>
        <time>2022-10-19T13:56:55.432Z</time>
      </trkpt>
      <trkpt lat="45.08184" lon="2.63545">
        <ele>1555.97</ele>
        <time>2022-10-19T13:57:05.000Z</time>
      </trkpt>
      <trkpt lat="45.08187" lon="2.63536">
        <ele>1555.97</ele>
        <time>2022-10-19T13:57:14.552Z</time>
      </trkpt>
      <trkpt lat="45.08184" lon="2.63531">
        <ele>1556.97</ele>
        <time>2022-10-19T13:57:24.095Z</time>
      </trkpt>
      <trkpt lat="45.08184" lon="2.63525">
        <ele>1557.97</ele>
        <time>2022-10-19T13:57:33.111Z</time>
      </trkpt>
      <trkpt lat="45.08183" lon="2.6352">
        <ele>1555.98</ele>
        <time>2022-10-19T13:57:42.491Z</time>
      </trkpt>
      <trkpt lat="45.08183" lon="2.63514">
        <ele>1554.97</ele>
        <time>2022-10-19T13:57:51.552Z</time>
      </trkpt>
      <trkpt lat="45.08178" lon="2.63502">
        <ele>1552.99</ele>
        <time>2022-10-19T13:58:00.611Z</time>
      </trkpt>
      <trkpt lat="45.08175" lon="2.63499">
        <ele>1552.98</ele>
        <time>2022-10-19T13:58:09.852Z</time>
      </trkpt>
      <trkpt lat="45.08173" lon="2.63498">
        <ele>1553.97</ele>
        <time>2022-10-19T13:58:19.000Z</time>
      </trkpt>
      <trkpt lat="45.08171" lon="2.63502">
        <ele>1554.97</ele>
        <time>2022-10-19T13:58:28.572Z</time>
      </trkpt>
      <trkpt lat="45.08168" lon="2.63503">
        <ele>1555.97</ele>
        <time>2022-10-19T13:58:38.132Z</time>
      </trkpt>
      <trkpt lat="45.08165" lon="2.63503">
        <ele>1557.72</ele>
        <time>2022-10-19T13:58:48.000Z</time>
      </trkpt>
      <trkpt lat="45.08163" lon="2.63499">
        <ele>1559.97</ele>
        <time>2022-10-19T13:58:58.000Z</time>
      </trkpt>
      <trkpt lat="45.0816" lon="2.63491">
        <ele>1560.97</ele>
        <time>2022-10-19T13:59:07.592Z</time>
      </trkpt>
      <trkpt lat="45.08154" lon="2.63487">
        <ele>1560.97</ele>
        <time>2022-10-19T13:59:17.000Z</time>
      </trkpt>
      <trkpt lat="45.08148" lon="2.63485">
        <ele>1561.97</ele>
        <time>2022-10-19T13:59:27.000Z</time>
      </trkpt>
      <trkpt lat="45.08142" lon="2.63482">
        <ele>1562.97</ele>
        <time>2022-10-19T13:59:36.012Z</time>
      </trkpt>
      <trkpt lat="45.08138" lon="2.63475">
        <ele>1563.21</ele>
        <time>2022-10-19T13:59:45.452Z</time>
      </trkpt>
      <trkpt lat="45.08133" lon="2.6347">
        <ele>1563.97</ele>
        <time>2022-10-19T13:59:55.071Z</time>
      </trkpt>
      <trkpt lat="45.08132" lon="2.63467">
        <ele>1563.97</ele>
        <time>2022-10-19T14:00:05.000Z</time>
      </trkpt>
      <trkpt lat="45.08133" lon="2.63467">
        <ele>1565.97</ele>
        <time>2022-10-19T14:02:42.000Z</time>
      </trkpt>
      <trkpt lat="45.08129" lon="2.63462">
        <ele>1566.91</ele>
        <time>2022-10-19T14:02:51.533Z</time>
      </trkpt>
      <trkpt lat="45.08122" lon="2.63452">
        <ele>1566.97</ele>
        <time>2022-10-19T14:03:00.568Z</time>
      </trkpt>
      <trkpt lat="45.08116" lon="2.6344">
        <ele>1567.98</ele>
        <time>2022-10-19T14:03:09.610Z</time>
      </trkpt>
      <trkpt lat="45.08107" lon="2.63431">
        <ele>1567.23</ele>
        <time>2022-10-19T14:03:19.571Z</time>
      </trkpt>
      <trkpt lat="45.08102" lon="2.6342">
        <ele>1566.98</ele>
        <time>2022-10-19T14:03:30.000Z</time>
      </trkpt>
      <trkpt lat="45.08094" lon="2.63408">
        <ele>1566.98</ele>
        <time>2022-10-19T14:03:39.591Z</time>
      </trkpt>
      <trkpt lat="45.08088" lon="2.63396">
        <ele>1565.98</ele>
        <time>2022-10-19T14:03:49.000Z</time>
      </trkpt>
      <trkpt lat="45.08079" lon="2.63387">
        <ele>1565.98</ele>
        <time>2022-10-19T14:03:58.353Z</time>
      </trkpt>
      <trkpt lat="45.0807" lon="2.6338">
        <ele>1565.98</ele>
        <time>2022-10-19T14:04:07.530Z</time>
      </trkpt>
      <trkpt lat="45.08062" lon="2.63371">
        <ele>1565.98</ele>
        <time>2022-10-19T14:04:16.874Z</time>
      </trkpt>
      <trkpt lat="45.08054" lon="2.63365">
        <ele>1565.98</ele>
        <time>2022-10-19T14:04:26.231Z</time>
      </trkpt>
      <trkpt lat="45.08047" lon="2.63356">
        <ele>1566.98</ele>
        <time>2022-10-19T14:04:35.273Z</time>
      </trkpt>
      <trkpt lat="45.0804" lon="2.63347">
        <ele>1566.98</ele>
        <time>2022-10-19T14:04:44.293Z</time>
      </trkpt>
      <trkpt lat="45.08032" lon="2.63342">
        <ele>1567.98</ele>
        <time>2022-10-19T14:04:53.331Z</time>
      </trkpt>
      <trkpt lat="45.08025" lon="2.63335">
        <ele>1567.98</ele>
        <time>2022-10-19T14:05:03.000Z</time>
      </trkpt>
      <trkpt lat="45.08017" lon="2.63329">
        <ele>1569.93</ele>
        <time>2022-10-19T14:05:12.314Z</time>
      </trkpt>
      <trkpt lat="45.08012" lon="2.63326">
        <ele>1570.97</ele>
        <time>2022-10-19T14:05:22.000Z</time>
      </trkpt>
      <trkpt lat="45.08008" lon="2.63323">
        <ele>1570.98</ele>
        <time>2022-10-19T14:05:32.000Z</time>
      </trkpt>
      <trkpt lat="45.08008" lon="2.63321">
        <ele>1570.98</ele>
        <time>2022-10-19T14:05:42.090Z</time>
      </trkpt>
      <trkpt lat="45.08003" lon="2.63309">
        <ele>1571.92</ele>
        <time>2022-10-19T14:05:51.252Z</time>
      </trkpt>
      <trkpt lat="45.07998" lon="2.63305">
        <ele>1571.04</ele>
        <time>2022-10-19T14:06:00.334Z</time>
      </trkpt>
      <trkpt lat="45.07993" lon="2.63297">
        <ele>1571.98</ele>
        <time>2022-10-19T14:06:11.000Z</time>
      </trkpt>
      <trkpt lat="45.07985" lon="2.63294">
        <ele>1570.98</ele>
        <time>2022-10-19T14:06:21.000Z</time>
      </trkpt>
      <trkpt lat="45.07978" lon="2.63285">
        <ele>1570.73</ele>
        <time>2022-10-19T14:06:30.211Z</time>
      </trkpt>
      <trkpt lat="45.07971" lon="2.63277">
        <ele>1569.98</ele>
        <time>2022-10-19T14:06:39.556Z</time>
      </trkpt>
      <trkpt lat="45.07967" lon="2.63268">
        <ele>1569.98</ele>
        <time>2022-10-19T14:06:49.000Z</time>
      </trkpt>
      <trkpt lat="45.07962" lon="2.63261">
        <ele>1569.98</ele>
        <time>2022-10-19T14:06:58.072Z</time>
      </trkpt>
      <trkpt lat="45.07957" lon="2.63255">
        <ele>1569.98</ele>
        <time>2022-10-19T14:07:07.411Z</time>
      </trkpt>
      <trkpt lat="45.07954" lon="2.6325">
        <ele>1568.98</ele>
        <time>2022-10-19T14:07:17.000Z</time>
      </trkpt>
      <trkpt lat="45.07952" lon="2.63243">
        <ele>1569.03</ele>
        <time>2022-10-19T14:07:27.000Z</time>
      </trkpt>
      <trkpt lat="45.07952" lon="2.63235">
        <ele>1568.23</ele>
        <time>2022-10-19T14:07:36.172Z</time>
      </trkpt>
      <trkpt lat="45.07948" lon="2.63232">
        <ele>1567.98</ele>
        <time>2022-10-19T14:07:46.000Z</time>
      </trkpt>
      <trkpt lat="45.07946" lon="2.63227">
        <ele>1567.04</ele>
        <time>2022-10-19T14:07:55.020Z</time>
      </trkpt>
      <trkpt lat="45.07942" lon="2.63221">
        <ele>1566.23</ele>
        <time>2022-10-19T14:08:05.000Z</time>
      </trkpt>
      <trkpt lat="45.07938" lon="2.63217">
        <ele>1565.98</ele>
        <time>2022-10-19T14:08:15.000Z</time>
      </trkpt>
      <trkpt lat="45.07937" lon="2.63214">
        <ele>1563.98</ele>
        <time>2022-10-19T14:08:25.000Z</time>
      </trkpt>
      <trkpt lat="45.07936" lon="2.63212">
        <ele>1563</ele>
        <time>2022-10-19T14:08:34.512Z</time>
      </trkpt>
      <trkpt lat="45.07934" lon="2.63203">
        <ele>1561.98</ele>
        <time>2022-10-19T14:08:44.050Z</time>
      </trkpt>
      <trkpt lat="45.07932" lon="2.63196">
        <ele>1560.98</ele>
        <time>2022-10-19T14:08:53.312Z</time>
      </trkpt>
      <trkpt lat="45.07929" lon="2.63189">
        <ele>1559.04</ele>
        <time>2022-10-19T14:09:02.471Z</time>
      </trkpt>
      <trkpt lat="45.07929" lon="2.63185">
        <ele>1558</ele>
        <time>2022-10-19T14:09:11.481Z</time>
      </trkpt>
      <trkpt lat="45.0793" lon="2.63178">
        <ele>1556.23</ele>
        <time>2022-10-19T14:09:21.000Z</time>
      </trkpt>
      <trkpt lat="45.07931" lon="2.63173">
        <ele>1555.23</ele>
        <time>2022-10-19T14:09:30.511Z</time>
      </trkpt>
      <trkpt lat="45.07934" lon="2.63168">
        <ele>1553.98</ele>
        <time>2022-10-19T14:09:39.852Z</time>
      </trkpt>
      <trkpt lat="45.0793" lon="2.63164">
        <ele>1553.98</ele>
        <time>2022-10-19T14:09:49.412Z</time>
      </trkpt>
      <trkpt lat="45.07924" lon="2.63159">
        <ele>1552.04</ele>
        <time>2022-10-19T14:09:59.452Z</time>
      </trkpt>
      <trkpt lat="45.07917" lon="2.6315">
        <ele>1550.98</ele>
        <time>2022-10-19T14:10:09.000Z</time>
      </trkpt>
      <trkpt lat="45.07911" lon="2.63136">
        <ele>1550.92</ele>
        <time>2022-10-19T14:10:18.531Z</time>
      </trkpt>
      <trkpt lat="45.07908" lon="2.6313">
        <ele>1550.98</ele>
        <time>2022-10-19T14:10:28.030Z</time>
      </trkpt>
      <trkpt lat="45.07906" lon="2.63125">
        <ele>1552.97</ele>
        <time>2022-10-19T14:10:37.451Z</time>
      </trkpt>
      <trkpt lat="45.07902" lon="2.6312">
        <ele>1552.98</ele>
        <time>2022-10-19T14:10:46.560Z</time>
      </trkpt>
      <trkpt lat="45.07896" lon="2.63114">
        <ele>1552.98</ele>
        <time>2022-10-19T14:10:56.000Z</time>
      </trkpt>
      <trkpt lat="45.07894" lon="2.63104">
        <ele>1551.04</ele>
        <time>2022-10-19T14:11:05.372Z</time>
      </trkpt>
      <trkpt lat="45.07887" lon="2.63091">
        <ele>1550.98</ele>
        <time>2022-10-19T14:11:14.931Z</time>
      </trkpt>
      <trkpt lat="45.07882" lon="2.6308">
        <ele>1550.98</ele>
        <time>2022-10-19T14:11:24.114Z</time>
      </trkpt>
      <trkpt lat="45.07881" lon="2.63067">
        <ele>1550.98</ele>
        <time>2022-10-19T14:11:33.470Z</time>
      </trkpt>
      <trkpt lat="45.07881" lon="2.63057">
        <ele>1550.98</ele>
        <time>2022-10-19T14:11:43.000Z</time>
      </trkpt>
      <trkpt lat="45.07878" lon="2.63051">
        <ele>1551.98</ele>
        <time>2022-10-19T14:11:52.114Z</time>
      </trkpt>
      <trkpt lat="45.0788" lon="2.63044">
        <ele>1550.98</ele>
        <time>2022-10-19T14:12:02.000Z</time>
      </trkpt>
      <trkpt lat="45.07881" lon="2.63036">
        <ele>1551.98</ele>
        <time>2022-10-19T14:12:11.413Z</time>
      </trkpt>
      <trkpt lat="45.07878" lon="2.6303">
        <ele>1552.23</ele>
        <time>2022-10-19T14:12:22.000Z</time>
      </trkpt>
      <trkpt lat="45.07876" lon="2.63022">
        <ele>1553.92</ele>
        <time>2022-10-19T14:12:31.472Z</time>
      </trkpt>
      <trkpt lat="45.07873" lon="2.63018">
        <ele>1554.75</ele>
        <time>2022-10-19T14:12:41.000Z</time>
      </trkpt>
      <trkpt lat="45.07872" lon="2.63016">
        <ele>1554.05</ele>
        <time>2022-10-19T14:12:51.000Z</time>
      </trkpt>
      <trkpt lat="45.07871" lon="2.63015">
        <ele>1553.98</ele>
        <time>2022-10-19T14:13:01.000Z</time>
      </trkpt>
      <trkpt lat="45.0787" lon="2.63014">
        <ele>1553.98</ele>
        <time>2022-10-19T14:13:10.511Z</time>
      </trkpt>
      <trkpt lat="45.07867" lon="2.63005">
        <ele>1552.98</ele>
        <time>2022-10-19T14:13:19.534Z</time>
      </trkpt>
      <trkpt lat="45.07863" lon="2.62998">
        <ele>1553.92</ele>
        <time>2022-10-19T14:13:29.000Z</time>
      </trkpt>
      <trkpt lat="45.07863" lon="2.62992">
        <ele>1552.99</ele>
        <time>2022-10-19T14:13:38.243Z</time>
      </trkpt>
      <trkpt lat="45.07862" lon="2.62989">
        <ele>1552.98</ele>
        <time>2022-10-19T14:13:48.000Z</time>
      </trkpt>
      <trkpt lat="45.07861" lon="2.62989">
        <ele>1552.98</ele>
        <time>2022-10-19T14:13:58.000Z</time>
      </trkpt>
      <trkpt lat="45.07857" lon="2.62978">
        <ele>1552.98</ele>
        <time>2022-10-19T14:14:07.154Z</time>
      </trkpt>
      <trkpt lat="45.07854" lon="2.62968">
        <ele>1551.98</ele>
        <time>2022-10-19T14:14:16.232Z</time>
      </trkpt>
      <trkpt lat="45.07849" lon="2.62958">
        <ele>1550.24</ele>
        <time>2022-10-19T14:14:25.512Z</time>
      </trkpt>
      <trkpt lat="45.07847" lon="2.62947">
        <ele>1549.05</ele>
        <time>2022-10-19T14:14:34.553Z</time>
      </trkpt>
      <trkpt lat="45.07845" lon="2.62935">
        <ele>1548.99</ele>
        <time>2022-10-19T14:14:44.111Z</time>
      </trkpt>
      <trkpt lat="45.07843" lon="2.62924">
        <ele>1547</ele>
        <time>2022-10-19T14:14:53.191Z</time>
      </trkpt>
      <trkpt lat="45.07843" lon="2.62911">
        <ele>1545.99</ele>
        <time>2022-10-19T14:15:03.000Z</time>
      </trkpt>
      <trkpt lat="45.07838" lon="2.62899">
        <ele>1544.99</ele>
        <time>2022-10-19T14:15:12.071Z</time>
      </trkpt>
      <trkpt lat="45.07837" lon="2.62887">
        <ele>1544.22</ele>
        <time>2022-10-19T14:15:21.171Z</time>
      </trkpt>
      <trkpt lat="45.07835" lon="2.62875">
        <ele>1543.24</ele>
        <time>2022-10-19T14:15:30.292Z</time>
      </trkpt>
      <trkpt lat="45.07837" lon="2.62868">
        <ele>1541</ele>
        <time>2022-10-19T14:15:40.000Z</time>
      </trkpt>
      <trkpt lat="45.07837" lon="2.62865">
        <ele>1540.05</ele>
        <time>2022-10-19T14:15:50.000Z</time>
      </trkpt>
      <trkpt lat="45.07837" lon="2.62857">
        <ele>1538.99</ele>
        <time>2022-10-19T14:15:59.412Z</time>
      </trkpt>
      <trkpt lat="45.07833" lon="2.62851">
        <ele>1537.24</ele>
        <time>2022-10-19T14:16:09.000Z</time>
      </trkpt>
      <trkpt lat="45.07831" lon="2.62846">
        <ele>1535.99</ele>
        <time>2022-10-19T14:16:18.473Z</time>
      </trkpt>
      <trkpt lat="45.07825" lon="2.62841">
        <ele>1534.24</ele>
        <time>2022-10-19T14:16:28.112Z</time>
      </trkpt>
      <trkpt lat="45.07826" lon="2.62831">
        <ele>1532.99</ele>
        <time>2022-10-19T14:16:37.193Z</time>
      </trkpt>
      <trkpt lat="45.07823" lon="2.62823">
        <ele>1531.99</ele>
        <time>2022-10-19T14:16:46.591Z</time>
      </trkpt>
      <trkpt lat="45.0782" lon="2.62816">
        <ele>1530.99</ele>
        <time>2022-10-19T14:16:56.030Z</time>
      </trkpt>
      <trkpt lat="45.07818" lon="2.62805">
        <ele>1529.99</ele>
        <time>2022-10-19T14:17:05.071Z</time>
      </trkpt>
      <trkpt lat="45.07814" lon="2.62796">
        <ele>1527.99</ele>
        <time>2022-10-19T14:17:14.452Z</time>
      </trkpt>
      <trkpt lat="45.07813" lon="2.62787">
        <ele>1526.99</ele>
        <time>2022-10-19T14:17:23.533Z</time>
      </trkpt>
      <trkpt lat="45.07812" lon="2.62777">
        <ele>1525.99</ele>
        <time>2022-10-19T14:17:33.070Z</time>
      </trkpt>
      <trkpt lat="45.07809" lon="2.62767">
        <ele>1523.99</ele>
        <time>2022-10-19T14:17:42.980Z</time>
      </trkpt>
      <trkpt lat="45.07805" lon="2.62756">
        <ele>1522</ele>
        <time>2022-10-19T14:17:52.251Z</time>
      </trkpt>
      <trkpt lat="45.07804" lon="2.62745">
        <ele>1520.99</ele>
        <time>2022-10-19T14:18:01.331Z</time>
      </trkpt>
      <trkpt lat="45.07802" lon="2.62734">
        <ele>1519.99</ele>
        <time>2022-10-19T14:18:10.512Z</time>
      </trkpt>
      <trkpt lat="45.078" lon="2.62723">
        <ele>1518.99</ele>
        <time>2022-10-19T14:18:19.892Z</time>
      </trkpt>
      <trkpt lat="45.07797" lon="2.62715">
        <ele>1517.99</ele>
        <time>2022-10-19T14:18:29.151Z</time>
      </trkpt>
      <trkpt lat="45.07794" lon="2.62707">
        <ele>1516.05</ele>
        <time>2022-10-19T14:18:38.512Z</time>
      </trkpt>
      <trkpt lat="45.07791" lon="2.62698">
        <ele>1514.99</ele>
        <time>2022-10-19T14:18:48.274Z</time>
      </trkpt>
      <trkpt lat="45.07786" lon="2.62691">
        <ele>1513.99</ele>
        <time>2022-10-19T14:18:57.551Z</time>
      </trkpt>
      <trkpt lat="45.07784" lon="2.62688">
        <ele>1512.05</ele>
        <time>2022-10-19T14:19:07.000Z</time>
      </trkpt>
      <trkpt lat="45.07785" lon="2.62689">
        <ele>1511.99</ele>
        <time>2022-10-19T14:19:28.000Z</time>
      </trkpt>
      <trkpt lat="45.07785" lon="2.62688">
        <ele>1512.74</ele>
        <time>2022-10-19T14:20:08.000Z</time>
      </trkpt>
      <trkpt lat="45.07785" lon="2.62689">
        <ele>1512.98</ele>
        <time>2022-10-19T14:23:24.000Z</time>
      </trkpt>
      <trkpt lat="45.07785" lon="2.62688">
        <ele>1510.99</ele>
        <time>2022-10-19T14:23:46.352Z</time>
      </trkpt>
      <trkpt lat="45.07787" lon="2.62682">
        <ele>1510.05</ele>
        <time>2022-10-19T14:23:56.092Z</time>
      </trkpt>
      <trkpt lat="45.07785" lon="2.62672">
        <ele>1509.01</ele>
        <time>2022-10-19T14:24:05.793Z</time>
      </trkpt>
      <trkpt lat="45.07782" lon="2.62662">
        <ele>1507.99</ele>
        <time>2022-10-19T14:24:15.450Z</time>
      </trkpt>
      <trkpt lat="45.07778" lon="2.62654">
        <ele>1505.24</ele>
        <time>2022-10-19T14:24:25.000Z</time>
      </trkpt>
      <trkpt lat="45.07772" lon="2.62646">
        <ele>1504</ele>
        <time>2022-10-19T14:24:34.193Z</time>
      </trkpt>
      <trkpt lat="45.07771" lon="2.62636">
        <ele>1503.24</ele>
        <time>2022-10-19T14:24:44.000Z</time>
      </trkpt>
      <trkpt lat="45.07769" lon="2.62625">
        <ele>1501.99</ele>
        <time>2022-10-19T14:24:53.032Z</time>
      </trkpt>
      <trkpt lat="45.07766" lon="2.62612">
        <ele>1500.99</ele>
        <time>2022-10-19T14:25:02.931Z</time>
      </trkpt>
      <trkpt lat="45.07761" lon="2.62599">
        <ele>1500</ele>
        <time>2022-10-19T14:25:12.270Z</time>
      </trkpt>
      <trkpt lat="45.07756" lon="2.62588">
        <ele>1499.99</ele>
        <time>2022-10-19T14:25:21.573Z</time>
      </trkpt>
      <trkpt lat="45.0775" lon="2.6258">
        <ele>1497.99</ele>
        <time>2022-10-19T14:25:30.612Z</time>
      </trkpt>
      <trkpt lat="45.0774" lon="2.62575">
        <ele>1496.24</ele>
        <time>2022-10-19T14:25:40.153Z</time>
      </trkpt>
      <trkpt lat="45.07733" lon="2.62565">
        <ele>1495.99</ele>
        <time>2022-10-19T14:25:50.000Z</time>
      </trkpt>
      <trkpt lat="45.07726" lon="2.62553">
        <ele>1495.99</ele>
        <time>2022-10-19T14:25:59.198Z</time>
      </trkpt>
      <trkpt lat="45.07721" lon="2.62541">
        <ele>1495.99</ele>
        <time>2022-10-19T14:26:08.691Z</time>
      </trkpt>
      <trkpt lat="45.07715" lon="2.6253">
        <ele>1495.99</ele>
        <time>2022-10-19T14:26:18.131Z</time>
      </trkpt>
      <trkpt lat="45.07711" lon="2.62522">
        <ele>1495.99</ele>
        <time>2022-10-19T14:26:28.000Z</time>
      </trkpt>
      <trkpt lat="45.07705" lon="2.62516">
        <ele>1495.99</ele>
        <time>2022-10-19T14:26:37.394Z</time>
      </trkpt>
      <trkpt lat="45.077" lon="2.62509">
        <ele>1495.99</ele>
        <time>2022-10-19T14:26:46.992Z</time>
      </trkpt>
      <trkpt lat="45.07695" lon="2.62502">
        <ele>1496.99</ele>
        <time>2022-10-19T14:26:56.000Z</time>
      </trkpt>
      <trkpt lat="45.07687" lon="2.62497">
        <ele>1496.99</ele>
        <time>2022-10-19T14:27:05.473Z</time>
      </trkpt>
      <trkpt lat="45.07682" lon="2.62484">
        <ele>1498.74</ele>
        <time>2022-10-19T14:27:15.571Z</time>
      </trkpt>
      <trkpt lat="45.07682" lon="2.62469">
        <ele>1498.24</ele>
        <time>2022-10-19T14:27:25.000Z</time>
      </trkpt>
      <trkpt lat="45.07681" lon="2.6246">
        <ele>1497.01</ele>
        <time>2022-10-19T14:27:34.613Z</time>
      </trkpt>
      <trkpt lat="45.07677" lon="2.62446">
        <ele>1498.99</ele>
        <time>2022-10-19T14:27:44.172Z</time>
      </trkpt>
      <trkpt lat="45.07673" lon="2.62433">
        <ele>1499</ele>
        <time>2022-10-19T14:27:53.552Z</time>
      </trkpt>
      <trkpt lat="45.07669" lon="2.62419">
        <ele>1498.75</ele>
        <time>2022-10-19T14:28:03.491Z</time>
      </trkpt>
      <trkpt lat="45.07667" lon="2.62405">
        <ele>1498</ele>
        <time>2022-10-19T14:28:13.454Z</time>
      </trkpt>
      <trkpt lat="45.07664" lon="2.62393">
        <ele>1497.93</ele>
        <time>2022-10-19T14:28:23.000Z</time>
      </trkpt>
      <trkpt lat="45.07662" lon="2.62384">
        <ele>1497</ele>
        <time>2022-10-19T14:28:33.000Z</time>
      </trkpt>
      <trkpt lat="45.07658" lon="2.62377">
        <ele>1496.01</ele>
        <time>2022-10-19T14:28:42.172Z</time>
      </trkpt>
      <trkpt lat="45.07657" lon="2.62365">
        <ele>1496</ele>
        <time>2022-10-19T14:28:51.432Z</time>
      </trkpt>
      <trkpt lat="45.07656" lon="2.62352">
        <ele>1496</ele>
        <time>2022-10-19T14:29:00.491Z</time>
      </trkpt>
      <trkpt lat="45.07654" lon="2.62339">
        <ele>1496</ele>
        <time>2022-10-19T14:29:09.893Z</time>
      </trkpt>
      <trkpt lat="45.07651" lon="2.62329">
        <ele>1494</ele>
        <time>2022-10-19T14:29:19.053Z</time>
      </trkpt>
      <trkpt lat="45.07647" lon="2.62316">
        <ele>1493</ele>
        <time>2022-10-19T14:29:28.432Z</time>
      </trkpt>
      <trkpt lat="45.07643" lon="2.62303">
        <ele>1493</ele>
        <time>2022-10-19T14:29:37.477Z</time>
      </trkpt>
      <trkpt lat="45.07638" lon="2.62293">
        <ele>1492</ele>
        <time>2022-10-19T14:29:47.000Z</time>
      </trkpt>
      <trkpt lat="45.07638" lon="2.6228">
        <ele>1491</ele>
        <time>2022-10-19T14:29:56.351Z</time>
      </trkpt>
      <trkpt lat="45.07636" lon="2.62267">
        <ele>1491</ele>
        <time>2022-10-19T14:30:05.451Z</time>
      </trkpt>
      <trkpt lat="45.07633" lon="2.62256">
        <ele>1491.94</ele>
        <time>2022-10-19T14:30:15.000Z</time>
      </trkpt>
      <trkpt lat="45.0763" lon="2.62248">
        <ele>1491</ele>
        <time>2022-10-19T14:30:24.453Z</time>
      </trkpt>
      <trkpt lat="45.07628" lon="2.62238">
        <ele>1490</ele>
        <time>2022-10-19T14:30:34.000Z</time>
      </trkpt>
      <trkpt lat="45.07625" lon="2.62231">
        <ele>1489</ele>
        <time>2022-10-19T14:30:43.191Z</time>
      </trkpt>
      <trkpt lat="45.07624" lon="2.62228">
        <ele>1487.06</ele>
        <time>2022-10-19T14:30:52.331Z</time>
      </trkpt>
      <trkpt lat="45.07623" lon="2.62221">
        <ele>1486</ele>
        <time>2022-10-19T14:31:02.000Z</time>
      </trkpt>
      <trkpt lat="45.07622" lon="2.62216">
        <ele>1485</ele>
        <time>2022-10-19T14:31:11.291Z</time>
      </trkpt>
      <trkpt lat="45.07622" lon="2.62211">
        <ele>1485</ele>
        <time>2022-10-19T14:31:21.610Z</time>
      </trkpt>
      <trkpt lat="45.0762" lon="2.62202">
        <ele>1483.02</ele>
        <time>2022-10-19T14:31:31.140Z</time>
      </trkpt>
      <trkpt lat="45.07622" lon="2.62194">
        <ele>1481.25</ele>
        <time>2022-10-19T14:31:40.332Z</time>
      </trkpt>
      <trkpt lat="45.07625" lon="2.6218">
        <ele>1481.02</ele>
        <time>2022-10-19T14:31:50.000Z</time>
      </trkpt>
      <trkpt lat="45.07629" lon="2.62169">
        <ele>1480</ele>
        <time>2022-10-19T14:31:59.091Z</time>
      </trkpt>
      <trkpt lat="45.07634" lon="2.62165">
        <ele>1480</ele>
        <time>2022-10-19T14:32:08.590Z</time>
      </trkpt>
      <trkpt lat="45.07634" lon="2.62157">
        <ele>1480</ele>
        <time>2022-10-19T14:32:18.000Z</time>
      </trkpt>
      <trkpt lat="45.07637" lon="2.62144">
        <ele>1479.01</ele>
        <time>2022-10-19T14:32:27.252Z</time>
      </trkpt>
      <trkpt lat="45.07642" lon="2.62135">
        <ele>1478.25</ele>
        <time>2022-10-19T14:32:37.030Z</time>
      </trkpt>
      <trkpt lat="45.07645" lon="2.62128">
        <ele>1477.75</ele>
        <time>2022-10-19T14:32:47.000Z</time>
      </trkpt>
      <trkpt lat="45.07648" lon="2.62115">
        <ele>1478</ele>
        <time>2022-10-19T14:32:57.000Z</time>
      </trkpt>
      <trkpt lat="45.07652" lon="2.62106">
        <ele>1477</ele>
        <time>2022-10-19T14:33:07.000Z</time>
      </trkpt>
      <trkpt lat="45.07654" lon="2.62102">
        <ele>1475.02</ele>
        <time>2022-10-19T14:33:16.592Z</time>
      </trkpt>
      <trkpt lat="45.07661" lon="2.62094">
        <ele>1474.75</ele>
        <time>2022-10-19T14:33:25.984Z</time>
      </trkpt>
      <trkpt lat="45.07663" lon="2.62082">
        <ele>1474.06</ele>
        <time>2022-10-19T14:33:35.511Z</time>
      </trkpt>
      <trkpt lat="45.07667" lon="2.62075">
        <ele>1474</ele>
        <time>2022-10-19T14:33:45.212Z</time>
      </trkpt>
      <trkpt lat="45.07671" lon="2.62066">
        <ele>1473</ele>
        <time>2022-10-19T14:33:55.000Z</time>
      </trkpt>
      <trkpt lat="45.0767" lon="2.62053">
        <ele>1472</ele>
        <time>2022-10-19T14:34:04.091Z</time>
      </trkpt>
      <trkpt lat="45.0767" lon="2.62041">
        <ele>1470.99</ele>
        <time>2022-10-19T14:34:13.352Z</time>
      </trkpt>
      <trkpt lat="45.0767" lon="2.6203">
        <ele>1469.25</ele>
        <time>2022-10-19T14:34:22.392Z</time>
      </trkpt>
      <trkpt lat="45.07671" lon="2.62017">
        <ele>1468.02</ele>
        <time>2022-10-19T14:34:32.552Z</time>
      </trkpt>
      <trkpt lat="45.07673" lon="2.62007">
        <ele>1467.01</ele>
        <time>2022-10-19T14:34:41.911Z</time>
      </trkpt>
      <trkpt lat="45.07674" lon="2.61999">
        <ele>1466</ele>
        <time>2022-10-19T14:34:51.000Z</time>
      </trkpt>
      <trkpt lat="45.07675" lon="2.6199">
        <ele>1465.01</ele>
        <time>2022-10-19T14:35:01.000Z</time>
      </trkpt>
      <trkpt lat="45.07678" lon="2.61982">
        <ele>1463.01</ele>
        <time>2022-10-19T14:35:10.350Z</time>
      </trkpt>
      <trkpt lat="45.07681" lon="2.61975">
        <ele>1462</ele>
        <time>2022-10-19T14:35:20.032Z</time>
      </trkpt>
      <trkpt lat="45.07682" lon="2.61964">
        <ele>1459.01</ele>
        <time>2022-10-19T14:35:29.592Z</time>
      </trkpt>
      <trkpt lat="45.07684" lon="2.61957">
        <ele>1458.07</ele>
        <time>2022-10-19T14:35:38.912Z</time>
      </trkpt>
      <trkpt lat="45.07686" lon="2.61948">
        <ele>1457.07</ele>
        <time>2022-10-19T14:35:47.976Z</time>
      </trkpt>
      <trkpt lat="45.07688" lon="2.61937">
        <ele>1456.07</ele>
        <time>2022-10-19T14:35:57.054Z</time>
      </trkpt>
      <trkpt lat="45.07691" lon="2.61928">
        <ele>1455</ele>
        <time>2022-10-19T14:36:06.312Z</time>
      </trkpt>
      <trkpt lat="45.07696" lon="2.61918">
        <ele>1453.25</ele>
        <time>2022-10-19T14:36:15.750Z</time>
      </trkpt>
      <trkpt lat="45.07699" lon="2.61904">
        <ele>1451.25</ele>
        <time>2022-10-19T14:36:25.092Z</time>
      </trkpt>
      <trkpt lat="45.07702" lon="2.6189">
        <ele>1450.01</ele>
        <time>2022-10-19T14:36:35.000Z</time>
      </trkpt>
      <trkpt lat="45.07706" lon="2.61877">
        <ele>1450</ele>
        <time>2022-10-19T14:36:44.233Z</time>
      </trkpt>
      <trkpt lat="45.07712" lon="2.61865">
        <ele>1449</ele>
        <time>2022-10-19T14:36:54.372Z</time>
      </trkpt>
      <trkpt lat="45.07717" lon="2.61854">
        <ele>1448</ele>
        <time>2022-10-19T14:37:03.373Z</time>
      </trkpt>
      <trkpt lat="45.07721" lon="2.61842">
        <ele>1448</ele>
        <time>2022-10-19T14:37:13.000Z</time>
      </trkpt>
      <trkpt lat="45.07727" lon="2.61832">
        <ele>1448.01</ele>
        <time>2022-10-19T14:37:22.376Z</time>
      </trkpt>
      <trkpt lat="45.0773" lon="2.6182">
        <ele>1447.01</ele>
        <time>2022-10-19T14:37:32.000Z</time>
      </trkpt>
      <trkpt lat="45.0773" lon="2.61821">
        <ele>1448.01</ele>
        <time>2022-10-19T14:37:44.000Z</time>
      </trkpt>
      <trkpt lat="45.07731" lon="2.61812">
        <ele>1448.01</ele>
        <time>2022-10-19T14:37:53.171Z</time>
      </trkpt>
      <trkpt lat="45.07736" lon="2.618">
        <ele>1447.76</ele>
        <time>2022-10-19T14:38:02.511Z</time>
      </trkpt>
      <trkpt lat="45.07738" lon="2.61788">
        <ele>1446.26</ele>
        <time>2022-10-19T14:38:12.000Z</time>
      </trkpt>
      <trkpt lat="45.07741" lon="2.61776">
        <ele>1445.01</ele>
        <time>2022-10-19T14:38:21.212Z</time>
      </trkpt>
      <trkpt lat="45.07742" lon="2.61768">
        <ele>1443.01</ele>
        <time>2022-10-19T14:38:30.414Z</time>
      </trkpt>
      <trkpt lat="45.07739" lon="2.61764">
        <ele>1443.01</ele>
        <time>2022-10-19T14:38:39.791Z</time>
      </trkpt>
      <trkpt lat="45.07734" lon="2.61759">
        <ele>1442.01</ele>
        <time>2022-10-19T14:38:49.513Z</time>
      </trkpt>
      <trkpt lat="45.07731" lon="2.61755">
        <ele>1440.01</ele>
        <time>2022-10-19T14:38:59.000Z</time>
      </trkpt>
      <trkpt lat="45.07727" lon="2.61748">
        <ele>1438.02</ele>
        <time>2022-10-19T14:39:08.393Z</time>
      </trkpt>
      <trkpt lat="45.07721" lon="2.61742">
        <ele>1436.07</ele>
        <time>2022-10-19T14:39:18.000Z</time>
      </trkpt>
      <trkpt lat="45.07715" lon="2.61735">
        <ele>1434.01</ele>
        <time>2022-10-19T14:39:27.730Z</time>
      </trkpt>
      <trkpt lat="45.07709" lon="2.61729">
        <ele>1432.01</ele>
        <time>2022-10-19T14:39:37.000Z</time>
      </trkpt>
      <trkpt lat="45.07704" lon="2.61723">
        <ele>1430.02</ele>
        <time>2022-10-19T14:39:46.293Z</time>
      </trkpt>
      <trkpt lat="45.07698" lon="2.61715">
        <ele>1428.26</ele>
        <time>2022-10-19T14:39:56.454Z</time>
      </trkpt>
      <trkpt lat="45.07693" lon="2.61709">
        <ele>1427.01</ele>
        <time>2022-10-19T14:40:05.770Z</time>
      </trkpt>
      <trkpt lat="45.07692" lon="2.61707">
        <ele>1426.26</ele>
        <time>2022-10-19T14:40:15.172Z</time>
      </trkpt>
      <trkpt lat="45.07689" lon="2.617">
        <ele>1426.02</ele>
        <time>2022-10-19T14:40:25.000Z</time>
      </trkpt>
      <trkpt lat="45.07687" lon="2.61692">
        <ele>1425.01</ele>
        <time>2022-10-19T14:40:34.132Z</time>
      </trkpt>
      <trkpt lat="45.07683" lon="2.61683">
        <ele>1425.01</ele>
        <time>2022-10-19T14:40:43.353Z</time>
      </trkpt>
      <trkpt lat="45.07679" lon="2.61677">
        <ele>1424.01</ele>
        <time>2022-10-19T14:40:53.000Z</time>
      </trkpt>
      <trkpt lat="45.07676" lon="2.61667">
        <ele>1420.51</ele>
        <time>2022-10-19T14:41:03.000Z</time>
      </trkpt>
      <trkpt lat="45.07676" lon="2.61656">
        <ele>1419.01</ele>
        <time>2022-10-19T14:41:12.612Z</time>
      </trkpt>
      <trkpt lat="45.07675" lon="2.61649">
        <ele>1417.26</ele>
        <time>2022-10-19T14:41:22.000Z</time>
      </trkpt>
      <trkpt lat="45.07674" lon="2.61636">
        <ele>1416.01</ele>
        <time>2022-10-19T14:41:31.211Z</time>
      </trkpt>
      <trkpt lat="45.07673" lon="2.61627">
        <ele>1414.07</ele>
        <time>2022-10-19T14:41:40.491Z</time>
      </trkpt>
      <trkpt lat="45.07675" lon="2.61617">
        <ele>1412.26</ele>
        <time>2022-10-19T14:41:50.000Z</time>
      </trkpt>
      <trkpt lat="45.07675" lon="2.61606">
        <ele>1410.01</ele>
        <time>2022-10-19T14:41:59.171Z</time>
      </trkpt>
      <trkpt lat="45.07675" lon="2.61596">
        <ele>1408.01</ele>
        <time>2022-10-19T14:42:09.000Z</time>
      </trkpt>
      <trkpt lat="45.07676" lon="2.61589">
        <ele>1406.06</ele>
        <time>2022-10-19T14:42:18.317Z</time>
      </trkpt>
      <trkpt lat="45.07673" lon="2.61579">
        <ele>1404.03</ele>
        <time>2022-10-19T14:42:27.532Z</time>
      </trkpt>
      <trkpt lat="45.07672" lon="2.6157">
        <ele>1403.01</ele>
        <time>2022-10-19T14:42:37.000Z</time>
      </trkpt>
      <trkpt lat="45.0767" lon="2.61561">
        <ele>1402.01</ele>
        <time>2022-10-19T14:42:47.000Z</time>
      </trkpt>
      <trkpt lat="45.07667" lon="2.61552">
        <ele>1401.01</ele>
        <time>2022-10-19T14:42:56.131Z</time>
      </trkpt>
      <trkpt lat="45.07665" lon="2.61542">
        <ele>1400.01</ele>
        <time>2022-10-19T14:43:05.391Z</time>
      </trkpt>
      <trkpt lat="45.0766" lon="2.61534">
        <ele>1399.01</ele>
        <time>2022-10-19T14:43:14.432Z</time>
      </trkpt>
      <trkpt lat="45.07654" lon="2.61529">
        <ele>1397.01</ele>
        <time>2022-10-19T14:43:24.000Z</time>
      </trkpt>
      <trkpt lat="45.07651" lon="2.61519">
        <ele>1395.03</ele>
        <time>2022-10-19T14:43:33.071Z</time>
      </trkpt>
      <trkpt lat="45.07645" lon="2.61512">
        <ele>1393.03</ele>
        <time>2022-10-19T14:43:42.254Z</time>
      </trkpt>
      <trkpt lat="45.07643" lon="2.61504">
        <ele>1392.01</ele>
        <time>2022-10-19T14:43:51.450Z</time>
      </trkpt>
      <trkpt lat="45.07639" lon="2.61494">
        <ele>1390.01</ele>
        <time>2022-10-19T14:44:01.000Z</time>
      </trkpt>
      <trkpt lat="45.07635" lon="2.61485">
        <ele>1388.01</ele>
        <time>2022-10-19T14:44:10.532Z</time>
      </trkpt>
      <trkpt lat="45.07633" lon="2.61476">
        <ele>1386.26</ele>
        <time>2022-10-19T14:44:20.000Z</time>
      </trkpt>
      <trkpt lat="45.0763" lon="2.61466">
        <ele>1385.07</ele>
        <time>2022-10-19T14:44:29.559Z</time>
      </trkpt>
      <trkpt lat="45.07628" lon="2.61457">
        <ele>1384.01</ele>
        <time>2022-10-19T14:44:39.173Z</time>
      </trkpt>
      <trkpt lat="45.07627" lon="2.61447">
        <ele>1382.01</ele>
        <time>2022-10-19T14:44:48.474Z</time>
      </trkpt>
      <trkpt lat="45.07625" lon="2.61439">
        <ele>1380.26</ele>
        <time>2022-10-19T14:44:57.591Z</time>
      </trkpt>
      <trkpt lat="45.07624" lon="2.61431">
        <ele>1379.02</ele>
        <time>2022-10-19T14:45:07.000Z</time>
      </trkpt>
      <trkpt lat="45.07625" lon="2.6142">
        <ele>1377.01</ele>
        <time>2022-10-19T14:45:16.454Z</time>
      </trkpt>
      <trkpt lat="45.07624" lon="2.61412">
        <ele>1376.01</ele>
        <time>2022-10-19T14:45:25.990Z</time>
      </trkpt>
      <trkpt lat="45.07622" lon="2.61401">
        <ele>1375.01</ele>
        <time>2022-10-19T14:45:35.532Z</time>
      </trkpt>
      <trkpt lat="45.0762" lon="2.6139">
        <ele>1373.77</ele>
        <time>2022-10-19T14:45:44.831Z</time>
      </trkpt>
      <trkpt lat="45.07622" lon="2.6138">
        <ele>1372.03</ele>
        <time>2022-10-19T14:45:53.872Z</time>
      </trkpt>
      <trkpt lat="45.0762" lon="2.6137">
        <ele>1371.01</ele>
        <time>2022-10-19T14:46:03.000Z</time>
      </trkpt>
      <trkpt lat="45.07617" lon="2.61361">
        <ele>1370.01</ele>
        <time>2022-10-19T14:46:12.292Z</time>
      </trkpt>
      <trkpt lat="45.07616" lon="2.61351">
        <ele>1367.08</ele>
        <time>2022-10-19T14:46:21.557Z</time>
      </trkpt>
      <trkpt lat="45.07613" lon="2.61339">
        <ele>1365.01</ele>
        <time>2022-10-19T14:46:30.987Z</time>
      </trkpt>
      <trkpt lat="45.07613" lon="2.61328">
        <ele>1363.03</ele>
        <time>2022-10-19T14:46:41.000Z</time>
      </trkpt>
      <trkpt lat="45.07611" lon="2.6132">
        <ele>1361.01</ele>
        <time>2022-10-19T14:46:50.152Z</time>
      </trkpt>
      <trkpt lat="45.07612" lon="2.61319">
        <ele>1361.01</ele>
        <time>2022-10-19T14:47:00.000Z</time>
      </trkpt>
      <trkpt lat="45.07612" lon="2.61317">
        <ele>1360.02</ele>
        <time>2022-10-19T14:47:11.071Z</time>
      </trkpt>
      <trkpt lat="45.07609" lon="2.61314">
        <ele>1359.01</ele>
        <time>2022-10-19T14:47:21.000Z</time>
      </trkpt>
      <trkpt lat="45.07611" lon="2.61313">
        <ele>1359.01</ele>
        <time>2022-10-19T14:47:39.000Z</time>
      </trkpt>
      <trkpt lat="45.07612" lon="2.61312">
        <ele>1360.01</ele>
        <time>2022-10-19T14:47:49.000Z</time>
      </trkpt>
      <trkpt lat="45.07613" lon="2.61311">
        <ele>1359.01</ele>
        <time>2022-10-19T14:48:05.010Z</time>
      </trkpt>
      <trkpt lat="45.07619" lon="2.61303">
        <ele>1358.02</ele>
        <time>2022-10-19T14:48:14.434Z</time>
      </trkpt>
      <trkpt lat="45.07619" lon="2.61296">
        <ele>1357.01</ele>
        <time>2022-10-19T14:48:24.000Z</time>
      </trkpt>
      <trkpt lat="45.07614" lon="2.61291">
        <ele>1358.01</ele>
        <time>2022-10-19T14:48:33.052Z</time>
      </trkpt>
      <trkpt lat="45.07609" lon="2.61286">
        <ele>1358.02</ele>
        <time>2022-10-19T14:48:42.452Z</time>
      </trkpt>
      <trkpt lat="45.07602" lon="2.61279">
        <ele>1358.02</ele>
        <time>2022-10-19T14:48:52.011Z</time>
      </trkpt>
      <trkpt lat="45.07598" lon="2.61272">
        <ele>1356.03</ele>
        <time>2022-10-19T14:49:01.151Z</time>
      </trkpt>
      <trkpt lat="45.07592" lon="2.61267">
        <ele>1355.02</ele>
        <time>2022-10-19T14:49:11.000Z</time>
      </trkpt>
      <trkpt lat="45.07588" lon="2.6126">
        <ele>1354.08</ele>
        <time>2022-10-19T14:49:20.532Z</time>
      </trkpt>
      <trkpt lat="45.07584" lon="2.61251">
        <ele>1352.08</ele>
        <time>2022-10-19T14:49:29.691Z</time>
      </trkpt>
      <trkpt lat="45.0758" lon="2.61243">
        <ele>1351.27</ele>
        <time>2022-10-19T14:49:39.191Z</time>
      </trkpt>
      <trkpt lat="45.07576" lon="2.61236">
        <ele>1350.02</ele>
        <time>2022-10-19T14:49:48.571Z</time>
      </trkpt>
      <trkpt lat="45.07571" lon="2.61229">
        <ele>1347.27</ele>
        <time>2022-10-19T14:49:58.000Z</time>
      </trkpt>
      <trkpt lat="45.07569" lon="2.61218">
        <ele>1345.02</ele>
        <time>2022-10-19T14:50:07.513Z</time>
      </trkpt>
      <trkpt lat="45.07569" lon="2.61207">
        <ele>1342.27</ele>
        <time>2022-10-19T14:50:17.000Z</time>
      </trkpt>
      <trkpt lat="45.0757" lon="2.61198">
        <ele>1340.03</ele>
        <time>2022-10-19T14:50:26.092Z</time>
      </trkpt>
      <trkpt lat="45.0757" lon="2.6119">
        <ele>1339.02</ele>
        <time>2022-10-19T14:50:35.112Z</time>
      </trkpt>
      <trkpt lat="45.07571" lon="2.61181">
        <ele>1337.08</ele>
        <time>2022-10-19T14:50:44.453Z</time>
      </trkpt>
      <trkpt lat="45.07573" lon="2.6117">
        <ele>1336.03</ele>
        <time>2022-10-19T14:50:54.533Z</time>
      </trkpt>
      <trkpt lat="45.07576" lon="2.61159">
        <ele>1335.02</ele>
        <time>2022-10-19T14:51:04.000Z</time>
      </trkpt>
      <trkpt lat="45.07578" lon="2.61145">
        <ele>1334.02</ele>
        <time>2022-10-19T14:51:13.451Z</time>
      </trkpt>
      <trkpt lat="45.07581" lon="2.61133">
        <ele>1333.02</ele>
        <time>2022-10-19T14:51:23.000Z</time>
      </trkpt>
      <trkpt lat="45.07582" lon="2.6112">
        <ele>1334</ele>
        <time>2022-10-19T14:51:33.000Z</time>
      </trkpt>
      <trkpt lat="45.07584" lon="2.6111">
        <ele>1334.02</ele>
        <time>2022-10-19T14:51:42.212Z</time>
      </trkpt>
      <trkpt lat="45.07584" lon="2.61098">
        <ele>1335.08</ele>
        <time>2022-10-19T14:51:51.610Z</time>
      </trkpt>
      <trkpt lat="45.07584" lon="2.61091">
        <ele>1334.03</ele>
        <time>2022-10-19T14:52:01.000Z</time>
      </trkpt>
      <trkpt lat="45.07583" lon="2.61081">
        <ele>1334.02</ele>
        <time>2022-10-19T14:52:10.590Z</time>
      </trkpt>
      <trkpt lat="45.07583" lon="2.6107">
        <ele>1334.02</ele>
        <time>2022-10-19T14:52:20.251Z</time>
      </trkpt>
      <trkpt lat="45.07584" lon="2.61061">
        <ele>1334.02</ele>
        <time>2022-10-19T14:52:29.511Z</time>
      </trkpt>
      <trkpt lat="45.07585" lon="2.6106">
        <ele>1335.02</ele>
        <time>2022-10-19T14:52:41.131Z</time>
      </trkpt>
      <trkpt lat="45.07583" lon="2.61052">
        <ele>1336.02</ele>
        <time>2022-10-19T14:52:51.000Z</time>
      </trkpt>
      <trkpt lat="45.07583" lon="2.61047">
        <ele>1336.02</ele>
        <time>2022-10-19T14:53:01.000Z</time>
      </trkpt>
      <trkpt lat="45.07583" lon="2.61045">
        <ele>1336.02</ele>
        <time>2022-10-19T14:53:25.000Z</time>
      </trkpt>
      <trkpt lat="45.07579" lon="2.61034">
        <ele>1336.02</ele>
        <time>2022-10-19T14:53:34.611Z</time>
      </trkpt>
      <trkpt lat="45.07578" lon="2.61024">
        <ele>1338.02</ele>
        <time>2022-10-19T14:53:44.232Z</time>
      </trkpt>
      <trkpt lat="45.07575" lon="2.61015">
        <ele>1338.02</ele>
        <time>2022-10-19T14:53:53.574Z</time>
      </trkpt>
      <trkpt lat="45.07574" lon="2.61004">
        <ele>1340.02</ele>
        <time>2022-10-19T14:54:03.172Z</time>
      </trkpt>
      <trkpt lat="45.07571" lon="2.60997">
        <ele>1340.02</ele>
        <time>2022-10-19T14:54:13.000Z</time>
      </trkpt>
      <trkpt lat="45.0757" lon="2.60988">
        <ele>1341.02</ele>
        <time>2022-10-19T14:54:23.000Z</time>
      </trkpt>
      <trkpt lat="45.07568" lon="2.60981">
        <ele>1341.02</ele>
        <time>2022-10-19T14:54:33.000Z</time>
      </trkpt>
      <trkpt lat="45.07567" lon="2.60974">
        <ele>1343.02</ele>
        <time>2022-10-19T14:54:42.171Z</time>
      </trkpt>
      <trkpt lat="45.07563" lon="2.60965">
        <ele>1344.02</ele>
        <time>2022-10-19T14:54:52.000Z</time>
      </trkpt>
      <trkpt lat="45.07565" lon="2.60952">
        <ele>1345.02</ele>
        <time>2022-10-19T14:55:01.332Z</time>
      </trkpt>
      <trkpt lat="45.07564" lon="2.60941">
        <ele>1345.02</ele>
        <time>2022-10-19T14:55:10.391Z</time>
      </trkpt>
      <trkpt lat="45.07563" lon="2.60931">
        <ele>1347.01</ele>
        <time>2022-10-19T14:55:19.551Z</time>
      </trkpt>
      <trkpt lat="45.07564" lon="2.60918">
        <ele>1348.02</ele>
        <time>2022-10-19T14:55:28.973Z</time>
      </trkpt>
      <trkpt lat="45.07563" lon="2.60911">
        <ele>1348.96</ele>
        <time>2022-10-19T14:55:38.000Z</time>
      </trkpt>
      <trkpt lat="45.07564" lon="2.60898">
        <ele>1349.02</ele>
        <time>2022-10-19T14:55:47.130Z</time>
      </trkpt>
      <trkpt lat="45.07563" lon="2.60886">
        <ele>1350.02</ele>
        <time>2022-10-19T14:55:57.000Z</time>
      </trkpt>
      <trkpt lat="45.07564" lon="2.60872">
        <ele>1350.02</ele>
        <time>2022-10-19T14:56:06.312Z</time>
      </trkpt>
      <trkpt lat="45.07561" lon="2.60861">
        <ele>1351.02</ele>
        <time>2022-10-19T14:56:16.000Z</time>
      </trkpt>
      <trkpt lat="45.07561" lon="2.60849">
        <ele>1352.02</ele>
        <time>2022-10-19T14:56:25.131Z</time>
      </trkpt>
      <trkpt lat="45.07557" lon="2.60839">
        <ele>1353.02</ele>
        <time>2022-10-19T14:56:34.412Z</time>
      </trkpt>
      <trkpt lat="45.07554" lon="2.60828">
        <ele>1354</ele>
        <time>2022-10-19T14:56:43.913Z</time>
      </trkpt>
      <trkpt lat="45.07553" lon="2.60822">
        <ele>1354.02</ele>
        <time>2022-10-19T14:56:53.392Z</time>
      </trkpt>
      <trkpt lat="45.07551" lon="2.60811">
        <ele>1355.04</ele>
        <time>2022-10-19T14:57:02.590Z</time>
      </trkpt>
      <trkpt lat="45.07546" lon="2.60803">
        <ele>1355.02</ele>
        <time>2022-10-19T14:57:12.152Z</time>
      </trkpt>
      <trkpt lat="45.07539" lon="2.60795">
        <ele>1353.02</ele>
        <time>2022-10-19T14:57:21.792Z</time>
      </trkpt>
      <trkpt lat="45.07534" lon="2.60788">
        <ele>1353.02</ele>
        <time>2022-10-19T14:57:31.452Z</time>
      </trkpt>
      <trkpt lat="45.07527" lon="2.60777">
        <ele>1352.02</ele>
        <time>2022-10-19T14:57:40.573Z</time>
      </trkpt>
      <trkpt lat="45.07519" lon="2.60761">
        <ele>1350.03</ele>
        <time>2022-10-19T14:57:50.090Z</time>
      </trkpt>
      <trkpt lat="45.07513" lon="2.60748">
        <ele>1350.03</ele>
        <time>2022-10-19T14:57:59.112Z</time>
      </trkpt>
      <trkpt lat="45.07507" lon="2.60737">
        <ele>1350.03</ele>
        <time>2022-10-19T14:58:08.332Z</time>
      </trkpt>
      <trkpt lat="45.075" lon="2.60725">
        <ele>1349.26</ele>
        <time>2022-10-19T14:58:17.572Z</time>
      </trkpt>
      <trkpt lat="45.07495" lon="2.60713">
        <ele>1350.02</ele>
        <time>2022-10-19T14:58:27.000Z</time>
      </trkpt>
      <trkpt lat="45.07487" lon="2.60701">
        <ele>1350.96</ele>
        <time>2022-10-19T14:58:36.311Z</time>
      </trkpt>
      <trkpt lat="45.07482" lon="2.60687">
        <ele>1350.03</ele>
        <time>2022-10-19T14:58:45.892Z</time>
      </trkpt>
      <trkpt lat="45.07478" lon="2.60674">
        <ele>1350.03</ele>
        <time>2022-10-19T14:58:55.030Z</time>
      </trkpt>
      <trkpt lat="45.07475" lon="2.60661">
        <ele>1351.03</ele>
        <time>2022-10-19T14:59:04.132Z</time>
      </trkpt>
      <trkpt lat="45.07473" lon="2.60647">
        <ele>1351.03</ele>
        <time>2022-10-19T14:59:13.353Z</time>
      </trkpt>
      <trkpt lat="45.07472" lon="2.60632">
        <ele>1351.03</ele>
        <time>2022-10-19T14:59:23.000Z</time>
      </trkpt>
      <trkpt lat="45.07472" lon="2.60617">
        <ele>1352.03</ele>
        <time>2022-10-19T14:59:32.292Z</time>
      </trkpt>
      <trkpt lat="45.07471" lon="2.60604">
        <ele>1353.04</ele>
        <time>2022-10-19T14:59:41.991Z</time>
      </trkpt>
      <trkpt lat="45.07471" lon="2.60593">
        <ele>1353.28</ele>
        <time>2022-10-19T14:59:52.000Z</time>
      </trkpt>
      <trkpt lat="45.07473" lon="2.60582">
        <ele>1352.09</ele>
        <time>2022-10-19T15:00:01.472Z</time>
      </trkpt>
      <trkpt lat="45.07477" lon="2.60577">
        <ele>1353.76</ele>
        <time>2022-10-19T15:00:11.192Z</time>
      </trkpt>
      <trkpt lat="45.07481" lon="2.60566">
        <ele>1355.01</ele>
        <time>2022-10-19T15:00:20.414Z</time>
      </trkpt>
      <trkpt lat="45.07483" lon="2.60555">
        <ele>1357.03</ele>
        <time>2022-10-19T15:00:30.591Z</time>
      </trkpt>
      <trkpt lat="45.07484" lon="2.60543">
        <ele>1357.78</ele>
        <time>2022-10-19T15:00:40.392Z</time>
      </trkpt>
      <trkpt lat="45.07485" lon="2.60536">
        <ele>1360.03</ele>
        <time>2022-10-19T15:00:49.432Z</time>
      </trkpt>
      <trkpt lat="45.07484" lon="2.60524">
        <ele>1360.03</ele>
        <time>2022-10-19T15:00:59.010Z</time>
      </trkpt>
      <trkpt lat="45.07484" lon="2.60512">
        <ele>1360.03</ele>
        <time>2022-10-19T15:01:08.312Z</time>
      </trkpt>
      <trkpt lat="45.07487" lon="2.60498">
        <ele>1359.03</ele>
        <time>2022-10-19T15:01:17.914Z</time>
      </trkpt>
      <trkpt lat="45.07488" lon="2.60486">
        <ele>1358.03</ele>
        <time>2022-10-19T15:01:27.010Z</time>
      </trkpt>
      <trkpt lat="45.07488" lon="2.60473">
        <ele>1358.03</ele>
        <time>2022-10-19T15:01:36.232Z</time>
      </trkpt>
      <trkpt lat="45.07488" lon="2.6046">
        <ele>1358.03</ele>
        <time>2022-10-19T15:01:45.271Z</time>
      </trkpt>
      <trkpt lat="45.07487" lon="2.60448">
        <ele>1359.97</ele>
        <time>2022-10-19T15:01:54.292Z</time>
      </trkpt>
      <trkpt lat="45.07485" lon="2.60436">
        <ele>1360.03</ele>
        <time>2022-10-19T15:02:03.492Z</time>
      </trkpt>
      <trkpt lat="45.07485" lon="2.60423">
        <ele>1359.28</ele>
        <time>2022-10-19T15:02:13.093Z</time>
      </trkpt>
      <trkpt lat="45.07485" lon="2.60411">
        <ele>1360.03</ele>
        <time>2022-10-19T15:02:22.270Z</time>
      </trkpt>
      <trkpt lat="45.07485" lon="2.60399">
        <ele>1360.03</ele>
        <time>2022-10-19T15:02:31.975Z</time>
      </trkpt>
      <trkpt lat="45.07485" lon="2.6039">
        <ele>1362.78</ele>
        <time>2022-10-19T15:02:41.131Z</time>
      </trkpt>
      <trkpt lat="45.07485" lon="2.6038">
        <ele>1365.02</ele>
        <time>2022-10-19T15:02:50.332Z</time>
      </trkpt>
      <trkpt lat="45.07487" lon="2.6037">
        <ele>1366.02</ele>
        <time>2022-10-19T15:02:59.433Z</time>
      </trkpt>
      <trkpt lat="45.07486" lon="2.60357">
        <ele>1365.03</ele>
        <time>2022-10-19T15:03:08.931Z</time>
      </trkpt>
      <trkpt lat="45.07483" lon="2.60345">
        <ele>1365.03</ele>
        <time>2022-10-19T15:03:18.000Z</time>
      </trkpt>
      <trkpt lat="45.0748" lon="2.60332">
        <ele>1367.02</ele>
        <time>2022-10-19T15:03:27.112Z</time>
      </trkpt>
      <trkpt lat="45.07477" lon="2.6032">
        <ele>1367.03</ele>
        <time>2022-10-19T15:03:36.412Z</time>
      </trkpt>
      <trkpt lat="45.07477" lon="2.60308">
        <ele>1368.03</ele>
        <time>2022-10-19T15:03:45.492Z</time>
      </trkpt>
      <trkpt lat="45.07475" lon="2.60298">
        <ele>1369.8</ele>
        <time>2022-10-19T15:03:55.000Z</time>
      </trkpt>
      <trkpt lat="45.07473" lon="2.60287">
        <ele>1370.03</ele>
        <time>2022-10-19T15:04:04.552Z</time>
      </trkpt>
      <trkpt lat="45.07472" lon="2.60278">
        <ele>1371.03</ele>
        <time>2022-10-19T15:04:14.071Z</time>
      </trkpt>
      <trkpt lat="45.07472" lon="2.60267">
        <ele>1371.08</ele>
        <time>2022-10-19T15:04:23.531Z</time>
      </trkpt>
      <trkpt lat="45.07473" lon="2.60257">
        <ele>1373.03</ele>
        <time>2022-10-19T15:04:33.252Z</time>
      </trkpt>
      <trkpt lat="45.07474" lon="2.60247">
        <ele>1374.03</ele>
        <time>2022-10-19T15:04:43.000Z</time>
      </trkpt>
      <trkpt lat="45.07475" lon="2.60238">
        <ele>1376.03</ele>
        <time>2022-10-19T15:04:52.474Z</time>
      </trkpt>
      <trkpt lat="45.07478" lon="2.60229">
        <ele>1377.97</ele>
        <time>2022-10-19T15:05:01.874Z</time>
      </trkpt>
      <trkpt lat="45.07482" lon="2.60219">
        <ele>1378.78</ele>
        <time>2022-10-19T15:05:11.000Z</time>
      </trkpt>
      <trkpt lat="45.07485" lon="2.60209">
        <ele>1379.78</ele>
        <time>2022-10-19T15:05:20.212Z</time>
      </trkpt>
      <trkpt lat="45.07486" lon="2.60196">
        <ele>1379.03</ele>
        <time>2022-10-19T15:05:30.000Z</time>
      </trkpt>
      <trkpt lat="45.07486" lon="2.60184">
        <ele>1380.04</ele>
        <time>2022-10-19T15:05:39.091Z</time>
      </trkpt>
      <trkpt lat="45.07487" lon="2.60173">
        <ele>1380.1</ele>
        <time>2022-10-19T15:05:48.513Z</time>
      </trkpt>
      <trkpt lat="45.07488" lon="2.60163">
        <ele>1380.04</ele>
        <time>2022-10-19T15:05:58.000Z</time>
      </trkpt>
      <trkpt lat="45.07489" lon="2.60153">
        <ele>1382.04</ele>
        <time>2022-10-19T15:06:07.533Z</time>
      </trkpt>
      <trkpt lat="45.07487" lon="2.60147">
        <ele>1382.97</ele>
        <time>2022-10-19T15:06:17.000Z</time>
      </trkpt>
      <trkpt lat="45.07487" lon="2.60139">
        <ele>1383.04</ele>
        <time>2022-10-19T15:06:26.453Z</time>
      </trkpt>
      <trkpt lat="45.07487" lon="2.60132">
        <ele>1383.97</ele>
        <time>2022-10-19T15:06:36.071Z</time>
      </trkpt>
      <trkpt lat="45.0749" lon="2.60121">
        <ele>1385.04</ele>
        <time>2022-10-19T15:06:45.292Z</time>
      </trkpt>
      <trkpt lat="45.07491" lon="2.60112">
        <ele>1386.08</ele>
        <time>2022-10-19T15:06:54.493Z</time>
      </trkpt>
      <trkpt lat="45.07491" lon="2.60107">
        <ele>1387.04</ele>
        <time>2022-10-19T15:07:04.000Z</time>
      </trkpt>
      <trkpt lat="45.07491" lon="2.60099">
        <ele>1387.04</ele>
        <time>2022-10-19T15:07:13.570Z</time>
      </trkpt>
      <trkpt lat="45.07488" lon="2.60095">
        <ele>1388.04</ele>
        <time>2022-10-19T15:07:23.154Z</time>
      </trkpt>
      <trkpt lat="45.07485" lon="2.60089">
        <ele>1388.04</ele>
        <time>2022-10-19T15:07:32.572Z</time>
      </trkpt>
      <trkpt lat="45.07485" lon="2.60082">
        <ele>1390.04</ele>
        <time>2022-10-19T15:07:42.000Z</time>
      </trkpt>
      <trkpt lat="45.07486" lon="2.60072">
        <ele>1392.04</ele>
        <time>2022-10-19T15:07:51.071Z</time>
      </trkpt>
      <trkpt lat="45.07488" lon="2.6006">
        <ele>1392.04</ele>
        <time>2022-10-19T15:08:00.273Z</time>
      </trkpt>
      <trkpt lat="45.07492" lon="2.60049">
        <ele>1391.85</ele>
        <time>2022-10-19T15:08:09.712Z</time>
      </trkpt>
      <trkpt lat="45.07495" lon="2.60039">
        <ele>1392.04</ele>
        <time>2022-10-19T15:08:19.000Z</time>
      </trkpt>
      <trkpt lat="45.07497" lon="2.60032">
        <ele>1391.04</ele>
        <time>2022-10-19T15:08:28.512Z</time>
      </trkpt>
      <trkpt lat="45.07498" lon="2.60022">
        <ele>1391.27</ele>
        <time>2022-10-19T15:08:38.000Z</time>
      </trkpt>
      <trkpt lat="45.07498" lon="2.60009">
        <ele>1390.05</ele>
        <time>2022-10-19T15:08:47.070Z</time>
      </trkpt>
      <trkpt lat="45.07498" lon="2.59994">
        <ele>1390.04</ele>
        <time>2022-10-19T15:08:56.513Z</time>
      </trkpt>
      <trkpt lat="45.07496" lon="2.59979">
        <ele>1390.04</ele>
        <time>2022-10-19T15:09:05.552Z</time>
      </trkpt>
      <trkpt lat="45.07495" lon="2.59964">
        <ele>1390.04</ele>
        <time>2022-10-19T15:09:15.392Z</time>
      </trkpt>
      <trkpt lat="45.07494" lon="2.5995">
        <ele>1390.04</ele>
        <time>2022-10-19T15:09:24.591Z</time>
      </trkpt>
      <trkpt lat="45.07492" lon="2.59934">
        <ele>1389.79</ele>
        <time>2022-10-19T15:09:34.052Z</time>
      </trkpt>
      <trkpt lat="45.07491" lon="2.59919">
        <ele>1390.04</ele>
        <time>2022-10-19T15:09:43.274Z</time>
      </trkpt>
      <trkpt lat="45.07491" lon="2.59905">
        <ele>1390.98</ele>
        <time>2022-10-19T15:09:52.351Z</time>
      </trkpt>
      <trkpt lat="45.07491" lon="2.59888">
        <ele>1390.79</ele>
        <time>2022-10-19T15:10:02.554Z</time>
      </trkpt>
      <trkpt lat="45.0749" lon="2.59873">
        <ele>1390.04</ele>
        <time>2022-10-19T15:10:12.451Z</time>
      </trkpt>
      <trkpt lat="45.07489" lon="2.59857">
        <ele>1390.04</ele>
        <time>2022-10-19T15:10:22.000Z</time>
      </trkpt>
      <trkpt lat="45.07486" lon="2.59842">
        <ele>1390.04</ele>
        <time>2022-10-19T15:10:31.131Z</time>
      </trkpt>
      <trkpt lat="45.07484" lon="2.59828">
        <ele>1389.29</ele>
        <time>2022-10-19T15:10:40.472Z</time>
      </trkpt>
      <trkpt lat="45.07481" lon="2.59813">
        <ele>1389.04</ele>
        <time>2022-10-19T15:10:49.813Z</time>
      </trkpt>
      <trkpt lat="45.07478" lon="2.59798">
        <ele>1388.04</ele>
        <time>2022-10-19T15:10:59.590Z</time>
      </trkpt>
      <trkpt lat="45.07476" lon="2.59785">
        <ele>1388.04</ele>
        <time>2022-10-19T15:11:09.000Z</time>
      </trkpt>
      <trkpt lat="45.07473" lon="2.59772">
        <ele>1388.04</ele>
        <time>2022-10-19T15:11:18.374Z</time>
      </trkpt>
      <trkpt lat="45.07472" lon="2.59763">
        <ele>1389.04</ele>
        <time>2022-10-19T15:11:27.990Z</time>
      </trkpt>
      <trkpt lat="45.07471" lon="2.59754">
        <ele>1390.04</ele>
        <time>2022-10-19T15:11:37.214Z</time>
      </trkpt>
      <trkpt lat="45.07473" lon="2.59754">
        <ele>1390.25</ele>
        <time>2022-10-19T15:11:47.000Z</time>
      </trkpt>
      <trkpt lat="45.07472" lon="2.59754">
        <ele>1391.04</ele>
        <time>2022-10-19T15:11:59.000Z</time>
      </trkpt>
      <trkpt lat="45.07472" lon="2.59756">
        <ele>1391.04</ele>
        <time>2022-10-19T15:12:24.000Z</time>
      </trkpt>
      <trkpt lat="45.07472" lon="2.59755">
        <ele>1391.04</ele>
        <time>2022-10-19T15:23:21.000Z</time>
      </trkpt>
      <trkpt lat="45.07471" lon="2.59754">
        <ele>1390.05</ele>
        <time>2022-10-19T15:23:49.000Z</time>
      </trkpt>
      <trkpt lat="45.07466" lon="2.59745">
        <ele>1390.04</ele>
        <time>2022-10-19T15:23:58.412Z</time>
      </trkpt>
      <trkpt lat="45.07464" lon="2.59731">
        <ele>1389.06</ele>
        <time>2022-10-19T15:24:08.331Z</time>
      </trkpt>
      <trkpt lat="45.07461" lon="2.59716">
        <ele>1390.04</ele>
        <time>2022-10-19T15:24:17.571Z</time>
      </trkpt>
      <trkpt lat="45.07458" lon="2.59702">
        <ele>1390.04</ele>
        <time>2022-10-19T15:24:27.392Z</time>
      </trkpt>
      <trkpt lat="45.07455" lon="2.59686">
        <ele>1389.04</ele>
        <time>2022-10-19T15:24:36.531Z</time>
      </trkpt>
      <trkpt lat="45.07451" lon="2.59673">
        <ele>1389.04</ele>
        <time>2022-10-19T15:24:46.000Z</time>
      </trkpt>
      <trkpt lat="45.07447" lon="2.59659">
        <ele>1389.04</ele>
        <time>2022-10-19T15:24:55.431Z</time>
      </trkpt>
      <trkpt lat="45.07442" lon="2.59645">
        <ele>1389.04</ele>
        <time>2022-10-19T15:25:04.591Z</time>
      </trkpt>
      <trkpt lat="45.07439" lon="2.59631">
        <ele>1389.04</ele>
        <time>2022-10-19T15:25:14.372Z</time>
      </trkpt>
      <trkpt lat="45.07437" lon="2.59617">
        <ele>1388.05</ele>
        <time>2022-10-19T15:25:23.533Z</time>
      </trkpt>
      <trkpt lat="45.07434" lon="2.59602">
        <ele>1388.05</ele>
        <time>2022-10-19T15:25:32.556Z</time>
      </trkpt>
      <trkpt lat="45.07429" lon="2.59588">
        <ele>1387.05</ele>
        <time>2022-10-19T15:25:42.000Z</time>
      </trkpt>
      <trkpt lat="45.07421" lon="2.59576">
        <ele>1387.05</ele>
        <time>2022-10-19T15:25:51.792Z</time>
      </trkpt>
      <trkpt lat="45.07413" lon="2.59563">
        <ele>1387.05</ele>
        <time>2022-10-19T15:26:01.414Z</time>
      </trkpt>
      <trkpt lat="45.07404" lon="2.59554">
        <ele>1387.05</ele>
        <time>2022-10-19T15:26:11.431Z</time>
      </trkpt>
      <trkpt lat="45.07394" lon="2.59547">
        <ele>1387.05</ele>
        <time>2022-10-19T15:26:21.372Z</time>
      </trkpt>
      <trkpt lat="45.07387" lon="2.59536">
        <ele>1387.05</ele>
        <time>2022-10-19T15:26:31.473Z</time>
      </trkpt>
      <trkpt lat="45.07382" lon="2.59527">
        <ele>1388.05</ele>
        <time>2022-10-19T15:26:40.997Z</time>
      </trkpt>
      <trkpt lat="45.07376" lon="2.59522">
        <ele>1386.3</ele>
        <time>2022-10-19T15:26:50.000Z</time>
      </trkpt>
      <trkpt lat="45.0737" lon="2.59516">
        <ele>1385.05</ele>
        <time>2022-10-19T15:26:59.252Z</time>
      </trkpt>
      <trkpt lat="45.07369" lon="2.59515">
        <ele>1384.05</ele>
        <time>2022-10-19T15:28:04.973Z</time>
      </trkpt>
      <trkpt lat="45.07368" lon="2.59514">
        <ele>1384.05</ele>
        <time>2022-10-19T15:28:20.000Z</time>
      </trkpt>
      <trkpt lat="45.0736" lon="2.59511">
        <ele>1382.05</ele>
        <time>2022-10-19T15:28:29.451Z</time>
      </trkpt>
      <trkpt lat="45.07353" lon="2.59508">
        <ele>1381.05</ele>
        <time>2022-10-19T15:28:39.000Z</time>
      </trkpt>
      <trkpt lat="45.07344" lon="2.59505">
        <ele>1380.06</ele>
        <time>2022-10-19T15:28:48.431Z</time>
      </trkpt>
      <trkpt lat="45.0734" lon="2.59503">
        <ele>1379.3</ele>
        <time>2022-10-19T15:28:58.311Z</time>
      </trkpt>
      <trkpt lat="45.07338" lon="2.59503">
        <ele>1379.11</ele>
        <time>2022-10-19T15:29:08.000Z</time>
      </trkpt>
      <trkpt lat="45.0733" lon="2.595">
        <ele>1379.05</ele>
        <time>2022-10-19T15:29:17.050Z</time>
      </trkpt>
      <trkpt lat="45.07323" lon="2.59499">
        <ele>1378.05</ele>
        <time>2022-10-19T15:29:26.394Z</time>
      </trkpt>
      <trkpt lat="45.07314" lon="2.59493">
        <ele>1378.05</ele>
        <time>2022-10-19T15:29:35.431Z</time>
      </trkpt>
      <trkpt lat="45.07303" lon="2.59493">
        <ele>1378.04</ele>
        <time>2022-10-19T15:29:45.000Z</time>
      </trkpt>
      <trkpt lat="45.07291" lon="2.59491">
        <ele>1378.05</ele>
        <time>2022-10-19T15:29:54.411Z</time>
      </trkpt>
      <trkpt lat="45.0728" lon="2.5949">
        <ele>1378.05</ele>
        <time>2022-10-19T15:30:03.491Z</time>
      </trkpt>
      <trkpt lat="45.07269" lon="2.59489">
        <ele>1378.05</ele>
        <time>2022-10-19T15:30:12.511Z</time>
      </trkpt>
      <trkpt lat="45.07268" lon="2.59489">
        <ele>1377.3</ele>
        <time>2022-10-19T15:30:21.874Z</time>
      </trkpt>
      <trkpt lat="45.07267" lon="2.59489">
        <ele>1377.05</ele>
        <time>2022-10-19T15:30:33.000Z</time>
      </trkpt>
      <trkpt lat="45.07254" lon="2.5949">
        <ele>1376.05</ele>
        <time>2022-10-19T15:30:42.093Z</time>
      </trkpt>
      <trkpt lat="45.07243" lon="2.59493">
        <ele>1377.05</ele>
        <time>2022-10-19T15:30:51.511Z</time>
      </trkpt>
      <trkpt lat="45.07233" lon="2.59491">
        <ele>1376.06</ele>
        <time>2022-10-19T15:31:01.000Z</time>
      </trkpt>
      <trkpt lat="45.07221" lon="2.59489">
        <ele>1377.05</ele>
        <time>2022-10-19T15:31:10.311Z</time>
      </trkpt>
      <trkpt lat="45.07211" lon="2.59486">
        <ele>1377.05</ele>
        <time>2022-10-19T15:31:19.351Z</time>
      </trkpt>
      <trkpt lat="45.07199" lon="2.59486">
        <ele>1377.05</ele>
        <time>2022-10-19T15:31:28.432Z</time>
      </trkpt>
      <trkpt lat="45.07188" lon="2.59483">
        <ele>1378.04</ele>
        <time>2022-10-19T15:31:37.611Z</time>
      </trkpt>
      <trkpt lat="45.07179" lon="2.59475">
        <ele>1377.05</ele>
        <time>2022-10-19T15:31:47.000Z</time>
      </trkpt>
      <trkpt lat="45.07168" lon="2.59465">
        <ele>1377.05</ele>
        <time>2022-10-19T15:31:57.352Z</time>
      </trkpt>
      <trkpt lat="45.07159" lon="2.59456">
        <ele>1377.05</ele>
        <time>2022-10-19T15:32:07.000Z</time>
      </trkpt>
      <trkpt lat="45.0715" lon="2.59447">
        <ele>1376.05</ele>
        <time>2022-10-19T15:32:17.000Z</time>
      </trkpt>
      <trkpt lat="45.07142" lon="2.59437">
        <ele>1375.3</ele>
        <time>2022-10-19T15:32:26.834Z</time>
      </trkpt>
      <trkpt lat="45.07136" lon="2.59427">
        <ele>1375.05</ele>
        <time>2022-10-19T15:32:36.000Z</time>
      </trkpt>
      <trkpt lat="45.07135" lon="2.59422">
        <ele>1374.05</ele>
        <time>2022-10-19T15:32:45.571Z</time>
      </trkpt>
      <trkpt lat="45.07128" lon="2.59412">
        <ele>1375.05</ele>
        <time>2022-10-19T15:32:55.000Z</time>
      </trkpt>
      <trkpt lat="45.07121" lon="2.59399">
        <ele>1376.05</ele>
        <time>2022-10-19T15:33:04.254Z</time>
      </trkpt>
      <trkpt lat="45.07116" lon="2.59386">
        <ele>1376.05</ele>
        <time>2022-10-19T15:33:13.650Z</time>
      </trkpt>
      <trkpt lat="45.07111" lon="2.59372">
        <ele>1376.05</ele>
        <time>2022-10-19T15:33:23.000Z</time>
      </trkpt>
      <trkpt lat="45.07106" lon="2.59358">
        <ele>1376.05</ele>
        <time>2022-10-19T15:33:32.431Z</time>
      </trkpt>
      <trkpt lat="45.07102" lon="2.59344">
        <ele>1375.3</ele>
        <time>2022-10-19T15:33:43.000Z</time>
      </trkpt>
      <trkpt lat="45.07098" lon="2.59337">
        <ele>1375.05</ele>
        <time>2022-10-19T15:33:52.311Z</time>
      </trkpt>
      <trkpt lat="45.07093" lon="2.59323">
        <ele>1374.06</ele>
        <time>2022-10-19T15:34:01.532Z</time>
      </trkpt>
      <trkpt lat="45.07092" lon="2.59311">
        <ele>1374.05</ele>
        <time>2022-10-19T15:34:11.000Z</time>
      </trkpt>
      <trkpt lat="45.0709" lon="2.59295">
        <ele>1373.05</ele>
        <time>2022-10-19T15:34:20.072Z</time>
      </trkpt>
      <trkpt lat="45.07087" lon="2.59282">
        <ele>1372.05</ele>
        <time>2022-10-19T15:34:29.611Z</time>
      </trkpt>
      <trkpt lat="45.07084" lon="2.59269">
        <ele>1371.12</ele>
        <time>2022-10-19T15:34:39.000Z</time>
      </trkpt>
      <trkpt lat="45.07082" lon="2.59257">
        <ele>1370.06</ele>
        <time>2022-10-19T15:34:48.154Z</time>
      </trkpt>
      <trkpt lat="45.07081" lon="2.59243">
        <ele>1369.05</ele>
        <time>2022-10-19T15:34:57.492Z</time>
      </trkpt>
      <trkpt lat="45.07079" lon="2.59227">
        <ele>1370.04</ele>
        <time>2022-10-19T15:35:07.391Z</time>
      </trkpt>
      <trkpt lat="45.07076" lon="2.59212">
        <ele>1370.05</ele>
        <time>2022-10-19T15:35:17.000Z</time>
      </trkpt>
      <trkpt lat="45.07074" lon="2.59198">
        <ele>1368.06</ele>
        <time>2022-10-19T15:35:26.332Z</time>
      </trkpt>
      <trkpt lat="45.07072" lon="2.59183">
        <ele>1368.05</ele>
        <time>2022-10-19T15:35:35.530Z</time>
      </trkpt>
      <trkpt lat="45.07074" lon="2.59168">
        <ele>1366.06</ele>
        <time>2022-10-19T15:35:44.931Z</time>
      </trkpt>
      <trkpt lat="45.07072" lon="2.59157">
        <ele>1366.06</ele>
        <time>2022-10-19T15:35:54.000Z</time>
      </trkpt>
      <trkpt lat="45.07072" lon="2.59142">
        <ele>1364.06</ele>
        <time>2022-10-19T15:36:03.251Z</time>
      </trkpt>
      <trkpt lat="45.07071" lon="2.59131">
        <ele>1364.06</ele>
        <time>2022-10-19T15:36:13.000Z</time>
      </trkpt>
      <trkpt lat="45.0707" lon="2.59119">
        <ele>1363.04</ele>
        <time>2022-10-19T15:36:22.273Z</time>
      </trkpt>
      <trkpt lat="45.07068" lon="2.59107">
        <ele>1361.31</ele>
        <time>2022-10-19T15:36:32.000Z</time>
      </trkpt>
      <trkpt lat="45.07068" lon="2.59092">
        <ele>1361.06</ele>
        <time>2022-10-19T15:36:41.392Z</time>
      </trkpt>
      <trkpt lat="45.07067" lon="2.59079">
        <ele>1359.12</ele>
        <time>2022-10-19T15:36:51.332Z</time>
      </trkpt>
      <trkpt lat="45.07067" lon="2.59066">
        <ele>1359.06</ele>
        <time>2022-10-19T15:37:00.452Z</time>
      </trkpt>
      <trkpt lat="45.07065" lon="2.59054">
        <ele>1357.06</ele>
        <time>2022-10-19T15:37:10.000Z</time>
      </trkpt>
      <trkpt lat="45.07065" lon="2.59041">
        <ele>1355.06</ele>
        <time>2022-10-19T15:37:19.252Z</time>
      </trkpt>
      <trkpt lat="45.07063" lon="2.5903">
        <ele>1353.12</ele>
        <time>2022-10-19T15:37:28.352Z</time>
      </trkpt>
      <trkpt lat="45.07061" lon="2.59019">
        <ele>1351.06</ele>
        <time>2022-10-19T15:37:37.610Z</time>
      </trkpt>
      <trkpt lat="45.07061" lon="2.59008">
        <ele>1347.31</ele>
        <time>2022-10-19T15:37:47.000Z</time>
      </trkpt>
      <trkpt lat="45.07059" lon="2.58997">
        <ele>1345.06</ele>
        <time>2022-10-19T15:37:56.492Z</time>
      </trkpt>
      <trkpt lat="45.07058" lon="2.58987">
        <ele>1343.06</ele>
        <time>2022-10-19T15:38:05.979Z</time>
      </trkpt>
      <trkpt lat="45.07057" lon="2.58976">
        <ele>1342.06</ele>
        <time>2022-10-19T15:38:15.173Z</time>
      </trkpt>
      <trkpt lat="45.07056" lon="2.58966">
        <ele>1340.31</ele>
        <time>2022-10-19T15:38:24.515Z</time>
      </trkpt>
      <trkpt lat="45.07055" lon="2.58955">
        <ele>1338.12</ele>
        <time>2022-10-19T15:38:33.610Z</time>
      </trkpt>
      <trkpt lat="45.07054" lon="2.58944">
        <ele>1337.06</ele>
        <time>2022-10-19T15:38:43.052Z</time>
      </trkpt>
      <trkpt lat="45.07052" lon="2.58934">
        <ele>1335.06</ele>
        <time>2022-10-19T15:38:52.392Z</time>
      </trkpt>
      <trkpt lat="45.07052" lon="2.58925">
        <ele>1333.12</ele>
        <time>2022-10-19T15:39:02.012Z</time>
      </trkpt>
      <trkpt lat="45.0705" lon="2.58917">
        <ele>1332.06</ele>
        <time>2022-10-19T15:39:11.592Z</time>
      </trkpt>
      <trkpt lat="45.07048" lon="2.58907">
        <ele>1330.06</ele>
        <time>2022-10-19T15:39:21.091Z</time>
      </trkpt>
      <trkpt lat="45.0705" lon="2.58897">
        <ele>1328.06</ele>
        <time>2022-10-19T15:39:30.451Z</time>
      </trkpt>
      <trkpt lat="45.07048" lon="2.58887">
        <ele>1327.08</ele>
        <time>2022-10-19T15:39:39.555Z</time>
      </trkpt>
      <trkpt lat="45.07047" lon="2.58873">
        <ele>1325.08</ele>
        <time>2022-10-19T15:39:49.591Z</time>
      </trkpt>
      <trkpt lat="45.07045" lon="2.5886">
        <ele>1324.06</ele>
        <time>2022-10-19T15:39:59.000Z</time>
      </trkpt>
      <trkpt lat="45.07044" lon="2.58847">
        <ele>1323.06</ele>
        <time>2022-10-19T15:40:08.173Z</time>
      </trkpt>
      <trkpt lat="45.07043" lon="2.58834">
        <ele>1322.31</ele>
        <time>2022-10-19T15:40:17.352Z</time>
      </trkpt>
      <trkpt lat="45.07041" lon="2.58819">
        <ele>1322.06</ele>
        <time>2022-10-19T15:40:27.212Z</time>
      </trkpt>
      <trkpt lat="45.0704" lon="2.58805">
        <ele>1320.07</ele>
        <time>2022-10-19T15:40:36.452Z</time>
      </trkpt>
      <trkpt lat="45.07039" lon="2.58792">
        <ele>1319.11</ele>
        <time>2022-10-19T15:40:45.553Z</time>
      </trkpt>
      <trkpt lat="45.07036" lon="2.58778">
        <ele>1318.06</ele>
        <time>2022-10-19T15:40:54.872Z</time>
      </trkpt>
      <trkpt lat="45.07035" lon="2.58765">
        <ele>1316.07</ele>
        <time>2022-10-19T15:41:04.292Z</time>
      </trkpt>
      <trkpt lat="45.07034" lon="2.5875">
        <ele>1314.06</ele>
        <time>2022-10-19T15:41:14.251Z</time>
      </trkpt>
      <trkpt lat="45.07032" lon="2.58737">
        <ele>1312.07</ele>
        <time>2022-10-19T15:41:24.000Z</time>
      </trkpt>
      <trkpt lat="45.07031" lon="2.58722">
        <ele>1311.06</ele>
        <time>2022-10-19T15:41:33.153Z</time>
      </trkpt>
      <trkpt lat="45.0703" lon="2.58706">
        <ele>1310</ele>
        <time>2022-10-19T15:41:42.432Z</time>
      </trkpt>
      <trkpt lat="45.07028" lon="2.58691">
        <ele>1308.06</ele>
        <time>2022-10-19T15:41:51.978Z</time>
      </trkpt>
      <trkpt lat="45.07026" lon="2.58678">
        <ele>1307.06</ele>
        <time>2022-10-19T15:42:01.071Z</time>
      </trkpt>
      <trkpt lat="45.07024" lon="2.58664">
        <ele>1306.06</ele>
        <time>2022-10-19T15:42:10.412Z</time>
      </trkpt>
      <trkpt lat="45.07025" lon="2.58653">
        <ele>1303.13</ele>
        <time>2022-10-19T15:42:19.471Z</time>
      </trkpt>
      <trkpt lat="45.07024" lon="2.58641">
        <ele>1302.31</ele>
        <time>2022-10-19T15:42:28.690Z</time>
      </trkpt>
      <trkpt lat="45.07022" lon="2.58627">
        <ele>1301.31</ele>
        <time>2022-10-19T15:42:38.000Z</time>
      </trkpt>
      <trkpt lat="45.0702" lon="2.58612">
        <ele>1300.07</ele>
        <time>2022-10-19T15:42:47.070Z</time>
      </trkpt>
      <trkpt lat="45.07018" lon="2.58598">
        <ele>1299.31</ele>
        <time>2022-10-19T15:42:56.252Z</time>
      </trkpt>
      <trkpt lat="45.07021" lon="2.58582">
        <ele>1297.32</ele>
        <time>2022-10-19T15:43:06.372Z</time>
      </trkpt>
      <trkpt lat="45.0703" lon="2.5857">
        <ele>1294.07</ele>
        <time>2022-10-19T15:43:16.452Z</time>
      </trkpt>
      <trkpt lat="45.07035" lon="2.58557">
        <ele>1292.07</ele>
        <time>2022-10-19T15:43:26.547Z</time>
      </trkpt>
      <trkpt lat="45.07041" lon="2.58547">
        <ele>1290.32</ele>
        <time>2022-10-19T15:43:36.000Z</time>
      </trkpt>
      <trkpt lat="45.07048" lon="2.58541">
        <ele>1289.07</ele>
        <time>2022-10-19T15:43:45.272Z</time>
      </trkpt>
      <trkpt lat="45.07058" lon="2.58538">
        <ele>1286.08</ele>
        <time>2022-10-19T15:43:55.000Z</time>
      </trkpt>
      <trkpt lat="45.07067" lon="2.58541">
        <ele>1285.08</ele>
        <time>2022-10-19T15:44:04.072Z</time>
      </trkpt>
      <trkpt lat="45.07074" lon="2.58543">
        <ele>1284.13</ele>
        <time>2022-10-19T15:44:14.000Z</time>
      </trkpt>
      <trkpt lat="45.07083" lon="2.5854">
        <ele>1284.07</ele>
        <time>2022-10-19T15:44:23.352Z</time>
      </trkpt>
      <trkpt lat="45.07087" lon="2.58525">
        <ele>1283.07</ele>
        <time>2022-10-19T15:44:32.533Z</time>
      </trkpt>
      <trkpt lat="45.0709" lon="2.58521">
        <ele>1280.32</ele>
        <time>2022-10-19T15:44:42.000Z</time>
      </trkpt>
      <trkpt lat="45.07092" lon="2.58521">
        <ele>1280.07</ele>
        <time>2022-10-19T15:44:52.000Z</time>
      </trkpt>
      <trkpt lat="45.07091" lon="2.5852">
        <ele>1278.13</ele>
        <time>2022-10-19T15:45:37.000Z</time>
      </trkpt>
      <trkpt lat="45.0709" lon="2.58519">
        <ele>1279.07</ele>
        <time>2022-10-19T15:45:54.000Z</time>
      </trkpt>
      <trkpt lat="45.07089" lon="2.5851">
        <ele>1277.08</ele>
        <time>2022-10-19T15:46:03.050Z</time>
      </trkpt>
      <trkpt lat="45.0709" lon="2.58498">
        <ele>1276.07</ele>
        <time>2022-10-19T15:46:12.152Z</time>
      </trkpt>
      <trkpt lat="45.07084" lon="2.58485">
        <ele>1275.07</ele>
        <time>2022-10-19T15:46:22.000Z</time>
      </trkpt>
      <trkpt lat="45.07083" lon="2.58469">
        <ele>1274.07</ele>
        <time>2022-10-19T15:46:31.371Z</time>
      </trkpt>
      <trkpt lat="45.07085" lon="2.58453">
        <ele>1272.08</ele>
        <time>2022-10-19T15:46:41.494Z</time>
      </trkpt>
      <trkpt lat="45.07086" lon="2.58437">
        <ele>1270.13</ele>
        <time>2022-10-19T15:46:51.000Z</time>
      </trkpt>
      <trkpt lat="45.07087" lon="2.58422">
        <ele>1269.08</ele>
        <time>2022-10-19T15:47:00.471Z</time>
      </trkpt>
      <trkpt lat="45.07087" lon="2.58407">
        <ele>1268.32</ele>
        <time>2022-10-19T15:47:10.000Z</time>
      </trkpt>
      <trkpt lat="45.07087" lon="2.58392">
        <ele>1267.07</ele>
        <time>2022-10-19T15:47:19.552Z</time>
      </trkpt>
      <trkpt lat="45.07087" lon="2.58378">
        <ele>1266.32</ele>
        <time>2022-10-19T15:47:28.912Z</time>
      </trkpt>
      <trkpt lat="45.07087" lon="2.58363">
        <ele>1265.32</ele>
        <time>2022-10-19T15:47:38.533Z</time>
      </trkpt>
      <trkpt lat="45.07086" lon="2.58348">
        <ele>1264.08</ele>
        <time>2022-10-19T15:47:47.981Z</time>
      </trkpt>
      <trkpt lat="45.07086" lon="2.58333">
        <ele>1263.07</ele>
        <time>2022-10-19T15:47:57.452Z</time>
      </trkpt>
      <trkpt lat="45.07086" lon="2.58319">
        <ele>1263.09</ele>
        <time>2022-10-19T15:48:06.532Z</time>
      </trkpt>
      <trkpt lat="45.07085" lon="2.58305">
        <ele>1261.13</ele>
        <time>2022-10-19T15:48:16.000Z</time>
      </trkpt>
      <trkpt lat="45.07084" lon="2.58288">
        <ele>1261.07</ele>
        <time>2022-10-19T15:48:25.511Z</time>
      </trkpt>
      <trkpt lat="45.07081" lon="2.58275">
        <ele>1260.07</ele>
        <time>2022-10-19T15:48:34.732Z</time>
      </trkpt>
      <trkpt lat="45.07077" lon="2.58261">
        <ele>1258.13</ele>
        <time>2022-10-19T15:48:44.493Z</time>
      </trkpt>
      <trkpt lat="45.07076" lon="2.58246">
        <ele>1258.07</ele>
        <time>2022-10-19T15:48:54.513Z</time>
      </trkpt>
      <trkpt lat="45.07076" lon="2.58232">
        <ele>1256.09</ele>
        <time>2022-10-19T15:49:04.432Z</time>
      </trkpt>
      <trkpt lat="45.07078" lon="2.58219">
        <ele>1255.07</ele>
        <time>2022-10-19T15:49:13.452Z</time>
      </trkpt>
      <trkpt lat="45.07079" lon="2.58206">
        <ele>1254.09</ele>
        <time>2022-10-19T15:49:22.772Z</time>
      </trkpt>
      <trkpt lat="45.07079" lon="2.582">
        <ele>1253.07</ele>
        <time>2022-10-19T15:49:32.000Z</time>
      </trkpt>
      <trkpt lat="45.07079" lon="2.58197">
        <ele>1252.07</ele>
        <time>2022-10-19T15:49:41.133Z</time>
      </trkpt>
      <trkpt lat="45.07079" lon="2.58184">
        <ele>1252.07</ele>
        <time>2022-10-19T15:49:50.434Z</time>
      </trkpt>
      <trkpt lat="45.07079" lon="2.5817">
        <ele>1251.07</ele>
        <time>2022-10-19T15:50:00.000Z</time>
      </trkpt>
      <trkpt lat="45.07079" lon="2.58159">
        <ele>1249.07</ele>
        <time>2022-10-19T15:50:09.112Z</time>
      </trkpt>
      <trkpt lat="45.07075" lon="2.58148">
        <ele>1247.14</ele>
        <time>2022-10-19T15:50:18.371Z</time>
      </trkpt>
      <trkpt lat="45.07069" lon="2.5814">
        <ele>1245.08</ele>
        <time>2022-10-19T15:50:27.512Z</time>
      </trkpt>
      <trkpt lat="45.07059" lon="2.58141">
        <ele>1243.07</ele>
        <time>2022-10-19T15:50:37.000Z</time>
      </trkpt>
      <trkpt lat="45.07054" lon="2.58133">
        <ele>1242.07</ele>
        <time>2022-10-19T15:50:46.093Z</time>
      </trkpt>
      <trkpt lat="45.07055" lon="2.58119">
        <ele>1241.07</ele>
        <time>2022-10-19T15:50:55.472Z</time>
      </trkpt>
      <trkpt lat="45.07056" lon="2.58105">
        <ele>1239.14</ele>
        <time>2022-10-19T15:51:05.000Z</time>
      </trkpt>
      <trkpt lat="45.07056" lon="2.5809">
        <ele>1238.07</ele>
        <time>2022-10-19T15:51:14.511Z</time>
      </trkpt>
      <trkpt lat="45.07057" lon="2.5808">
        <ele>1236.57</ele>
        <time>2022-10-19T15:51:24.000Z</time>
      </trkpt>
      <trkpt lat="45.07058" lon="2.58071">
        <ele>1235.09</ele>
        <time>2022-10-19T15:51:33.474Z</time>
      </trkpt>
      <trkpt lat="45.07061" lon="2.58058">
        <ele>1233.32</ele>
        <time>2022-10-19T15:51:43.000Z</time>
      </trkpt>
      <trkpt lat="45.07059" lon="2.58046">
        <ele>1232.14</ele>
        <time>2022-10-19T15:51:52.453Z</time>
      </trkpt>
      <trkpt lat="45.07052" lon="2.58039">
        <ele>1233.07</ele>
        <time>2022-10-19T15:52:01.913Z</time>
      </trkpt>
      <trkpt lat="45.07057" lon="2.58025">
        <ele>1232.08</ele>
        <time>2022-10-19T15:52:11.291Z</time>
      </trkpt>
      <trkpt lat="45.07058" lon="2.58013">
        <ele>1232.08</ele>
        <time>2022-10-19T15:52:21.053Z</time>
      </trkpt>
      <trkpt lat="45.07062" lon="2.58011">
        <ele>1232.01</ele>
        <time>2022-10-19T15:52:30.373Z</time>
      </trkpt>
      <trkpt lat="45.07066" lon="2.58012">
        <ele>1231.08</ele>
        <time>2022-10-19T15:52:40.000Z</time>
      </trkpt>
      <trkpt lat="45.07069" lon="2.58016">
        <ele>1230.08</ele>
        <time>2022-10-19T15:52:50.000Z</time>
      </trkpt>
      <trkpt lat="45.0707" lon="2.58015">
        <ele>1230.08</ele>
        <time>2022-10-19T15:52:59.072Z</time>
      </trkpt>
      <trkpt lat="45.07069" lon="2.58014">
        <ele>1230.08</ele>
        <time>2022-10-19T15:53:09.984Z</time>
      </trkpt>
      <trkpt lat="45.07068" lon="2.58012">
        <ele>1230.08</ele>
        <time>2022-10-19T15:53:19.092Z</time>
      </trkpt>
      <trkpt lat="45.07068" lon="2.57997">
        <ele>1229.33</ele>
        <time>2022-10-19T15:53:28.271Z</time>
      </trkpt>
      <trkpt lat="45.07069" lon="2.5798">
        <ele>1229.08</ele>
        <time>2022-10-19T15:53:37.671Z</time>
      </trkpt>
      <trkpt lat="45.07069" lon="2.57963">
        <ele>1229.07</ele>
        <time>2022-10-19T15:53:47.450Z</time>
      </trkpt>
      <trkpt lat="45.0707" lon="2.57958">
        <ele>1228.08</ele>
        <time>2022-10-19T15:53:57.000Z</time>
      </trkpt>
      <trkpt lat="45.0707" lon="2.57959">
        <ele>1228.83</ele>
        <time>2022-10-19T15:54:07.000Z</time>
      </trkpt>
      <trkpt lat="45.07071" lon="2.5796">
        <ele>1227.08</ele>
        <time>2022-10-19T15:54:22.290Z</time>
      </trkpt>
      <trkpt lat="45.07071" lon="2.57961">
        <ele>1226.14</ele>
        <time>2022-10-19T15:54:50.000Z</time>
      </trkpt>
      <trkpt lat="45.0707" lon="2.57961">
        <ele>1226.06</ele>
        <time>2022-10-19T15:56:11.000Z</time>
      </trkpt>
      <trkpt lat="45.07073" lon="2.57958">
        <ele>1226.08</ele>
        <time>2022-10-19T15:56:20.319Z</time>
        <extensions>
          <visugpx:TrkExtension xmlns:visugpx="https://www.visugpx.com/editgpx/">
            <visugpx:node>3</visugpx:node>
            </visugpx:TrkExtension>
        </extensions>
      </trkpt>
    </trkseg>
  </trk>
</gpx>